GFSWCAN_prec_precacc_018.txt.gz
Total_Precipitation_Accumulation
0.26 0.06 0.01 0.00 0.00 0.00 0.00 0.00 0.00 0.00 0.00 0.00 0.00 0.00 0.00 0.00 0.00 0.00 0.00 0.00 0.00 0.00 0.00 0.00 0.00 0.00 0.00 0.00 0.00 0.00 0.00 0.00 0.00 0.00 0.00 0.00 0.00 0.00 0.00 0.00 0.00 0.00 0.00 0.00 0.00 0.00 0.01 0.00 0.00 0.01 0.02 0.02 0.00 0.00
0.47 0.14 0.04 0.00 0.00 0.00 0.00 0.00 0.00 0.01 0.00 0.00 0.00 0.00 0.00 0.00 0.00 0.00 0.00 0.00 0.00 0.00 0.00 0.00 0.00 0.00 0.00 0.00 0.00 0.00 0.00 0.00 0.00 0.00 0.00 0.00 0.00 0.00 0.00 0.00 0.00 0.00 0.00 0.00 0.01 0.00 0.00 0.00 0.02 0.02 0.01 0.01 0.00 0.00
0.58 0.25 0.07 0.01 0.00 0.00 0.00 0.00 0.00 0.01 0.00 0.01 0.01 0.01 0.00 0.00 0.00 0.00 0.00 0.00 0.00 0.00 0.00 0.00 0.00 0.00 0.00 0.00 0.00 0.00 0.00 0.00 0.00 0.00 0.00 0.00 0.01 0.00 0.00 0.00 0.00 0.00 0.00 0.00 0.01 0.00 0.00 0.01 0.01 0.01 0.00 0.00 0.00 0.00
0.45 0.32 0.11 0.01 0.00 0.00 0.00 0.00 0.00 0.00 0.00 0.00 0.01 0.01 0.00 0.00 0.00 0.00 0.00 0.00 0.00 0.00 0.03 0.01 0.00 0.00 0.00 0.00 0.00 0.00 0.00 0.00 0.00 0.00 0.00 0.01 0.01 0.00 0.00 0.00 0.00 0.00 0.00 0.01 0.01 0.00 0.00 0.01 0.01 0.00 0.00 0.01 0.01 0.01
0.35 0.25 0.14 0.03 0.00 0.00 0.00 0.00 0.00 0.00 0.01 0.01 0.01 0.01 0.01 0.00 0.00 0.00 0.00 0.00 0.00 0.04 0.03 0.00 0.00 0.00 0.00 0.00 0.00 0.00 0.00 0.00 0.00 0.00 0.01 0.00 0.00 0.00 0.01 0.00 0.00 0.00 0.00 0.01 0.01 0.01 0.01 0.03 0.02 0.01 0.02 0.02 0.02 0.00
0.31 0.21 0.13 0.03 0.01 0.01 0.01 0.01 0.01 0.01 0.01 0.01 0.01 0.01 0.00 0.00 0.00 0.00 0.00 0.00 0.00 0.00 0.01 0.02 0.00 0.00 0.00 0.00 0.00 0.00 0.00 0.00 0.00 0.01 0.00 0.00 0.00 0.01 0.00 0.00 0.00 0.00 0.00 0.00 0.01 0.01 0.03 0.02 0.01 0.00 0.00 0.00 0.00 0.00
0.20 0.16 0.11 0.04 0.00 0.00 0.00 0.00 0.01 0.00 0.01 0.01 0.01 0.00 0.00 0.00 0.00 0.02 0.02 0.01 0.00 0.01 0.03 0.02 0.01 0.00 0.00 0.00 0.00 0.01 0.01 0.01 0.02 0.04 0.01 0.00 0.00 0.04 0.01 0.00 0.00 0.00 0.00 0.00 0.00 0.02 0.03 0.01 0.01 0.00 0.00 0.00 0.00 0.00
0.12 0.06 0.04 0.03 0.01 0.01 0.00 0.00 0.00 0.01 0.01 0.01 0.01 0.00 0.00 0.00 0.00 0.03 0.01 0.00 0.00 0.03 0.04 0.02 0.00 0.00 0.00 0.00 0.01 0.02 0.07 0.11 0.07 0.04 0.02 0.00 0.01 0.04 0.01 0.00 0.00 0.00 0.00 0.00 0.01 0.02 0.01 0.01 0.00 0.00 0.00 0.00 0.00 0.01
0.05 0.02 0.01 0.01 0.00 0.01 0.00 0.00 0.01 0.02 0.01 0.01 0.02 0.01 0.01 0.01 0.02 0.01 0.00 0.00 0.00 0.08 0.05 0.01 0.00 0.00 0.00 0.00 0.00 0.00 0.03 0.03 0.01 0.01 0.00 0.01 0.00 0.00 0.00 0.00 0.00 0.00 0.00 0.01 0.00 0.00 0.00 0.00 0.00 0.00 0.00 0.02 0.05 0.12
0.03 0.01 0.00 0.00 0.00 0.00 0.00 0.01 0.01 0.04 0.12 0.19 0.20 0.15 0.03 0.04 0.04 0.01 0.02 0.03 0.02 0.01 0.00 0.00 0.00 0.00 0.00 0.00 0.00 0.00 0.00 0.01 0.00 0.00 0.00 0.00 0.00 0.00 0.00 0.00 0.00 0.00 0.00 0.00 0.00 0.00 0.01 0.01 0.01 0.02 0.04 0.10 0.15 0.10
0.04 0.02 0.00 0.00 0.00 0.00 0.00 0.01 0.02 0.12 0.55 0.67 0.58 0.30 0.15 0.16 0.05 0.08 0.06 0.07 0.02 0.00 0.00 0.00 0.00 0.00 0.00 0.01 0.01 0.03 0.04 0.02 0.01 0.00 0.00 0.01 0.00 0.00 0.00 0.00 0.00 0.00 0.00 0.00 0.00 0.00 0.02 0.05 0.13 0.24 0.23 0.13 0.03 0.01
0.02 0.01 0.00 0.00 0.00 0.01 0.01 0.04 0.07 0.13 0.39 0.68 0.54 0.29 0.28 0.56 0.39 0.44 0.47 0.17 0.03 0.00 0.01 0.01 0.00 0.01 0.03 0.03 0.06 0.10 0.12 0.10 0.07 0.01 0.03 0.02 0.00 0.00 0.00 0.00 0.00 0.00 0.00 0.00 0.03 0.10 0.18 0.23 0.23 0.11 0.03 0.02 0.02 0.01
0.00 0.00 0.00 0.00 0.00 0.01 0.01 0.03 0.04 0.10 0.26 0.59 0.73 0.76 0.79 1.08 1.10 0.81 0.44 0.16 0.04 0.01 0.01 0.01 0.02 0.03 0.06 0.06 0.15 0.26 0.36 0.27 0.10 0.07 0.04 0.04 0.02 0.02 0.04 0.05 0.06 0.07 0.09 0.15 0.21 0.18 0.11 0.05 0.03 0.03 0.03 0.02 0.01 0.01
0.00 0.00 0.00 0.00 0.00 0.02 0.03 0.02 0.06 0.07 0.16 0.49 0.78 1.09 0.96 0.95 0.68 0.49 0.21 0.08 0.06 0.04 0.02 0.02 0.05 0.07 0.09 0.11 0.35 0.55 0.56 0.30 0.29 0.16 0.09 0.11 0.19 0.26 0.17 0.12 0.10 0.07 0.05 0.03 0.01 0.01 0.01 0.01 0.01 0.00 0.00 0.00 0.00 0.00
0.00 0.00 0.00 0.00 0.00 0.03 0.04 0.04 0.05 0.03 0.05 0.14 0.24 0.43 0.48 0.40 0.30 0.21 0.18 0.17 0.17 0.17 0.24 0.29 0.35 0.32 0.30 0.45 0.49 0.39 0.34 0.31 0.26 0.27 0.34 0.34 0.29 0.23 0.07 0.01 0.01 0.00 0.00 0.00 0.00 0.00 0.00 0.00 0.00 0.00 0.00 0.00 0.00 0.00
0.00 0.00 0.00 0.00 0.00 0.01 0.01 0.08 0.04 0.04 0.03 0.01 0.06 0.16 0.20 0.18 0.20 0.23 0.23 0.24 0.26 0.33 0.35 0.37 0.38 0.40 0.45 0.43 0.33 0.31 0.29 0.31 0.34 0.18 0.10 0.06 0.05 0.06 0.09 0.06 0.00 0.00 0.00 0.00 0.00 0.00 0.00 0.00 0.00 0.00 0.00 0.00 0.00 0.00
0.00 0.01 0.00 0.00 0.00 0.02 0.03 0.03 0.03 0.01 0.08 0.00 0.00 0.02 0.05 0.06 0.08 0.11 0.12 0.12 0.11 0.15 0.20 0.16 0.17 0.20 0.20 0.22 0.24 0.21 0.24 0.18 0.12 0.08 0.03 0.04 0.06 0.03 0.01 0.00 0.00 0.00 0.00 0.00 0.00 0.00 0.00 0.00 0.00 0.00 0.00 0.00 0.00 0.00
0.02 0.02 0.00 0.00 0.01 0.01 0.05 0.03 0.04 0.01 0.00 0.00 0.00 0.00 0.01 0.01 0.01 0.01 0.00 0.00 0.00 0.01 0.01 0.02 0.02 0.04 0.09 0.11 0.12 0.07 0.03 0.02 0.02 0.01 0.01 0.03 0.01 0.00 0.00 0.00 0.00 0.00 0.00 0.00 0.00 0.00 0.00 0.00 0.00 0.00 0.00 0.00 0.00 0.01
0.02 0.04 0.01 0.02 0.01 0.01 0.05 0.07 0.02 0.01 0.00 0.00 0.00 0.01 0.01 0.01 0.00 0.00 0.01 0.00 0.00 0.00 0.00 0.00 0.01 0.00 0.01 0.00 0.00 0.00 0.00 0.00 0.00 0.00 0.00 0.00 0.00 0.00 0.00 0.00 0.00 0.00 0.00 0.00 0.00 0.00 0.00 0.00 0.00 0.00 0.00 0.01 0.01 0.02
0.01 0.04 0.07 0.11 0.01 0.00 0.01 0.01 0.01 0.01 0.01 0.00 0.00 0.00 0.00 0.01 0.01 0.01 0.01 0.00 0.00 0.00 0.00 0.00 0.00 0.00 0.00 0.00 0.00 0.00 0.00 0.00 0.00 0.00 0.00 0.00 0.00 0.00 0.00 0.00 0.00 0.00 0.00 0.00 0.00 0.00 0.00 0.00 0.01 0.02 0.03 0.03 0.02 0.02
0.04 0.16 0.23 0.21 0.16 0.01 0.00 0.00 0.00 0.00 0.00 0.00 0.00 0.00 0.00 0.00 0.00 0.01 0.01 0.00 0.01 0.02 0.00 0.00 0.00 0.00 0.00 0.00 0.00 0.00 0.00 0.00 0.00 0.00 0.00 0.00 0.00 0.00 0.00 0.00 0.00 0.00 0.00 0.00 0.00 0.00 0.02 0.03 0.03 0.04 0.05 0.01 0.01 0.01
0.07 0.21 0.25 0.27 0.30 0.13 0.02 0.00 0.00 0.00 0.00 0.00 0.00 0.01 0.00 0.00 0.01 0.01 0.00 0.00 0.00 0.00 0.00 0.00 0.00 0.00 0.00 0.00 0.00 0.00 0.00 0.00 0.00 0.00 0.00 0.00 0.00 0.00 0.00 0.00 0.00 0.01 0.01 0.01 0.02 0.02 0.01 0.02 0.04 0.04 0.02 0.01 0.01 0.02
0.18 0.32 0.33 0.29 0.28 0.14 0.09 0.02 0.03 0.00 0.00 0.00 0.02 0.01 0.00 0.00 0.00 0.00 0.00 0.00 0.00 0.00 0.00 0.00 0.00 0.00 0.00 0.01 0.00 0.00 0.00 0.00 0.00 0.00 0.00 0.00 0.00 0.00 0.01 0.01 0.02 0.03 0.02 0.02 0.04 0.03 0.04 0.03 0.02 0.01 0.01 0.03 0.04 0.03
0.24 0.43 0.44 0.33 0.16 0.14 0.08 0.07 0.04 0.03 0.01 0.01 0.01 0.01 0.00 0.00 0.00 0.01 0.01 0.00 0.01 0.00 0.00 0.01 0.00 0.00 0.00 0.00 0.00 0.00 0.00 0.00 0.00 0.00 0.00 0.00 0.00 0.01 0.01 0.01 0.03 0.03 0.03 0.04 0.03 0.02 0.02 0.01 0.02 0.04 0.04 0.04 0.02 0.04
0.41 0.36 0.32 0.26 0.14 0.07 0.03 0.03 0.05 0.03 0.02 0.01 0.01 0.01 0.01 0.00 0.01 0.01 0.01 0.04 0.04 0.03 0.02 0.01 0.01 0.01 0.01 0.01 0.02 0.01 0.00 0.00 0.00 0.00 0.01 0.01 0.01 0.01 0.01 0.02 0.02 0.03 0.04 0.04 0.03 0.03 0.03 0.03 0.03 0.03 0.03 0.04 0.06 0.07
0.35 0.20 0.13 0.09 0.06 0.07 0.04 0.02 0.01 0.02 0.02 0.06 0.06 0.03 0.01 0.03 0.03 0.03 0.05 0.08 0.07 0.06 0.05 0.03 0.02 0.02 0.02 0.02 0.02 0.01 0.00 0.00 0.00 0.00 0.01 0.01 0.02 0.03 0.03 0.02 0.02 0.02 0.04 0.04 0.06 0.06 0.03 0.02 0.03 0.04 0.05 0.05 0.07 0.10
0.15 0.09 0.04 0.03 0.06 0.13 0.17 0.14 0.13 0.14 0.11 0.09 0.06 0.05 0.07 0.09 0.07 0.07 0.07 0.09 0.08 0.08 0.05 0.02 0.01 0.01 0.02 0.02 0.01 0.00 0.00 0.00 0.00 0.00 0.01 0.02 0.03 0.04 0.06 0.09 0.11 0.09 0.03 0.04 0.06 0.08 0.10 0.08 0.07 0.05 0.07 0.07 0.08 0.12
0.05 0.07 0.08 0.10 0.17 0.19 0.17 0.14 0.16 0.16 0.16 0.15 0.10 0.10 0.11 0.07 0.06 0.07 0.08 0.09 0.07 0.05 0.03 0.01 0.00 0.00 0.00 0.01 0.01 0.01 0.00 0.00 0.00 0.00 0.02 0.05 0.07 0.05 0.03 0.04 0.05 0.03 0.04 0.06 0.07 0.07 0.09 0.10 0.10 0.09 0.10 0.12 0.15 0.17
0.08 0.10 0.09 0.09 0.06 0.03 0.04 0.06 0.07 0.07 0.08 0.07 0.04 0.03 0.04 0.04 0.06 0.06 0.05 0.04 0.03 0.01 0.01 0.01 0.02 0.01 0.01 0.01 0.02 0.02 0.01 0.00 0.00 0.00 0.00 0.01 0.03 0.03 0.02 0.03 0.03 0.03 0.03 0.03 0.04 0.05 0.07 0.10 0.09 0.14 0.18 0.20 0.17 0.13
0.01 0.01 0.01 0.00 0.00 0.01 0.01 0.02 0.02 0.03 0.02 0.02 0.01 0.01 0.02 0.03 0.06 0.05 0.02 0.02 0.02 0.04 0.04 0.04 0.02 0.01 0.01 0.01 0.01 0.03 0.05 0.02 0.01 0.02 0.03 0.03 0.03 0.03 0.02 0.02 0.02 0.03 0.03 0.04 0.03 0.03 0.04 0.04 0.06 0.14 0.08 0.08 0.10 0.10
0.01 0.01 0.01 0.00 0.01 0.02 0.01 0.00 0.00 0.01 0.03 0.02 0.01 0.03 0.08 0.06 0.06 0.04 0.03 0.05 0.03 0.01 0.01 0.01 0.01 0.01 0.01 0.01 0.02 0.02 0.02 0.02 0.02 0.02 0.02 0.03 0.02 0.02 0.02 0.02 0.02 0.03 0.03 0.04 0.04 0.05 0.05 0.06 0.08 0.10 0.05 0.06 0.07 0.07
0.01 0.01 0.02 0.03 0.04 0.01 0.00 0.00 0.00 0.00 0.01 0.01 0.04 0.03 0.04 0.04 0.03 0.03 0.02 0.02 0.01 0.01 0.01 0.01 0.01 0.02 0.02 0.02 0.03 0.03 0.03 0.02 0.01 0.01 0.02 0.02 0.02 0.01 0.01 0.01 0.02 0.03 0.04 0.04 0.05 0.07 0.07 0.07 0.07 0.07 0.07 0.06 0.06 0.06
0.01 0.01 0.01 0.01 0.00 0.00 0.00 0.00 0.00 0.00 0.01 0.03 0.05 0.04 0.04 0.04 0.03 0.03 0.03 0.01 0.01 0.01 0.01 0.01 0.01 0.01 0.03 0.02 0.01 0.02 0.01 0.01 0.01 0.01 0.01 0.02 0.01 0.01 0.01 0.02 0.03 0.04 0.04 0.05 0.07 0.07 0.06 0.06 0.06 0.06 0.05 0.05 0.04 0.04

GFSWCAN_prec_precacc_021.txt.gz
Total_Precipitation_Accumulation
0.31 0.10 0.06 0.01 0.00 0.00 0.00 0.00 0.00 0.00 0.00 0.00 0.00 0.00 0.00 0.00 0.00 0.00 0.00 0.00 0.00 0.00 0.00 0.00 0.00 0.00 0.00 0.00 0.00 0.00 0.00 0.00 0.00 0.00 0.00 0.00 0.00 0.00 0.00 0.00 0.00 0.00 0.00 0.00 0.00 0.00 0.01 0.00 0.00 0.01 0.02 0.02 0.00 0.00
0.48 0.16 0.04 0.00 0.00 0.00 0.00 0.00 0.00 0.01 0.00 0.01 0.00 0.00 0.00 0.00 0.00 0.00 0.00 0.01 0.00 0.00 0.00 0.00 0.00 0.00 0.00 0.00 0.00 0.00 0.00 0.00 0.00 0.00 0.00 0.00 0.00 0.00 0.00 0.00 0.00 0.00 0.00 0.00 0.01 0.00 0.00 0.00 0.02 0.02 0.01 0.01 0.00 0.00
0.58 0.25 0.07 0.01 0.00 0.00 0.00 0.00 0.00 0.02 0.01 0.01 0.01 0.01 0.00 0.00 0.00 0.00 0.00 0.01 0.00 0.00 0.00 0.00 0.00 0.00 0.00 0.00 0.00 0.00 0.00 0.00 0.00 0.00 0.00 0.00 0.01 0.00 0.00 0.00 0.00 0.00 0.00 0.00 0.01 0.00 0.00 0.01 0.01 0.01 0.00 0.00 0.00 0.00
0.45 0.32 0.11 0.01 0.00 0.00 0.00 0.00 0.01 0.01 0.01 0.01 0.01 0.01 0.00 0.00 0.00 0.00 0.00 0.01 0.00 0.00 0.03 0.01 0.00 0.00 0.00 0.00 0.00 0.00 0.00 0.00 0.00 0.00 0.00 0.01 0.01 0.00 0.00 0.00 0.00 0.00 0.00 0.01 0.01 0.00 0.00 0.01 0.01 0.00 0.00 0.01 0.01 0.01
0.35 0.25 0.14 0.03 0.00 0.00 0.00 0.00 0.00 0.01 0.01 0.02 0.02 0.02 0.01 0.00 0.00 0.00 0.00 0.00 0.00 0.04 0.03 0.00 0.00 0.00 0.00 0.00 0.00 0.00 0.00 0.00 0.00 0.00 0.01 0.00 0.00 0.00 0.01 0.00 0.00 0.00 0.00 0.01 0.01 0.01 0.01 0.03 0.02 0.01 0.02 0.02 0.02 0.00
0.31 0.21 0.13 0.03 0.01 0.01 0.01 0.01 0.01 0.01 0.01 0.01 0.02 0.02 0.00 0.00 0.00 0.01 0.01 0.00 0.00 0.00 0.01 0.02 0.00 0.00 0.00 0.00 0.00 0.00 0.00 0.00 0.00 0.01 0.00 0.00 0.00 0.01 0.00 0.00 0.00 0.00 0.00 0.00 0.01 0.01 0.03 0.02 0.01 0.00 0.00 0.00 0.00 0.00
0.20 0.16 0.11 0.05 0.01 0.00 0.00 0.00 0.01 0.00 0.01 0.01 0.01 0.01 0.01 0.00 0.01 0.02 0.02 0.02 0.00 0.01 0.03 0.02 0.01 0.00 0.00 0.00 0.00 0.01 0.01 0.01 0.02 0.04 0.01 0.00 0.00 0.04 0.01 0.00 0.00 0.00 0.00 0.00 0.00 0.02 0.03 0.01 0.01 0.00 0.00 0.00 0.00 0.00
0.12 0.06 0.04 0.03 0.02 0.01 0.00 0.00 0.00 0.01 0.01 0.01 0.01 0.00 0.00 0.00 0.00 0.03 0.01 0.00 0.00 0.03 0.04 0.02 0.00 0.00 0.00 0.00 0.01 0.02 0.07 0.11 0.07 0.04 0.02 0.00 0.01 0.04 0.01 0.00 0.00 0.00 0.00 0.00 0.01 0.02 0.01 0.01 0.00 0.00 0.00 0.00 0.00 0.01
0.05 0.02 0.01 0.01 0.01 0.02 0.00 0.00 0.01 0.02 0.01 0.01 0.02 0.01 0.01 0.01 0.02 0.01 0.00 0.00 0.00 0.08 0.05 0.01 0.00 0.00 0.00 0.00 0.01 0.00 0.03 0.03 0.01 0.01 0.01 0.01 0.00 0.00 0.00 0.00 0.00 0.00 0.00 0.01 0.00 0.00 0.00 0.00 0.00 0.00 0.00 0.02 0.05 0.16
0.03 0.01 0.00 0.00 0.00 0.04 0.02 0.01 0.01 0.04 0.12 0.19 0.20 0.15 0.03 0.04 0.04 0.01 0.02 0.03 0.02 0.01 0.00 0.00 0.00 0.00 0.00 0.00 0.00 0.00 0.00 0.01 0.00 0.00 0.00 0.00 0.00 0.00 0.00 0.00 0.00 0.00 0.00 0.00 0.00 0.00 0.01 0.01 0.01 0.02 0.05 0.12 0.19 0.15
0.06 0.02 0.01 0.00 0.00 0.02 0.04 0.02 0.02 0.12 0.55 0.67 0.58 0.30 0.15 0.16 0.05 0.08 0.06 0.07 0.02 0.00 0.00 0.00 0.00 0.00 0.00 0.01 0.01 0.03 0.04 0.02 0.01 0.00 0.00 0.01 0.00 0.00 0.00 0.00 0.00 0.00 0.00 0.00 0.00 0.00 0.02 0.05 0.14 0.26 0.25 0.15 0.05 0.02
0.05 0.03 0.01 0.01 0.00 0.01 0.02 0.06 0.08 0.13 0.39 0.68 0.54 0.29 0.28 0.56 0.39 0.44 0.47 0.17 0.03 0.00 0.01 0.01 0.00 0.01 0.03 0.03 0.06 0.10 0.12 0.10 0.07 0.01 0.03 0.02 0.00 0.00 0.00 0.00 0.00 0.00 0.00 0.00 0.03 0.10 0.18 0.23 0.23 0.11 0.03 0.02 0.02 0.02
0.05 0.06 0.04 0.03 0.01 0.02 0.01 0.03 0.04 0.10 0.26 0.59 0.73 0.76 0.79 1.08 1.10 0.81 0.44 0.16 0.04 0.01 0.01 0.01 0.02 0.03 0.06 0.06 0.15 0.26 0.36 0.27 0.10 0.08 0.05 0.05 0.03 0.05 0.06 0.06 0.07 0.07 0.09 0.15 0.21 0.18 0.11 0.05 0.03 0.03 0.03 0.02 0.01 0.01
0.01 0.02 0.03 0.04 0.03 0.04 0.04 0.02 0.06 0.07 0.16 0.49 0.78 1.09 0.96 0.95 0.68 0.49 0.21 0.08 0.06 0.04 0.02 0.02 0.05 0.07 0.09 0.11 0.35 0.57 0.59 0.32 0.31 0.17 0.11 0.14 0.22 0.32 0.20 0.13 0.10 0.07 0.05 0.03 0.01 0.01 0.01 0.01 0.01 0.00 0.00 0.00 0.00 0.00
0.00 0.00 0.00 0.00 0.01 0.05 0.06 0.06 0.09 0.04 0.07 0.20 0.26 0.44 0.49 0.40 0.30 0.21 0.18 0.17 0.17 0.17 0.24 0.29 0.35 0.32 0.30 0.46 0.51 0.40 0.35 0.32 0.26 0.27 0.35 0.35 0.32 0.28 0.09 0.01 0.01 0.00 0.00 0.00 0.00 0.00 0.00 0.00 0.00 0.00 0.00 0.00 0.00 0.00
0.00 0.00 0.00 0.00 0.00 0.01 0.01 0.09 0.05 0.05 0.04 0.05 0.10 0.20 0.23 0.19 0.21 0.25 0.25 0.26 0.28 0.34 0.36 0.39 0.39 0.42 0.47 0.45 0.34 0.32 0.30 0.31 0.34 0.19 0.12 0.10 0.09 0.10 0.11 0.06 0.00 0.00 0.00 0.00 0.00 0.00 0.00 0.00 0.00 0.00 0.00 0.00 0.00 0.00
0.00 0.01 0.00 0.00 0.00 0.02 0.03 0.03 0.03 0.01 0.08 0.00 0.01 0.03 0.05 0.07 0.09 0.12 0.13 0.13 0.12 0.16 0.21 0.18 0.19 0.21 0.22 0.24 0.26 0.22 0.25 0.18 0.13 0.11 0.05 0.07 0.08 0.04 0.01 0.00 0.00 0.00 0.00 0.00 0.00 0.00 0.00 0.00 0.00 0.00 0.00 0.00 0.00 0.00
0.02 0.02 0.00 0.00 0.01 0.01 0.05 0.03 0.04 0.01 0.00 0.00 0.01 0.01 0.01 0.01 0.01 0.01 0.01 0.00 0.00 0.01 0.01 0.02 0.02 0.04 0.09 0.11 0.12 0.07 0.03 0.02 0.02 0.01 0.01 0.04 0.02 0.00 0.00 0.00 0.00 0.00 0.00 0.00 0.00 0.00 0.00 0.00 0.00 0.00 0.00 0.00 0.00 0.01
0.02 0.04 0.01 0.02 0.01 0.01 0.05 0.07 0.02 0.01 0.00 0.00 0.01 0.01 0.02 0.02 0.01 0.00 0.01 0.00 0.00 0.00 0.00 0.00 0.01 0.00 0.01 0.00 0.00 0.00 0.00 0.00 0.00 0.00 0.00 0.00 0.00 0.00 0.00 0.00 0.00 0.00 0.00 0.00 0.00 0.00 0.00 0.00 0.00 0.00 0.00 0.01 0.01 0.02
0.01 0.04 0.07 0.11 0.01 0.00 0.01 0.01 0.01 0.01 0.01 0.00 0.00 0.00 0.00 0.01 0.01 0.02 0.02 0.00 0.00 0.00 0.00 0.00 0.00 0.00 0.00 0.00 0.00 0.00 0.00 0.00 0.00 0.00 0.00 0.00 0.00 0.00 0.00 0.00 0.00 0.00 0.00 0.00 0.00 0.00 0.00 0.00 0.01 0.02 0.03 0.03 0.02 0.02
0.04 0.16 0.23 0.21 0.16 0.01 0.00 0.00 0.00 0.00 0.00 0.00 0.00 0.00 0.00 0.00 0.00 0.01 0.01 0.00 0.01 0.02 0.00 0.00 0.00 0.00 0.00 0.00 0.00 0.00 0.00 0.00 0.00 0.00 0.00 0.00 0.00 0.00 0.00 0.00 0.00 0.00 0.00 0.00 0.00 0.00 0.02 0.03 0.03 0.04 0.05 0.01 0.01 0.01
0.07 0.21 0.25 0.27 0.30 0.13 0.02 0.00 0.00 0.00 0.00 0.00 0.00 0.01 0.00 0.00 0.01 0.01 0.00 0.00 0.00 0.00 0.00 0.00 0.00 0.00 0.00 0.00 0.00 0.00 0.00 0.00 0.00 0.00 0.00 0.00 0.00 0.00 0.00 0.00 0.00 0.01 0.01 0.01 0.02 0.02 0.01 0.02 0.04 0.04 0.02 0.01 0.01 0.02
0.18 0.32 0.33 0.29 0.28 0.14 0.09 0.02 0.03 0.00 0.00 0.00 0.02 0.01 0.00 0.00 0.00 0.00 0.01 0.01 0.00 0.00 0.00 0.00 0.02 0.03 0.03 0.05 0.02 0.01 0.00 0.00 0.00 0.00 0.00 0.00 0.00 0.00 0.01 0.01 0.02 0.03 0.02 0.02 0.04 0.03 0.04 0.03 0.02 0.01 0.01 0.03 0.04 0.03
0.24 0.43 0.44 0.33 0.16 0.14 0.08 0.07 0.04 0.03 0.01 0.01 0.01 0.01 0.00 0.00 0.00 0.01 0.01 0.01 0.02 0.01 0.01 0.03 0.03 0.05 0.06 0.04 0.02 0.01 0.00 0.00 0.00 0.00 0.00 0.00 0.00 0.01 0.01 0.01 0.03 0.03 0.03 0.04 0.03 0.02 0.02 0.01 0.02 0.04 0.04 0.04 0.02 0.04
0.41 0.36 0.32 0.26 0.14 0.07 0.03 0.03 0.05 0.03 0.02 0.01 0.01 0.01 0.01 0.01 0.01 0.01 0.01 0.05 0.06 0.06 0.06 0.07 0.07 0.06 0.05 0.04 0.03 0.02 0.01 0.00 0.00 0.00 0.01 0.01 0.01 0.01 0.01 0.02 0.02 0.03 0.04 0.04 0.03 0.03 0.03 0.03 0.03 0.03 0.03 0.04 0.06 0.08
0.35 0.20 0.13 0.09 0.06 0.07 0.04 0.02 0.01 0.02 0.02 0.06 0.07 0.04 0.03 0.04 0.05 0.05 0.07 0.10 0.10 0.11 0.11 0.10 0.08 0.07 0.06 0.05 0.05 0.03 0.01 0.00 0.00 0.00 0.01 0.01 0.02 0.03 0.03 0.02 0.02 0.02 0.04 0.04 0.07 0.06 0.03 0.02 0.03 0.04 0.05 0.05 0.07 0.10
0.15 0.09 0.04 0.03 0.07 0.13 0.17 0.14 0.13 0.15 0.12 0.12 0.08 0.06 0.09 0.12 0.09 0.08 0.09 0.13 0.14 0.15 0.12 0.10 0.07 0.05 0.05 0.03 0.01 0.01 0.00 0.00 0.00 0.00 0.01 0.02 0.03 0.04 0.06 0.09 0.11 0.09 0.03 0.04 0.06 0.08 0.10 0.09 0.07 0.05 0.07 0.07 0.08 0.13
0.05 0.07 0.08 0.10 0.17 0.19 0.17 0.15 0.17 0.18 0.18 0.17 0.12 0.12 0.13 0.10 0.09 0.10 0.10 0.12 0.11 0.08 0.06 0.04 0.02 0.01 0.01 0.01 0.01 0.01 0.00 0.00 0.00 0.00 0.02 0.05 0.07 0.05 0.03 0.04 0.05 0.03 0.04 0.06 0.07 0.07 0.09 0.10 0.10 0.09 0.10 0.12 0.16 0.17
0.09 0.10 0.09 0.09 0.06 0.04 0.05 0.07 0.08 0.08 0.09 0.08 0.05 0.04 0.04 0.04 0.06 0.07 0.06 0.05 0.04 0.02 0.02 0.02 0.03 0.02 0.02 0.01 0.02 0.02 0.01 0.00 0.00 0.00 0.00 0.01 0.03 0.03 0.02 0.03 0.03 0.03 0.03 0.03 0.04 0.05 0.07 0.10 0.09 0.14 0.18 0.20 0.17 0.13
0.01 0.01 0.01 0.00 0.00 0.01 0.02 0.02 0.03 0.04 0.03 0.02 0.02 0.02 0.02 0.04 0.07 0.06 0.03 0.03 0.03 0.04 0.05 0.04 0.03 0.01 0.01 0.01 0.01 0.03 0.05 0.02 0.01 0.02 0.03 0.03 0.03 0.03 0.02 0.02 0.02 0.03 0.03 0.04 0.03 0.03 0.04 0.04 0.06 0.14 0.08 0.08 0.10 0.10
0.01 0.01 0.01 0.00 0.01 0.02 0.01 0.00 0.01 0.04 0.05 0.02 0.02 0.03 0.09 0.06 0.07 0.05 0.04 0.06 0.03 0.02 0.01 0.01 0.01 0.01 0.01 0.01 0.02 0.02 0.02 0.02 0.02 0.02 0.02 0.03 0.03 0.02 0.02 0.02 0.02 0.03 0.03 0.04 0.04 0.05 0.05 0.06 0.08 0.10 0.05 0.06 0.07 0.07
0.01 0.01 0.02 0.03 0.04 0.01 0.00 0.00 0.00 0.01 0.02 0.02 0.04 0.03 0.05 0.04 0.03 0.04 0.03 0.02 0.01 0.01 0.01 0.01 0.01 0.02 0.02 0.02 0.03 0.03 0.03 0.02 0.01 0.01 0.02 0.02 0.02 0.01 0.01 0.01 0.02 0.03 0.04 0.04 0.05 0.07 0.07 0.07 0.07 0.07 0.07 0.06 0.06 0.06
0.01 0.01 0.01 0.01 0.00 0.01 0.01 0.00 0.00 0.00 0.02 0.03 0.06 0.05 0.05 0.04 0.03 0.04 0.03 0.01 0.01 0.01 0.01 0.01 0.01 0.01 0.03 0.02 0.01 0.02 0.01 0.01 0.01 0.01 0.02 0.02 0.01 0.01 0.01 0.02 0.03 0.04 0.04 0.05 0.07 0.07 0.06 0.06 0.06 0.06 0.05 0.05 0.04 0.04

GFSWCAN_prec_precacc_024.txt.gz
Total_Precipitation_Accumulation
0.41 0.27 0.31 0.25 0.13 0.06 0.01 0.00 0.00 0.00 0.00 0.00 0.00 0.00 0.00 0.00 0.00 0.01 0.00 0.00 0.00 0.00 0.00 0.00 0.00 0.00 0.00 0.00 0.00 0.00 0.00 0.00 0.00 0.00 0.00 0.00 0.00 0.00 0.00 0.00 0.00 0.00 0.00 0.00 0.00 0.00 0.01 0.00 0.00 0.01 0.02 0.02 0.00 0.00
0.67 0.43 0.25 0.10 0.06 0.02 0.00 0.00 0.00 0.01 0.01 0.01 0.00 0.00 0.00 0.00 0.00 0.01 0.00 0.01 0.02 0.00 0.00 0.00 0.00 0.00 0.00 0.00 0.00 0.00 0.00 0.00 0.00 0.00 0.00 0.00 0.00 0.00 0.00 0.00 0.00 0.00 0.00 0.00 0.01 0.00 0.00 0.00 0.02 0.02 0.01 0.01 0.00 0.00
0.73 0.34 0.11 0.03 0.00 0.00 0.00 0.00 0.01 0.02 0.01 0.01 0.01 0.01 0.00 0.00 0.00 0.00 0.01 0.02 0.02 0.01 0.00 0.00 0.00 0.00 0.00 0.00 0.00 0.00 0.00 0.00 0.00 0.00 0.00 0.00 0.01 0.00 0.00 0.00 0.00 0.00 0.00 0.00 0.01 0.00 0.00 0.01 0.01 0.01 0.00 0.00 0.00 0.00
0.46 0.32 0.11 0.01 0.00 0.00 0.00 0.00 0.01 0.02 0.02 0.01 0.01 0.01 0.00 0.00 0.00 0.00 0.00 0.02 0.02 0.02 0.04 0.01 0.00 0.00 0.00 0.00 0.00 0.00 0.00 0.00 0.00 0.00 0.00 0.01 0.01 0.00 0.00 0.00 0.00 0.00 0.00 0.01 0.01 0.00 0.00 0.01 0.01 0.00 0.00 0.01 0.01 0.01
0.35 0.25 0.14 0.03 0.01 0.01 0.01 0.01 0.02 0.06 0.06 0.03 0.02 0.02 0.01 0.00 0.00 0.00 0.01 0.02 0.01 0.05 0.04 0.01 0.00 0.00 0.00 0.00 0.00 0.00 0.00 0.00 0.00 0.00 0.01 0.01 0.00 0.00 0.01 0.00 0.00 0.00 0.00 0.01 0.01 0.01 0.01 0.03 0.02 0.01 0.02 0.02 0.02 0.00
0.31 0.21 0.13 0.03 0.01 0.01 0.01 0.01 0.03 0.07 0.05 0.03 0.03 0.02 0.00 0.00 0.01 0.03 0.01 0.01 0.00 0.00 0.01 0.03 0.00 0.00 0.00 0.00 0.00 0.00 0.00 0.00 0.00 0.01 0.00 0.00 0.00 0.01 0.00 0.00 0.00 0.00 0.00 0.00 0.01 0.01 0.03 0.02 0.01 0.00 0.00 0.00 0.00 0.00
0.20 0.16 0.11 0.05 0.01 0.01 0.01 0.01 0.02 0.05 0.04 0.04 0.05 0.03 0.04 0.04 0.04 0.03 0.03 0.02 0.01 0.01 0.03 0.02 0.01 0.00 0.00 0.00 0.00 0.01 0.01 0.01 0.02 0.04 0.01 0.00 0.00 0.04 0.01 0.00 0.00 0.00 0.00 0.00 0.00 0.02 0.03 0.01 0.01 0.00 0.00 0.00 0.00 0.00
0.12 0.06 0.05 0.04 0.02 0.01 0.00 0.01 0.01 0.03 0.05 0.05 0.06 0.07 0.07 0.06 0.03 0.03 0.01 0.00 0.00 0.03 0.04 0.02 0.00 0.00 0.00 0.00 0.01 0.02 0.07 0.11 0.07 0.04 0.02 0.00 0.01 0.04 0.01 0.00 0.00 0.00 0.00 0.00 0.01 0.02 0.01 0.01 0.00 0.00 0.00 0.00 0.00 0.01
0.05 0.02 0.01 0.01 0.02 0.02 0.01 0.00 0.01 0.02 0.01 0.01 0.03 0.03 0.02 0.03 0.02 0.01 0.00 0.00 0.00 0.08 0.05 0.01 0.00 0.00 0.00 0.00 0.01 0.00 0.03 0.03 0.01 0.01 0.01 0.01 0.00 0.00 0.00 0.00 0.00 0.00 0.00 0.01 0.00 0.00 0.00 0.00 0.00 0.00 0.00 0.02 0.06 0.17
0.03 0.01 0.00 0.01 0.03 0.05 0.02 0.01 0.01 0.04 0.12 0.19 0.20 0.15 0.03 0.04 0.04 0.01 0.02 0.03 0.02 0.01 0.00 0.00 0.00 0.00 0.00 0.00 0.00 0.00 0.00 0.01 0.00 0.00 0.00 0.00 0.00 0.00 0.00 0.00 0.00 0.00 0.00 0.00 0.00 0.00 0.01 0.01 0.01 0.02 0.05 0.12 0.20 0.16
0.06 0.02 0.01 0.02 0.04 0.04 0.05 0.02 0.02 0.12 0.55 0.67 0.58 0.30 0.15 0.16 0.05 0.08 0.06 0.07 0.02 0.00 0.00 0.01 0.00 0.00 0.00 0.01 0.01 0.03 0.04 0.02 0.01 0.00 0.00 0.01 0.00 0.00 0.00 0.00 0.00 0.00 0.00 0.00 0.00 0.00 0.02 0.05 0.14 0.26 0.26 0.15 0.05 0.02
0.08 0.05 0.02 0.02 0.01 0.01 0.06 0.08 0.08 0.13 0.39 0.68 0.54 0.29 0.28 0.56 0.39 0.44 0.47 0.17 0.03 0.00 0.01 0.01 0.00 0.01 0.03 0.03 0.06 0.10 0.12 0.10 0.07 0.01 0.04 0.02 0.01 0.01 0.00 0.00 0.00 0.00 0.00 0.00 0.03 0.10 0.18 0.23 0.23 0.11 0.03 0.02 0.02 0.02
0.08 0.07 0.04 0.03 0.01 0.02 0.02 0.05 0.05 0.11 0.26 0.59 0.73 0.76 0.79 1.08 1.10 0.81 0.44 0.16 0.04 0.01 0.01 0.01 0.02 0.03 0.06 0.06 0.15 0.26 0.36 0.27 0.10 0.08 0.05 0.06 0.04 0.06 0.07 0.07 0.07 0.07 0.09 0.15 0.21 0.18 0.11 0.05 0.03 0.03 0.03 0.02 0.01 0.01
0.01 0.04 0.07 0.08 0.06 0.05 0.04 0.03 0.07 0.08 0.17 0.50 0.78 1.09 0.96 0.95 0.68 0.49 0.21 0.08 0.06 0.04 0.02 0.02 0.05 0.07 0.09 0.11 0.35 0.58 0.61 0.34 0.33 0.18 0.12 0.15 0.24 0.32 0.21 0.13 0.10 0.07 0.05 0.03 0.01 0.01 0.01 0.01 0.01 0.00 0.00 0.00 0.00 0.00
0.00 0.00 0.01 0.05 0.06 0.09 0.08 0.07 0.09 0.04 0.07 0.20 0.26 0.44 0.50 0.40 0.30 0.22 0.18 0.17 0.17 0.17 0.24 0.29 0.35 0.32 0.30 0.46 0.51 0.41 0.37 0.33 0.27 0.28 0.35 0.36 0.34 0.29 0.10 0.02 0.01 0.00 0.00 0.00 0.00 0.00 0.00 0.00 0.00 0.00 0.00 0.00 0.00 0.00
0.00 0.00 0.00 0.00 0.01 0.02 0.02 0.09 0.06 0.07 0.10 0.11 0.15 0.24 0.25 0.20 0.23 0.26 0.26 0.27 0.29 0.35 0.37 0.41 0.40 0.42 0.49 0.46 0.35 0.32 0.30 0.31 0.34 0.19 0.12 0.11 0.12 0.12 0.12 0.06 0.00 0.00 0.00 0.00 0.00 0.00 0.00 0.00 0.00 0.00 0.00 0.00 0.00 0.00
0.00 0.01 0.00 0.00 0.00 0.02 0.03 0.03 0.03 0.01 0.09 0.02 0.05 0.07 0.09 0.10 0.14 0.17 0.16 0.16 0.14 0.17 0.23 0.19 0.20 0.22 0.23 0.25 0.26 0.23 0.25 0.18 0.14 0.12 0.07 0.08 0.09 0.04 0.01 0.00 0.00 0.00 0.00 0.00 0.00 0.00 0.00 0.00 0.00 0.00 0.00 0.00 0.00 0.00
0.02 0.02 0.00 0.00 0.01 0.01 0.05 0.03 0.04 0.01 0.00 0.01 0.01 0.02 0.02 0.02 0.02 0.02 0.01 0.00 0.00 0.01 0.02 0.02 0.02 0.04 0.10 0.11 0.12 0.07 0.03 0.02 0.02 0.02 0.03 0.07 0.05 0.01 0.00 0.00 0.00 0.00 0.00 0.00 0.00 0.00 0.00 0.00 0.00 0.00 0.00 0.00 0.00 0.01
0.02 0.04 0.01 0.02 0.01 0.01 0.05 0.07 0.02 0.01 0.01 0.01 0.01 0.02 0.02 0.03 0.02 0.00 0.01 0.00 0.00 0.00 0.00 0.00 0.01 0.00 0.01 0.00 0.00 0.00 0.00 0.00 0.00 0.01 0.01 0.01 0.01 0.00 0.00 0.00 0.00 0.00 0.00 0.00 0.00 0.00 0.00 0.00 0.00 0.00 0.00 0.01 0.01 0.02
0.01 0.04 0.07 0.11 0.01 0.00 0.01 0.01 0.01 0.01 0.01 0.00 0.01 0.01 0.01 0.01 0.01 0.02 0.02 0.00 0.00 0.00 0.00 0.00 0.00 0.00 0.00 0.00 0.00 0.00 0.00 0.00 0.00 0.00 0.00 0.00 0.00 0.00 0.00 0.00 0.00 0.00 0.00 0.00 0.00 0.00 0.00 0.00 0.01 0.02 0.03 0.03 0.02 0.02
0.04 0.16 0.23 0.21 0.16 0.01 0.00 0.00 0.00 0.00 0.00 0.00 0.00 0.00 0.00 0.00 0.00 0.01 0.01 0.00 0.01 0.02 0.00 0.00 0.00 0.00 0.00 0.00 0.00 0.00 0.00 0.00 0.00 0.00 0.00 0.00 0.00 0.00 0.00 0.00 0.00 0.00 0.00 0.00 0.00 0.00 0.02 0.03 0.03 0.04 0.05 0.01 0.01 0.01
0.07 0.21 0.25 0.27 0.30 0.13 0.02 0.00 0.00 0.00 0.00 0.00 0.00 0.01 0.00 0.01 0.01 0.01 0.00 0.01 0.01 0.01 0.01 0.01 0.02 0.01 0.00 0.00 0.00 0.00 0.00 0.00 0.00 0.00 0.00 0.00 0.01 0.00 0.00 0.00 0.00 0.01 0.01 0.01 0.02 0.02 0.01 0.02 0.04 0.04 0.02 0.01 0.01 0.02
0.18 0.32 0.33 0.29 0.28 0.14 0.09 0.02 0.03 0.00 0.00 0.00 0.02 0.01 0.00 0.00 0.00 0.00 0.01 0.02 0.02 0.02 0.02 0.01 0.04 0.07 0.06 0.08 0.04 0.02 0.01 0.00 0.00 0.00 0.00 0.00 0.00 0.00 0.01 0.01 0.02 0.03 0.02 0.02 0.04 0.03 0.04 0.03 0.02 0.01 0.01 0.03 0.04 0.03
0.24 0.43 0.44 0.33 0.16 0.14 0.08 0.07 0.04 0.03 0.01 0.01 0.02 0.01 0.01 0.00 0.01 0.01 0.01 0.02 0.04 0.02 0.02 0.05 0.06 0.09 0.10 0.10 0.10 0.09 0.07 0.03 0.02 0.01 0.01 0.01 0.01 0.01 0.01 0.01 0.03 0.03 0.03 0.04 0.03 0.02 0.02 0.01 0.02 0.04 0.04 0.04 0.02 0.04
0.41 0.36 0.32 0.26 0.14 0.07 0.04 0.04 0.05 0.03 0.02 0.01 0.01 0.01 0.01 0.01 0.02 0.02 0.02 0.06 0.06 0.07 0.09 0.11 0.12 0.13 0.12 0.13 0.11 0.08 0.05 0.04 0.03 0.02 0.02 0.02 0.02 0.01 0.01 0.02 0.02 0.03 0.04 0.04 0.03 0.03 0.03 0.03 0.03 0.03 0.03 0.04 0.06 0.08
0.35 0.21 0.13 0.09 0.06 0.07 0.04 0.02 0.02 0.02 0.02 0.06 0.07 0.04 0.03 0.06 0.05 0.06 0.07 0.11 0.12 0.13 0.14 0.14 0.13 0.12 0.11 0.10 0.09 0.07 0.05 0.04 0.02 0.01 0.01 0.01 0.02 0.03 0.03 0.02 0.02 0.02 0.04 0.05 0.07 0.06 0.03 0.02 0.03 0.04 0.05 0.05 0.07 0.10
0.16 0.09 0.04 0.03 0.07 0.13 0.17 0.15 0.14 0.16 0.13 0.12 0.09 0.07 0.10 0.12 0.09 0.09 0.10 0.14 0.15 0.17 0.16 0.14 0.11 0.09 0.09 0.07 0.04 0.03 0.01 0.01 0.01 0.01 0.01 0.02 0.03 0.04 0.06 0.09 0.11 0.09 0.03 0.04 0.07 0.09 0.10 0.09 0.07 0.06 0.07 0.07 0.08 0.13
0.05 0.07 0.08 0.11 0.18 0.19 0.18 0.15 0.17 0.18 0.19 0.17 0.13 0.12 0.13 0.10 0.09 0.10 0.11 0.13 0.12 0.09 0.06 0.05 0.03 0.02 0.02 0.03 0.03 0.02 0.01 0.01 0.00 0.00 0.02 0.05 0.07 0.05 0.03 0.04 0.05 0.03 0.04 0.06 0.07 0.07 0.09 0.10 0.10 0.09 0.10 0.12 0.16 0.17
0.09 0.10 0.09 0.10 0.06 0.04 0.05 0.07 0.08 0.09 0.09 0.08 0.05 0.04 0.05 0.05 0.07 0.08 0.07 0.06 0.05 0.03 0.02 0.03 0.04 0.03 0.02 0.01 0.02 0.02 0.01 0.00 0.00 0.00 0.00 0.01 0.03 0.03 0.02 0.03 0.03 0.03 0.03 0.03 0.04 0.05 0.07 0.10 0.09 0.14 0.18 0.20 0.17 0.13
0.01 0.01 0.01 0.00 0.01 0.02 0.02 0.02 0.03 0.04 0.03 0.03 0.03 0.02 0.03 0.05 0.08 0.07 0.04 0.04 0.04 0.05 0.06 0.05 0.03 0.02 0.01 0.01 0.01 0.03 0.05 0.02 0.01 0.02 0.03 0.03 0.03 0.03 0.02 0.02 0.02 0.03 0.03 0.04 0.03 0.03 0.04 0.04 0.06 0.14 0.08 0.08 0.10 0.10
0.01 0.01 0.01 0.01 0.02 0.03 0.02 0.00 0.01 0.05 0.05 0.03 0.02 0.03 0.09 0.07 0.07 0.05 0.04 0.06 0.04 0.02 0.01 0.01 0.01 0.01 0.01 0.01 0.02 0.02 0.02 0.02 0.02 0.02 0.02 0.03 0.03 0.02 0.02 0.02 0.02 0.03 0.03 0.04 0.04 0.05 0.05 0.06 0.08 0.10 0.05 0.06 0.07 0.07
0.01 0.02 0.02 0.03 0.04 0.01 0.00 0.00 0.00 0.01 0.02 0.02 0.05 0.04 0.05 0.04 0.04 0.04 0.03 0.02 0.01 0.01 0.01 0.01 0.01 0.02 0.02 0.02 0.03 0.03 0.03 0.02 0.01 0.01 0.02 0.03 0.02 0.02 0.01 0.01 0.02 0.03 0.04 0.04 0.05 0.07 0.07 0.07 0.07 0.07 0.07 0.06 0.06 0.06
0.01 0.01 0.01 0.01 0.01 0.01 0.01 0.00 0.00 0.00 0.02 0.04 0.06 0.05 0.05 0.05 0.04 0.04 0.04 0.02 0.01 0.01 0.01 0.01 0.01 0.01 0.03 0.02 0.01 0.02 0.01 0.01 0.01 0.01 0.02 0.02 0.01 0.01 0.01 0.02 0.03 0.04 0.04 0.05 0.07 0.07 0.06 0.06 0.06 0.06 0.05 0.05 0.04 0.04

GFSWCAN_prec_precacc_027.txt.gz
Total_Precipitation_Accumulation
0.43 0.30 0.36 0.29 0.22 0.21 0.13 0.21 0.17 0.10 0.09 0.06 0.05 0.02 0.00 0.00 0.01 0.10 0.02 0.00 0.00 0.00 0.00 0.00 0.00 0.00 0.00 0.00 0.00 0.00 0.00 0.00 0.00 0.00 0.00 0.00 0.00 0.00 0.00 0.00 0.00 0.00 0.00 0.00 0.00 0.00 0.01 0.00 0.00 0.01 0.02 0.02 0.00 0.00
0.75 0.60 0.36 0.20 0.25 0.16 0.15 0.17 0.11 0.08 0.06 0.06 0.01 0.00 0.00 0.00 0.01 0.13 0.03 0.01 0.02 0.00 0.00 0.00 0.00 0.00 0.00 0.00 0.00 0.00 0.00 0.00 0.00 0.00 0.00 0.01 0.00 0.00 0.00 0.00 0.00 0.00 0.00 0.00 0.01 0.00 0.00 0.00 0.02 0.02 0.01 0.01 0.00 0.00
0.96 0.54 0.26 0.16 0.13 0.12 0.10 0.08 0.06 0.04 0.02 0.01 0.01 0.01 0.00 0.00 0.02 0.10 0.03 0.02 0.02 0.01 0.01 0.00 0.00 0.00 0.00 0.00 0.00 0.00 0.00 0.00 0.00 0.00 0.00 0.00 0.01 0.00 0.00 0.00 0.00 0.00 0.00 0.00 0.01 0.00 0.00 0.01 0.01 0.01 0.00 0.00 0.00 0.00
0.60 0.44 0.21 0.11 0.08 0.06 0.03 0.02 0.01 0.02 0.02 0.01 0.01 0.01 0.00 0.00 0.02 0.07 0.01 0.02 0.02 0.03 0.06 0.01 0.00 0.00 0.00 0.00 0.00 0.00 0.00 0.00 0.00 0.00 0.00 0.02 0.01 0.00 0.00 0.00 0.00 0.00 0.00 0.01 0.01 0.00 0.00 0.01 0.01 0.00 0.00 0.01 0.01 0.01
0.41 0.30 0.18 0.06 0.02 0.01 0.02 0.01 0.02 0.06 0.06 0.03 0.02 0.02 0.01 0.00 0.01 0.02 0.01 0.02 0.01 0.07 0.06 0.01 0.00 0.00 0.00 0.00 0.00 0.00 0.00 0.00 0.00 0.00 0.01 0.01 0.00 0.00 0.01 0.00 0.00 0.00 0.00 0.01 0.01 0.01 0.01 0.03 0.02 0.01 0.02 0.02 0.02 0.00
0.33 0.23 0.14 0.03 0.02 0.02 0.03 0.04 0.07 0.11 0.06 0.04 0.03 0.02 0.00 0.00 0.02 0.03 0.04 0.01 0.00 0.00 0.03 0.04 0.01 0.00 0.00 0.00 0.00 0.00 0.00 0.00 0.00 0.01 0.00 0.00 0.00 0.01 0.00 0.00 0.00 0.00 0.00 0.00 0.01 0.01 0.03 0.02 0.01 0.00 0.00 0.00 0.00 0.00
0.20 0.16 0.11 0.06 0.02 0.03 0.05 0.07 0.10 0.09 0.04 0.04 0.05 0.03 0.04 0.04 0.05 0.05 0.04 0.02 0.01 0.01 0.04 0.04 0.02 0.00 0.00 0.00 0.00 0.01 0.01 0.01 0.02 0.04 0.01 0.00 0.00 0.04 0.01 0.00 0.00 0.00 0.00 0.00 0.00 0.02 0.03 0.01 0.01 0.00 0.00 0.00 0.00 0.00
0.12 0.07 0.05 0.04 0.02 0.02 0.03 0.06 0.08 0.07 0.08 0.07 0.08 0.09 0.09 0.06 0.05 0.04 0.01 0.00 0.00 0.03 0.04 0.03 0.01 0.02 0.01 0.01 0.01 0.02 0.07 0.11 0.07 0.04 0.02 0.00 0.01 0.04 0.01 0.00 0.00 0.00 0.00 0.00 0.01 0.02 0.01 0.01 0.00 0.00 0.00 0.00 0.00 0.01
0.05 0.02 0.02 0.01 0.02 0.02 0.01 0.02 0.04 0.04 0.04 0.06 0.07 0.07 0.06 0.06 0.06 0.02 0.00 0.01 0.00 0.09 0.06 0.02 0.01 0.01 0.01 0.01 0.01 0.00 0.03 0.03 0.01 0.01 0.01 0.01 0.00 0.00 0.00 0.00 0.00 0.00 0.00 0.01 0.00 0.00 0.00 0.00 0.00 0.00 0.00 0.02 0.06 0.17
0.04 0.04 0.03 0.01 0.04 0.05 0.02 0.01 0.02 0.06 0.14 0.21 0.22 0.16 0.05 0.06 0.06 0.02 0.02 0.05 0.02 0.01 0.00 0.00 0.00 0.00 0.00 0.00 0.00 0.00 0.00 0.01 0.00 0.00 0.00 0.00 0.00 0.00 0.00 0.00 0.00 0.00 0.00 0.00 0.00 0.00 0.01 0.01 0.01 0.02 0.05 0.12 0.20 0.16
0.06 0.03 0.01 0.03 0.07 0.04 0.05 0.02 0.02 0.12 0.55 0.68 0.59 0.31 0.16 0.16 0.05 0.08 0.07 0.07 0.02 0.00 0.00 0.01 0.00 0.00 0.00 0.01 0.01 0.03 0.04 0.02 0.01 0.00 0.01 0.01 0.00 0.00 0.00 0.00 0.00 0.00 0.00 0.00 0.00 0.00 0.02 0.05 0.14 0.26 0.26 0.15 0.05 0.02
0.08 0.05 0.02 0.04 0.05 0.02 0.06 0.08 0.08 0.13 0.39 0.68 0.54 0.30 0.29 0.56 0.39 0.44 0.47 0.17 0.03 0.00 0.01 0.01 0.00 0.01 0.03 0.03 0.06 0.10 0.12 0.10 0.07 0.01 0.04 0.03 0.01 0.01 0.00 0.00 0.00 0.00 0.00 0.00 0.03 0.10 0.18 0.23 0.23 0.11 0.03 0.02 0.02 0.02
0.08 0.07 0.04 0.03 0.02 0.02 0.03 0.06 0.05 0.11 0.26 0.59 0.73 0.76 0.80 1.09 1.10 0.81 0.44 0.16 0.04 0.01 0.01 0.01 0.02 0.03 0.06 0.06 0.15 0.26 0.36 0.28 0.10 0.08 0.06 0.06 0.04 0.06 0.07 0.07 0.07 0.07 0.09 0.15 0.21 0.18 0.11 0.05 0.03 0.03 0.03 0.02 0.01 0.01
0.02 0.04 0.07 0.08 0.06 0.05 0.05 0.04 0.07 0.08 0.17 0.50 0.79 1.10 0.97 0.96 0.68 0.49 0.21 0.08 0.06 0.04 0.02 0.02 0.05 0.07 0.09 0.11 0.35 0.58 0.61 0.34 0.33 0.18 0.12 0.15 0.24 0.33 0.21 0.13 0.10 0.07 0.05 0.03 0.01 0.01 0.01 0.01 0.01 0.00 0.00 0.00 0.00 0.00
0.00 0.00 0.02 0.06 0.07 0.09 0.08 0.07 0.09 0.05 0.09 0.22 0.27 0.46 0.50 0.41 0.30 0.22 0.18 0.17 0.17 0.17 0.24 0.29 0.35 0.32 0.30 0.46 0.51 0.41 0.38 0.34 0.28 0.28 0.35 0.36 0.34 0.30 0.10 0.02 0.01 0.00 0.00 0.00 0.00 0.00 0.00 0.00 0.00 0.00 0.00 0.00 0.00 0.00
0.00 0.00 0.00 0.02 0.02 0.03 0.02 0.09 0.06 0.07 0.11 0.12 0.16 0.24 0.26 0.20 0.23 0.26 0.26 0.28 0.29 0.35 0.37 0.41 0.40 0.43 0.49 0.47 0.36 0.33 0.32 0.33 0.35 0.19 0.12 0.11 0.13 0.13 0.12 0.06 0.00 0.00 0.00 0.00 0.00 0.00 0.00 0.00 0.00 0.00 0.00 0.00 0.00 0.00
0.00 0.01 0.00 0.00 0.00 0.02 0.03 0.03 0.03 0.03 0.12 0.04 0.08 0.10 0.11 0.13 0.16 0.20 0.19 0.19 0.16 0.19 0.26 0.21 0.21 0.24 0.24 0.26 0.27 0.23 0.27 0.18 0.14 0.12 0.07 0.08 0.09 0.04 0.01 0.01 0.00 0.00 0.00 0.00 0.00 0.00 0.00 0.00 0.00 0.00 0.00 0.00 0.00 0.00
0.02 0.02 0.00 0.00 0.01 0.01 0.05 0.03 0.04 0.01 0.01 0.02 0.03 0.04 0.03 0.04 0.04 0.03 0.02 0.01 0.01 0.02 0.04 0.04 0.03 0.06 0.12 0.13 0.13 0.07 0.03 0.02 0.02 0.02 0.03 0.07 0.06 0.02 0.00 0.00 0.00 0.00 0.00 0.00 0.00 0.00 0.00 0.00 0.00 0.00 0.00 0.00 0.00 0.01
0.02 0.04 0.01 0.02 0.01 0.01 0.05 0.07 0.02 0.01 0.01 0.02 0.03 0.03 0.03 0.04 0.02 0.01 0.01 0.00 0.00 0.00 0.00 0.00 0.01 0.00 0.01 0.01 0.00 0.00 0.00 0.00 0.01 0.01 0.02 0.03 0.03 0.00 0.00 0.00 0.00 0.00 0.00 0.00 0.00 0.00 0.00 0.00 0.00 0.00 0.00 0.01 0.01 0.02
0.01 0.04 0.07 0.11 0.01 0.00 0.01 0.01 0.01 0.01 0.01 0.01 0.02 0.01 0.01 0.02 0.01 0.02 0.02 0.00 0.00 0.00 0.00 0.00 0.00 0.00 0.00 0.00 0.00 0.00 0.00 0.00 0.00 0.00 0.00 0.00 0.00 0.00 0.00 0.00 0.00 0.00 0.00 0.00 0.00 0.00 0.00 0.00 0.01 0.02 0.03 0.03 0.02 0.02
0.04 0.16 0.23 0.21 0.16 0.01 0.00 0.00 0.00 0.00 0.00 0.00 0.01 0.00 0.00 0.00 0.00 0.01 0.01 0.00 0.01 0.02 0.01 0.01 0.01 0.01 0.00 0.00 0.00 0.00 0.00 0.00 0.00 0.00 0.00 0.00 0.00 0.00 0.00 0.00 0.00 0.00 0.00 0.00 0.00 0.00 0.02 0.03 0.03 0.04 0.05 0.01 0.01 0.01
0.07 0.21 0.25 0.27 0.30 0.13 0.02 0.00 0.00 0.00 0.00 0.01 0.01 0.01 0.01 0.01 0.01 0.01 0.01 0.02 0.02 0.03 0.03 0.04 0.03 0.03 0.02 0.01 0.00 0.00 0.01 0.02 0.02 0.02 0.01 0.01 0.02 0.02 0.01 0.00 0.00 0.01 0.01 0.01 0.02 0.02 0.01 0.02 0.04 0.04 0.02 0.01 0.01 0.02
0.18 0.32 0.33 0.29 0.28 0.14 0.09 0.02 0.03 0.00 0.00 0.00 0.02 0.02 0.01 0.01 0.01 0.00 0.02 0.04 0.04 0.03 0.04 0.02 0.05 0.09 0.09 0.12 0.07 0.05 0.03 0.01 0.02 0.03 0.04 0.03 0.03 0.02 0.02 0.01 0.02 0.03 0.02 0.02 0.04 0.03 0.04 0.03 0.02 0.01 0.01 0.03 0.04 0.03
0.24 0.43 0.44 0.33 0.16 0.14 0.08 0.07 0.04 0.03 0.01 0.01 0.02 0.02 0.01 0.01 0.01 0.02 0.02 0.03 0.04 0.02 0.03 0.06 0.07 0.10 0.12 0.12 0.12 0.14 0.15 0.12 0.10 0.08 0.07 0.05 0.04 0.04 0.02 0.02 0.03 0.03 0.03 0.04 0.03 0.02 0.02 0.01 0.02 0.04 0.04 0.04 0.02 0.04
0.41 0.36 0.32 0.26 0.14 0.07 0.04 0.04 0.05 0.03 0.02 0.01 0.02 0.01 0.01 0.01 0.03 0.02 0.03 0.07 0.07 0.07 0.09 0.12 0.13 0.14 0.14 0.16 0.15 0.13 0.11 0.09 0.08 0.06 0.05 0.04 0.03 0.02 0.01 0.02 0.02 0.03 0.04 0.04 0.03 0.03 0.03 0.03 0.03 0.03 0.03 0.04 0.06 0.08
0.36 0.21 0.13 0.09 0.06 0.07 0.05 0.02 0.02 0.03 0.03 0.07 0.08 0.05 0.04 0.06 0.06 0.06 0.07 0.12 0.13 0.14 0.15 0.16 0.15 0.13 0.13 0.12 0.11 0.09 0.07 0.06 0.04 0.03 0.03 0.01 0.02 0.04 0.03 0.02 0.02 0.02 0.04 0.05 0.07 0.06 0.03 0.02 0.03 0.04 0.05 0.06 0.08 0.10
0.16 0.10 0.04 0.03 0.07 0.13 0.18 0.15 0.14 0.16 0.13 0.13 0.09 0.07 0.10 0.13 0.09 0.10 0.10 0.14 0.16 0.18 0.16 0.14 0.11 0.09 0.09 0.08 0.05 0.04 0.02 0.01 0.01 0.01 0.01 0.02 0.03 0.04 0.06 0.09 0.11 0.09 0.03 0.04 0.07 0.09 0.10 0.09 0.07 0.06 0.07 0.07 0.08 0.13
0.06 0.07 0.08 0.11 0.18 0.20 0.18 0.15 0.18 0.18 0.19 0.18 0.13 0.13 0.14 0.10 0.10 0.11 0.12 0.14 0.13 0.10 0.07 0.05 0.03 0.02 0.02 0.03 0.03 0.03 0.01 0.01 0.00 0.00 0.02 0.05 0.07 0.05 0.03 0.04 0.05 0.03 0.04 0.06 0.07 0.07 0.09 0.10 0.10 0.10 0.11 0.13 0.16 0.18
0.09 0.10 0.10 0.10 0.06 0.04 0.05 0.07 0.08 0.09 0.10 0.08 0.06 0.05 0.06 0.05 0.08 0.09 0.08 0.07 0.05 0.04 0.03 0.03 0.04 0.03 0.03 0.01 0.02 0.02 0.01 0.00 0.00 0.00 0.00 0.01 0.03 0.03 0.02 0.03 0.03 0.03 0.04 0.04 0.04 0.05 0.07 0.11 0.09 0.14 0.18 0.20 0.17 0.13
0.01 0.01 0.01 0.00 0.01 0.02 0.03 0.03 0.04 0.05 0.03 0.03 0.03 0.03 0.03 0.06 0.10 0.09 0.06 0.05 0.05 0.06 0.07 0.06 0.04 0.02 0.02 0.01 0.01 0.03 0.05 0.02 0.01 0.02 0.03 0.03 0.03 0.03 0.03 0.03 0.03 0.03 0.04 0.04 0.04 0.03 0.04 0.04 0.06 0.14 0.09 0.08 0.10 0.10
0.01 0.01 0.01 0.01 0.02 0.03 0.02 0.01 0.02 0.06 0.06 0.04 0.03 0.04 0.10 0.08 0.08 0.06 0.05 0.06 0.04 0.03 0.02 0.01 0.01 0.01 0.01 0.01 0.02 0.02 0.02 0.02 0.02 0.02 0.02 0.03 0.03 0.02 0.02 0.02 0.02 0.04 0.04 0.04 0.04 0.05 0.06 0.06 0.08 0.10 0.05 0.06 0.07 0.07
0.01 0.02 0.02 0.03 0.05 0.02 0.01 0.01 0.01 0.03 0.03 0.03 0.06 0.05 0.06 0.05 0.05 0.05 0.04 0.03 0.01 0.01 0.01 0.01 0.01 0.02 0.02 0.02 0.03 0.03 0.03 0.02 0.01 0.01 0.02 0.03 0.02 0.02 0.02 0.02 0.03 0.04 0.04 0.04 0.05 0.07 0.07 0.07 0.07 0.07 0.07 0.06 0.06 0.06
0.01 0.01 0.01 0.01 0.01 0.01 0.01 0.00 0.00 0.01 0.03 0.04 0.07 0.05 0.06 0.06 0.05 0.05 0.05 0.02 0.02 0.01 0.01 0.01 0.01 0.01 0.03 0.02 0.01 0.02 0.01 0.01 0.01 0.01 0.02 0.02 0.02 0.01 0.02 0.02 0.04 0.04 0.05 0.05 0.07 0.08 0.06 0.06 0.06 0.06 0.05 0.05 0.04 0.04

GFSWCAN_prec_precacc_030.txt.gz
Total_Precipitation_Accumulation
0.43 0.30 0.36 0.29 0.22 0.22 0.14 0.21 0.18 0.12 0.12 0.12 0.12 0.09 0.04 0.01 0.01 0.15 0.19 0.17 0.16 0.08 0.00 0.00 0.00 0.00 0.00 0.00 0.00 0.00 0.00 0.00 0.00 0.00 0.00 0.00 0.00 0.00 0.00 0.00 0.00 0.00 0.00 0.00 0.00 0.00 0.01 0.00 0.00 0.01 0.02 0.02 0.00 0.00
0.76 0.60 0.36 0.21 0.27 0.18 0.20 0.20 0.13 0.11 0.12 0.15 0.09 0.05 0.02 0.01 0.02 0.19 0.22 0.13 0.15 0.13 0.00 0.00 0.00 0.00 0.00 0.00 0.00 0.00 0.00 0.00 0.00 0.00 0.01 0.02 0.00 0.00 0.00 0.00 0.00 0.00 0.00 0.00 0.01 0.00 0.00 0.00 0.02 0.02 0.01 0.01 0.00 0.00
0.98 0.56 0.28 0.21 0.20 0.25 0.22 0.15 0.10 0.14 0.12 0.12 0.08 0.05 0.02 0.03 0.04 0.18 0.19 0.17 0.29 0.04 0.02 0.00 0.00 0.00 0.00 0.00 0.00 0.00 0.00 0.00 0.00 0.00 0.00 0.00 0.02 0.00 0.00 0.00 0.00 0.00 0.00 0.00 0.01 0.00 0.00 0.01 0.01 0.01 0.00 0.00 0.00 0.00
0.70 0.55 0.30 0.19 0.21 0.22 0.19 0.11 0.11 0.13 0.10 0.09 0.09 0.03 0.02 0.02 0.05 0.22 0.11 0.09 0.08 0.03 0.10 0.02 0.00 0.00 0.00 0.00 0.00 0.00 0.00 0.00 0.00 0.00 0.00 0.02 0.02 0.00 0.00 0.00 0.00 0.00 0.00 0.01 0.01 0.00 0.00 0.01 0.01 0.00 0.00 0.01 0.01 0.01
0.59 0.47 0.34 0.19 0.16 0.17 0.13 0.08 0.11 0.15 0.11 0.08 0.07 0.03 0.01 0.02 0.06 0.16 0.07 0.05 0.03 0.07 0.07 0.01 0.00 0.00 0.00 0.00 0.00 0.00 0.00 0.00 0.00 0.00 0.02 0.01 0.00 0.00 0.01 0.00 0.00 0.00 0.00 0.01 0.01 0.01 0.01 0.03 0.02 0.01 0.02 0.02 0.02 0.00
0.65 0.48 0.31 0.12 0.09 0.09 0.07 0.07 0.12 0.15 0.09 0.06 0.04 0.02 0.01 0.03 0.07 0.11 0.11 0.04 0.02 0.01 0.04 0.05 0.01 0.00 0.00 0.00 0.00 0.00 0.00 0.00 0.00 0.01 0.00 0.00 0.00 0.01 0.01 0.00 0.00 0.00 0.00 0.00 0.01 0.01 0.03 0.02 0.01 0.00 0.00 0.00 0.00 0.00
0.48 0.37 0.26 0.16 0.08 0.06 0.07 0.08 0.12 0.10 0.05 0.05 0.05 0.04 0.06 0.07 0.15 0.16 0.09 0.04 0.01 0.01 0.08 0.06 0.03 0.00 0.00 0.00 0.00 0.01 0.01 0.01 0.02 0.04 0.01 0.00 0.00 0.04 0.02 0.01 0.00 0.00 0.00 0.00 0.00 0.02 0.03 0.01 0.01 0.00 0.00 0.00 0.00 0.00
0.31 0.26 0.20 0.14 0.11 0.09 0.09 0.09 0.10 0.07 0.08 0.07 0.08 0.09 0.10 0.09 0.12 0.08 0.02 0.01 0.00 0.03 0.07 0.06 0.02 0.02 0.01 0.01 0.02 0.02 0.07 0.11 0.07 0.04 0.02 0.00 0.01 0.04 0.02 0.00 0.00 0.00 0.00 0.00 0.01 0.02 0.01 0.01 0.00 0.00 0.00 0.00 0.00 0.01
0.09 0.04 0.05 0.05 0.07 0.11 0.11 0.10 0.08 0.06 0.07 0.07 0.08 0.07 0.08 0.11 0.16 0.04 0.01 0.01 0.00 0.11 0.10 0.02 0.02 0.03 0.02 0.02 0.02 0.01 0.04 0.04 0.01 0.01 0.01 0.01 0.00 0.00 0.00 0.00 0.00 0.00 0.00 0.01 0.00 0.00 0.00 0.00 0.00 0.00 0.00 0.02 0.06 0.17
0.08 0.06 0.03 0.01 0.05 0.07 0.07 0.07 0.07 0.10 0.17 0.23 0.23 0.19 0.15 0.13 0.11 0.02 0.02 0.07 0.03 0.01 0.00 0.01 0.01 0.01 0.02 0.03 0.03 0.02 0.02 0.02 0.00 0.01 0.00 0.00 0.00 0.00 0.00 0.00 0.00 0.00 0.00 0.00 0.00 0.00 0.01 0.01 0.01 0.02 0.05 0.12 0.20 0.16
0.08 0.04 0.02 0.04 0.08 0.04 0.06 0.03 0.04 0.13 0.56 0.70 0.62 0.32 0.19 0.18 0.07 0.08 0.09 0.12 0.06 0.00 0.00 0.01 0.00 0.00 0.01 0.03 0.04 0.04 0.04 0.02 0.01 0.00 0.01 0.01 0.00 0.00 0.00 0.00 0.00 0.00 0.00 0.00 0.00 0.00 0.02 0.05 0.14 0.26 0.26 0.15 0.05 0.02
0.09 0.06 0.03 0.06 0.05 0.02 0.06 0.08 0.08 0.14 0.40 0.71 0.54 0.31 0.31 0.58 0.42 0.45 0.49 0.19 0.05 0.01 0.01 0.01 0.01 0.01 0.03 0.03 0.06 0.10 0.12 0.11 0.07 0.01 0.04 0.03 0.01 0.01 0.01 0.00 0.00 0.00 0.00 0.00 0.03 0.10 0.18 0.23 0.23 0.11 0.03 0.02 0.02 0.02
0.10 0.09 0.07 0.08 0.03 0.02 0.03 0.06 0.05 0.11 0.26 0.59 0.73 0.80 0.85 1.10 1.11 0.82 0.44 0.16 0.04 0.01 0.01 0.01 0.02 0.04 0.06 0.06 0.15 0.26 0.36 0.28 0.11 0.09 0.06 0.06 0.04 0.06 0.07 0.07 0.07 0.07 0.09 0.15 0.21 0.18 0.11 0.05 0.03 0.03 0.03 0.02 0.01 0.01
0.02 0.04 0.09 0.12 0.07 0.06 0.05 0.04 0.07 0.08 0.17 0.50 0.80 1.14 1.02 0.98 0.68 0.49 0.22 0.08 0.06 0.05 0.02 0.02 0.05 0.07 0.09 0.11 0.36 0.58 0.61 0.34 0.34 0.19 0.12 0.15 0.24 0.33 0.21 0.13 0.10 0.07 0.05 0.03 0.01 0.01 0.01 0.01 0.01 0.00 0.00 0.00 0.00 0.00
0.00 0.00 0.02 0.06 0.07 0.10 0.09 0.08 0.10 0.05 0.10 0.22 0.28 0.49 0.52 0.41 0.31 0.22 0.19 0.17 0.17 0.17 0.24 0.29 0.35 0.32 0.31 0.47 0.51 0.41 0.38 0.34 0.29 0.28 0.35 0.36 0.34 0.30 0.10 0.02 0.01 0.00 0.00 0.00 0.00 0.00 0.00 0.00 0.00 0.00 0.00 0.00 0.00 0.00
0.00 0.00 0.00 0.02 0.02 0.03 0.02 0.10 0.07 0.10 0.20 0.17 0.18 0.25 0.27 0.20 0.24 0.26 0.26 0.28 0.29 0.35 0.37 0.41 0.40 0.43 0.49 0.47 0.36 0.33 0.32 0.34 0.35 0.19 0.12 0.11 0.13 0.13 0.12 0.06 0.00 0.00 0.00 0.00 0.00 0.00 0.00 0.00 0.00 0.00 0.00 0.00 0.00 0.00
0.00 0.01 0.00 0.00 0.00 0.02 0.03 0.03 0.04 0.04 0.14 0.07 0.12 0.14 0.13 0.14 0.18 0.21 0.20 0.20 0.16 0.19 0.26 0.21 0.21 0.24 0.24 0.27 0.28 0.24 0.28 0.20 0.15 0.13 0.08 0.08 0.09 0.05 0.01 0.01 0.00 0.00 0.00 0.00 0.00 0.00 0.00 0.00 0.00 0.00 0.00 0.00 0.00 0.00
0.02 0.02 0.00 0.00 0.01 0.01 0.05 0.03 0.05 0.03 0.04 0.06 0.07 0.10 0.07 0.09 0.08 0.06 0.03 0.02 0.02 0.03 0.06 0.07 0.07 0.12 0.19 0.20 0.18 0.10 0.05 0.04 0.03 0.03 0.03 0.08 0.06 0.02 0.01 0.00 0.00 0.00 0.00 0.00 0.00 0.00 0.00 0.00 0.00 0.00 0.00 0.00 0.00 0.01
0.02 0.04 0.01 0.02 0.01 0.01 0.05 0.07 0.02 0.04 0.07 0.06 0.06 0.05 0.04 0.05 0.03 0.01 0.01 0.00 0.00 0.00 0.01 0.02 0.05 0.05 0.08 0.07 0.05 0.02 0.00 0.00 0.01 0.02 0.02 0.04 0.04 0.01 0.00 0.00 0.00 0.00 0.00 0.00 0.00 0.00 0.00 0.00 0.00 0.00 0.00 0.01 0.01 0.02
0.01 0.04 0.07 0.11 0.01 0.00 0.01 0.01 0.01 0.02 0.03 0.04 0.04 0.02 0.01 0.02 0.01 0.02 0.02 0.00 0.00 0.00 0.01 0.01 0.04 0.05 0.03 0.02 0.02 0.01 0.00 0.00 0.00 0.00 0.02 0.02 0.01 0.00 0.00 0.00 0.00 0.00 0.00 0.00 0.00 0.00 0.00 0.00 0.01 0.02 0.03 0.03 0.02 0.02
0.04 0.16 0.23 0.21 0.16 0.01 0.00 0.00 0.00 0.01 0.00 0.01 0.01 0.00 0.00 0.01 0.01 0.01 0.01 0.00 0.01 0.03 0.04 0.05 0.06 0.04 0.01 0.00 0.01 0.02 0.02 0.02 0.02 0.01 0.00 0.00 0.00 0.00 0.00 0.00 0.00 0.00 0.00 0.00 0.00 0.00 0.02 0.03 0.03 0.04 0.05 0.01 0.01 0.01
0.07 0.21 0.25 0.27 0.30 0.13 0.02 0.00 0.00 0.00 0.00 0.01 0.01 0.01 0.02 0.02 0.02 0.02 0.01 0.02 0.03 0.05 0.06 0.05 0.04 0.04 0.02 0.02 0.01 0.02 0.04 0.05 0.06 0.06 0.06 0.05 0.05 0.04 0.02 0.03 0.02 0.03 0.02 0.02 0.02 0.02 0.01 0.02 0.04 0.04 0.02 0.01 0.01 0.02
0.18 0.32 0.33 0.29 0.28 0.14 0.09 0.02 0.03 0.00 0.01 0.00 0.02 0.02 0.01 0.02 0.01 0.01 0.03 0.04 0.05 0.05 0.06 0.03 0.06 0.09 0.09 0.12 0.08 0.07 0.06 0.04 0.05 0.08 0.09 0.09 0.08 0.07 0.07 0.06 0.06 0.05 0.03 0.02 0.04 0.03 0.04 0.03 0.02 0.01 0.01 0.03 0.04 0.04
0.24 0.43 0.44 0.33 0.16 0.14 0.08 0.07 0.04 0.03 0.01 0.01 0.02 0.02 0.01 0.01 0.01 0.02 0.03 0.04 0.06 0.03 0.03 0.07 0.08 0.12 0.12 0.12 0.13 0.15 0.17 0.14 0.13 0.13 0.13 0.10 0.09 0.09 0.06 0.03 0.03 0.03 0.03 0.04 0.03 0.02 0.02 0.01 0.02 0.04 0.04 0.04 0.03 0.04
0.41 0.36 0.32 0.26 0.14 0.07 0.04 0.04 0.05 0.04 0.02 0.01 0.02 0.02 0.02 0.02 0.04 0.03 0.03 0.09 0.08 0.08 0.10 0.13 0.13 0.14 0.15 0.16 0.16 0.14 0.13 0.11 0.10 0.09 0.08 0.06 0.06 0.04 0.01 0.02 0.02 0.03 0.04 0.04 0.03 0.03 0.03 0.03 0.03 0.03 0.03 0.04 0.06 0.08
0.36 0.21 0.13 0.09 0.07 0.08 0.05 0.03 0.02 0.03 0.03 0.07 0.08 0.05 0.04 0.07 0.06 0.07 0.08 0.14 0.14 0.15 0.16 0.16 0.16 0.14 0.13 0.12 0.11 0.09 0.07 0.07 0.05 0.03 0.04 0.02 0.03 0.04 0.03 0.02 0.02 0.02 0.04 0.05 0.07 0.06 0.03 0.02 0.03 0.04 0.06 0.06 0.08 0.10
0.16 0.10 0.04 0.03 0.07 0.13 0.18 0.15 0.14 0.16 0.14 0.13 0.10 0.08 0.11 0.14 0.10 0.11 0.11 0.15 0.17 0.19 0.16 0.15 0.11 0.09 0.10 0.08 0.05 0.04 0.02 0.01 0.01 0.02 0.01 0.02 0.03 0.04 0.06 0.09 0.11 0.09 0.03 0.04 0.07 0.09 0.11 0.09 0.07 0.06 0.07 0.08 0.09 0.14
0.06 0.07 0.08 0.11 0.18 0.20 0.18 0.15 0.18 0.19 0.20 0.18 0.14 0.13 0.14 0.12 0.12 0.12 0.13 0.15 0.14 0.10 0.07 0.05 0.03 0.02 0.03 0.04 0.04 0.03 0.02 0.01 0.00 0.00 0.02 0.05 0.07 0.05 0.03 0.05 0.05 0.03 0.04 0.06 0.07 0.07 0.09 0.11 0.11 0.10 0.11 0.13 0.16 0.18
0.09 0.10 0.10 0.10 0.06 0.04 0.06 0.08 0.09 0.10 0.10 0.08 0.07 0.06 0.06 0.06 0.10 0.10 0.09 0.08 0.07 0.05 0.04 0.04 0.05 0.04 0.03 0.01 0.02 0.02 0.01 0.00 0.00 0.00 0.00 0.01 0.04 0.04 0.02 0.03 0.03 0.03 0.04 0.04 0.04 0.05 0.08 0.11 0.10 0.15 0.19 0.20 0.18 0.14
0.01 0.01 0.01 0.00 0.01 0.02 0.03 0.03 0.05 0.06 0.03 0.03 0.03 0.03 0.04 0.07 0.11 0.10 0.07 0.06 0.05 0.07 0.08 0.06 0.05 0.03 0.02 0.01 0.01 0.03 0.05 0.02 0.01 0.02 0.03 0.03 0.03 0.03 0.03 0.03 0.03 0.03 0.04 0.05 0.04 0.03 0.05 0.05 0.06 0.14 0.09 0.09 0.11 0.11
0.01 0.01 0.01 0.01 0.02 0.04 0.03 0.01 0.03 0.06 0.07 0.04 0.04 0.05 0.11 0.09 0.09 0.07 0.05 0.07 0.05 0.03 0.03 0.02 0.01 0.02 0.01 0.01 0.02 0.02 0.02 0.02 0.02 0.02 0.02 0.03 0.03 0.03 0.03 0.03 0.03 0.04 0.04 0.04 0.05 0.05 0.06 0.06 0.09 0.10 0.06 0.06 0.07 0.07
0.01 0.02 0.02 0.04 0.06 0.02 0.01 0.01 0.02 0.05 0.05 0.04 0.07 0.05 0.07 0.07 0.06 0.06 0.04 0.04 0.03 0.01 0.01 0.01 0.02 0.02 0.02 0.02 0.03 0.03 0.03 0.02 0.01 0.01 0.02 0.03 0.02 0.02 0.02 0.02 0.03 0.04 0.05 0.05 0.06 0.07 0.08 0.07 0.08 0.07 0.07 0.06 0.06 0.06
0.02 0.01 0.01 0.01 0.01 0.01 0.02 0.00 0.00 0.01 0.04 0.05 0.08 0.06 0.07 0.07 0.06 0.06 0.05 0.03 0.02 0.02 0.02 0.02 0.02 0.02 0.03 0.02 0.01 0.02 0.01 0.01 0.01 0.01 0.02 0.03 0.02 0.02 0.02 0.03 0.04 0.05 0.05 0.06 0.07 0.08 0.07 0.06 0.06 0.06 0.05 0.05 0.04 0.04

GFSWCAN_prec_precacc_033.txt.gz
Total_Precipitation_Accumulation
0.43 0.30 0.36 0.30 0.23 0.22 0.15 0.23 0.19 0.13 0.14 0.14 0.13 0.09 0.05 0.01 0.01 0.16 0.22 0.26 0.41 0.18 0.01 0.00 0.00 0.00 0.00 0.00 0.01 0.00 0.06 0.01 0.00 0.01 0.01 0.00 0.00 0.00 0.00 0.00 0.00 0.00 0.00 0.00 0.00 0.00 0.01 0.00 0.00 0.01 0.02 0.02 0.00 0.00
0.76 0.60 0.36 0.21 0.28 0.19 0.21 0.21 0.14 0.11 0.12 0.15 0.10 0.05 0.02 0.01 0.02 0.20 0.24 0.17 0.35 0.44 0.08 0.02 0.00 0.00 0.00 0.00 0.00 0.00 0.01 0.00 0.00 0.00 0.01 0.02 0.00 0.00 0.00 0.00 0.00 0.00 0.00 0.00 0.01 0.00 0.00 0.00 0.02 0.02 0.01 0.01 0.00 0.00
0.98 0.56 0.28 0.21 0.20 0.26 0.23 0.16 0.10 0.14 0.12 0.12 0.09 0.05 0.02 0.03 0.04 0.19 0.21 0.23 0.82 0.61 0.26 0.06 0.01 0.00 0.00 0.00 0.00 0.01 0.00 0.00 0.00 0.00 0.00 0.01 0.02 0.00 0.00 0.00 0.00 0.00 0.00 0.00 0.01 0.00 0.00 0.01 0.01 0.01 0.00 0.00 0.00 0.00
0.70 0.56 0.30 0.19 0.21 0.23 0.19 0.11 0.11 0.13 0.10 0.11 0.10 0.04 0.03 0.03 0.06 0.24 0.17 0.50 1.31 0.85 0.68 0.20 0.01 0.00 0.00 0.00 0.00 0.00 0.00 0.00 0.00 0.00 0.00 0.02 0.02 0.00 0.00 0.00 0.00 0.00 0.00 0.01 0.01 0.00 0.00 0.01 0.01 0.00 0.00 0.01 0.01 0.01
0.61 0.50 0.35 0.20 0.17 0.20 0.15 0.10 0.12 0.16 0.17 0.14 0.10 0.04 0.02 0.03 0.09 0.24 0.20 0.63 0.89 0.68 0.57 0.15 0.01 0.00 0.01 0.01 0.00 0.00 0.00 0.00 0.00 0.00 0.02 0.01 0.00 0.00 0.01 0.00 0.00 0.00 0.00 0.01 0.01 0.01 0.01 0.03 0.02 0.01 0.02 0.02 0.02 0.00
0.72 0.53 0.34 0.16 0.13 0.14 0.12 0.11 0.14 0.19 0.17 0.13 0.07 0.03 0.02 0.05 0.24 0.35 0.56 0.41 0.53 0.31 0.22 0.09 0.02 0.01 0.00 0.00 0.00 0.00 0.00 0.00 0.00 0.01 0.00 0.00 0.00 0.01 0.01 0.00 0.00 0.00 0.00 0.00 0.01 0.01 0.03 0.02 0.01 0.00 0.00 0.00 0.00 0.00
0.66 0.47 0.31 0.21 0.13 0.12 0.11 0.12 0.15 0.16 0.13 0.10 0.08 0.05 0.08 0.12 0.45 0.49 0.61 0.26 0.18 0.14 0.13 0.07 0.04 0.01 0.01 0.00 0.00 0.01 0.01 0.01 0.02 0.04 0.01 0.00 0.00 0.04 0.02 0.01 0.00 0.00 0.00 0.00 0.00 0.02 0.03 0.01 0.01 0.00 0.00 0.00 0.00 0.00
0.60 0.41 0.28 0.18 0.14 0.12 0.11 0.12 0.16 0.15 0.14 0.11 0.10 0.11 0.14 0.25 0.65 0.29 0.19 0.05 0.04 0.06 0.08 0.08 0.03 0.03 0.01 0.02 0.02 0.02 0.08 0.11 0.07 0.04 0.02 0.00 0.01 0.04 0.02 0.00 0.00 0.00 0.00 0.00 0.01 0.02 0.01 0.01 0.00 0.00 0.00 0.00 0.00 0.01
0.20 0.12 0.11 0.09 0.11 0.14 0.13 0.12 0.12 0.10 0.10 0.09 0.09 0.12 0.26 0.53 0.73 0.14 0.04 0.01 0.01 0.11 0.10 0.03 0.03 0.04 0.02 0.02 0.02 0.01 0.04 0.04 0.01 0.01 0.01 0.01 0.00 0.00 0.00 0.00 0.00 0.00 0.00 0.01 0.00 0.00 0.00 0.00 0.00 0.00 0.00 0.02 0.06 0.17
0.13 0.10 0.06 0.06 0.10 0.13 0.12 0.11 0.08 0.11 0.18 0.25 0.29 0.33 0.42 0.41 0.23 0.02 0.03 0.07 0.03 0.01 0.00 0.01 0.01 0.01 0.02 0.03 0.03 0.02 0.02 0.02 0.01 0.01 0.00 0.00 0.00 0.00 0.00 0.00 0.00 0.00 0.00 0.00 0.00 0.00 0.01 0.01 0.01 0.02 0.05 0.12 0.20 0.16
0.12 0.06 0.05 0.07 0.11 0.08 0.10 0.08 0.07 0.14 0.58 0.75 0.70 0.44 0.39 0.34 0.08 0.08 0.09 0.12 0.06 0.01 0.00 0.01 0.01 0.01 0.01 0.04 0.07 0.07 0.07 0.05 0.02 0.01 0.01 0.01 0.00 0.01 0.00 0.00 0.00 0.00 0.00 0.00 0.00 0.00 0.02 0.05 0.14 0.26 0.26 0.15 0.05 0.02
0.15 0.10 0.06 0.08 0.08 0.04 0.07 0.09 0.09 0.15 0.44 0.75 0.56 0.36 0.51 0.65 0.45 0.45 0.49 0.19 0.05 0.01 0.01 0.01 0.01 0.01 0.03 0.04 0.08 0.11 0.13 0.11 0.07 0.01 0.05 0.03 0.01 0.01 0.01 0.00 0.00 0.00 0.00 0.00 0.03 0.10 0.18 0.23 0.23 0.11 0.03 0.02 0.02 0.02
0.15 0.12 0.10 0.13 0.06 0.04 0.04 0.07 0.06 0.12 0.27 0.59 0.74 0.84 0.96 1.12 1.18 0.82 0.44 0.16 0.04 0.01 0.01 0.01 0.02 0.04 0.06 0.06 0.15 0.26 0.37 0.28 0.11 0.09 0.06 0.06 0.04 0.06 0.07 0.07 0.07 0.07 0.09 0.15 0.21 0.18 0.11 0.05 0.03 0.03 0.03 0.02 0.01 0.01
0.02 0.05 0.11 0.15 0.09 0.08 0.06 0.04 0.07 0.08 0.17 0.50 0.80 1.15 1.05 1.01 0.69 0.49 0.22 0.08 0.06 0.05 0.03 0.02 0.05 0.07 0.09 0.11 0.36 0.58 0.61 0.34 0.34 0.19 0.12 0.15 0.24 0.33 0.21 0.13 0.10 0.07 0.05 0.03 0.01 0.01 0.01 0.01 0.01 0.00 0.00 0.00 0.00 0.00
0.00 0.00 0.02 0.06 0.08 0.10 0.09 0.08 0.10 0.05 0.10 0.22 0.29 0.51 0.53 0.42 0.31 0.22 0.19 0.17 0.17 0.17 0.24 0.29 0.35 0.32 0.31 0.47 0.51 0.41 0.38 0.34 0.29 0.28 0.35 0.36 0.34 0.30 0.10 0.02 0.01 0.00 0.00 0.00 0.00 0.00 0.00 0.00 0.00 0.00 0.00 0.00 0.00 0.00
0.00 0.00 0.00 0.02 0.02 0.03 0.02 0.10 0.07 0.11 0.22 0.20 0.23 0.31 0.30 0.22 0.24 0.27 0.26 0.28 0.29 0.35 0.37 0.41 0.40 0.43 0.49 0.47 0.36 0.33 0.32 0.35 0.36 0.19 0.13 0.11 0.13 0.13 0.12 0.06 0.00 0.00 0.00 0.00 0.00 0.00 0.00 0.00 0.00 0.00 0.00 0.00 0.00 0.00
0.00 0.01 0.00 0.00 0.00 0.02 0.03 0.04 0.08 0.14 0.24 0.16 0.23 0.23 0.20 0.20 0.24 0.26 0.23 0.23 0.19 0.22 0.27 0.21 0.22 0.24 0.25 0.28 0.30 0.25 0.30 0.21 0.15 0.14 0.09 0.10 0.12 0.06 0.01 0.01 0.00 0.00 0.00 0.00 0.00 0.00 0.00 0.00 0.00 0.00 0.00 0.00 0.00 0.00
0.02 0.02 0.00 0.00 0.01 0.01 0.05 0.03 0.07 0.07 0.12 0.16 0.17 0.22 0.14 0.17 0.16 0.14 0.09 0.05 0.04 0.06 0.09 0.10 0.10 0.15 0.23 0.24 0.23 0.15 0.10 0.09 0.06 0.06 0.06 0.11 0.10 0.02 0.01 0.00 0.00 0.00 0.00 0.00 0.00 0.00 0.00 0.00 0.00 0.00 0.00 0.00 0.00 0.01
0.02 0.04 0.01 0.02 0.01 0.01 0.05 0.07 0.02 0.06 0.13 0.15 0.15 0.12 0.09 0.09 0.06 0.05 0.03 0.02 0.02 0.02 0.03 0.05 0.09 0.10 0.15 0.15 0.16 0.12 0.07 0.03 0.02 0.03 0.04 0.06 0.05 0.02 0.01 0.00 0.00 0.00 0.00 0.00 0.00 0.00 0.00 0.00 0.00 0.00 0.00 0.01 0.01 0.02
0.01 0.04 0.07 0.11 0.01 0.00 0.01 0.01 0.01 0.03 0.07 0.07 0.07 0.03 0.02 0.03 0.02 0.02 0.02 0.00 0.00 0.00 0.02 0.05 0.11 0.13 0.12 0.12 0.11 0.09 0.04 0.00 0.00 0.01 0.04 0.07 0.04 0.01 0.02 0.02 0.01 0.00 0.00 0.00 0.00 0.00 0.00 0.00 0.01 0.02 0.03 0.03 0.02 0.02
0.04 0.16 0.23 0.21 0.16 0.01 0.00 0.00 0.00 0.01 0.01 0.01 0.01 0.00 0.00 0.01 0.01 0.01 0.01 0.00 0.01 0.04 0.07 0.09 0.11 0.08 0.04 0.04 0.06 0.07 0.07 0.06 0.05 0.02 0.01 0.02 0.02 0.03 0.04 0.02 0.02 0.02 0.02 0.02 0.02 0.02 0.02 0.03 0.03 0.04 0.05 0.01 0.01 0.01
0.07 0.21 0.25 0.27 0.30 0.13 0.02 0.00 0.01 0.01 0.00 0.01 0.01 0.02 0.02 0.02 0.02 0.02 0.01 0.02 0.04 0.09 0.10 0.07 0.05 0.05 0.02 0.03 0.02 0.04 0.08 0.10 0.12 0.14 0.14 0.09 0.08 0.07 0.07 0.08 0.06 0.06 0.05 0.05 0.05 0.03 0.02 0.02 0.04 0.04 0.02 0.01 0.01 0.02
0.18 0.32 0.33 0.29 0.28 0.14 0.09 0.02 0.03 0.00 0.01 0.01 0.02 0.02 0.02 0.02 0.02 0.01 0.04 0.05 0.07 0.07 0.08 0.06 0.07 0.09 0.10 0.13 0.08 0.07 0.06 0.05 0.08 0.14 0.17 0.16 0.14 0.14 0.12 0.12 0.11 0.10 0.07 0.05 0.04 0.04 0.04 0.03 0.02 0.01 0.01 0.03 0.04 0.04
0.24 0.43 0.44 0.33 0.16 0.14 0.08 0.07 0.04 0.03 0.01 0.01 0.02 0.02 0.01 0.01 0.02 0.03 0.04 0.06 0.08 0.03 0.04 0.08 0.11 0.14 0.12 0.12 0.13 0.16 0.18 0.15 0.15 0.16 0.17 0.14 0.12 0.13 0.09 0.07 0.06 0.05 0.04 0.04 0.03 0.02 0.02 0.01 0.02 0.04 0.04 0.04 0.03 0.04
0.41 0.36 0.32 0.26 0.14 0.07 0.04 0.04 0.05 0.04 0.03 0.02 0.02 0.02 0.02 0.02 0.04 0.04 0.04 0.12 0.09 0.09 0.10 0.14 0.14 0.14 0.16 0.17 0.16 0.15 0.13 0.12 0.10 0.09 0.10 0.09 0.08 0.06 0.03 0.03 0.03 0.03 0.04 0.04 0.03 0.03 0.03 0.03 0.03 0.03 0.03 0.04 0.06 0.08
0.36 0.21 0.13 0.09 0.07 0.08 0.05 0.03 0.02 0.03 0.03 0.08 0.08 0.05 0.04 0.08 0.07 0.08 0.10 0.16 0.15 0.15 0.16 0.17 0.18 0.14 0.13 0.12 0.11 0.10 0.08 0.08 0.05 0.04 0.04 0.02 0.03 0.05 0.04 0.03 0.03 0.03 0.04 0.05 0.07 0.06 0.03 0.02 0.03 0.04 0.06 0.06 0.08 0.11
0.16 0.10 0.04 0.03 0.07 0.13 0.18 0.15 0.14 0.16 0.14 0.14 0.10 0.08 0.12 0.16 0.11 0.12 0.12 0.16 0.18 0.19 0.17 0.15 0.12 0.10 0.11 0.09 0.06 0.05 0.02 0.01 0.01 0.02 0.01 0.02 0.03 0.04 0.06 0.09 0.11 0.09 0.03 0.04 0.07 0.09 0.11 0.09 0.07 0.06 0.07 0.08 0.09 0.14
0.06 0.07 0.08 0.11 0.18 0.20 0.18 0.16 0.18 0.20 0.20 0.18 0.15 0.14 0.15 0.13 0.13 0.14 0.15 0.17 0.15 0.11 0.07 0.05 0.03 0.02 0.03 0.04 0.05 0.04 0.02 0.01 0.00 0.00 0.02 0.06 0.07 0.05 0.03 0.05 0.05 0.03 0.04 0.06 0.07 0.07 0.09 0.11 0.11 0.10 0.11 0.13 0.16 0.18
0.09 0.10 0.10 0.10 0.06 0.04 0.06 0.08 0.10 0.10 0.10 0.09 0.08 0.07 0.07 0.07 0.12 0.13 0.11 0.10 0.09 0.08 0.06 0.05 0.07 0.06 0.04 0.02 0.02 0.02 0.01 0.00 0.00 0.00 0.00 0.01 0.05 0.04 0.02 0.03 0.03 0.03 0.04 0.04 0.04 0.05 0.08 0.11 0.10 0.15 0.19 0.20 0.18 0.14
0.01 0.01 0.01 0.00 0.01 0.03 0.04 0.04 0.06 0.06 0.04 0.03 0.04 0.04 0.05 0.08 0.13 0.11 0.07 0.06 0.06 0.08 0.08 0.07 0.05 0.03 0.03 0.02 0.02 0.03 0.05 0.02 0.01 0.02 0.03 0.03 0.03 0.03 0.03 0.03 0.03 0.03 0.04 0.05 0.04 0.03 0.05 0.05 0.06 0.14 0.09 0.09 0.11 0.11
0.01 0.01 0.01 0.01 0.03 0.04 0.03 0.02 0.04 0.07 0.07 0.04 0.04 0.06 0.11 0.10 0.10 0.07 0.06 0.09 0.05 0.05 0.04 0.03 0.01 0.02 0.01 0.01 0.02 0.02 0.03 0.02 0.02 0.02 0.02 0.03 0.03 0.03 0.03 0.03 0.03 0.04 0.04 0.05 0.05 0.05 0.06 0.06 0.09 0.10 0.06 0.06 0.08 0.07
0.01 0.02 0.02 0.04 0.07 0.02 0.01 0.02 0.03 0.08 0.07 0.05 0.07 0.06 0.08 0.08 0.06 0.06 0.05 0.06 0.03 0.02 0.01 0.02 0.02 0.03 0.02 0.02 0.03 0.03 0.03 0.02 0.02 0.01 0.02 0.03 0.02 0.02 0.02 0.02 0.03 0.05 0.05 0.05 0.06 0.07 0.08 0.08 0.08 0.08 0.08 0.06 0.07 0.06
0.02 0.01 0.01 0.01 0.01 0.02 0.02 0.00 0.01 0.02 0.04 0.05 0.08 0.07 0.08 0.08 0.06 0.07 0.06 0.03 0.02 0.02 0.02 0.02 0.02 0.02 0.04 0.02 0.01 0.02 0.01 0.01 0.01 0.01 0.02 0.03 0.02 0.02 0.02 0.03 0.04 0.05 0.05 0.06 0.07 0.08 0.07 0.07 0.07 0.07 0.06 0.05 0.04 0.04

GFSWCAN_prec_precacc_036.txt.gz
Total_Precipitation_Accumulation
0.44 0.30 0.36 0.30 0.24 0.23 0.16 0.29 0.27 0.23 0.22 0.30 0.20 0.17 0.09 0.04 0.03 0.17 0.29 0.38 0.54 0.29 0.06 0.05 0.02 0.00 0.01 0.01 0.01 0.01 0.09 0.06 0.06 0.06 0.02 0.00 0.00 0.00 0.00 0.00 0.00 0.00 0.00 0.00 0.00 0.00 0.01 0.00 0.00 0.01 0.02 0.02 0.00 0.00
0.76 0.60 0.37 0.22 0.28 0.19 0.22 0.27 0.21 0.18 0.20 0.29 0.17 0.14 0.07 0.03 0.04 0.21 0.28 0.23 0.41 0.53 0.17 0.06 0.03 0.00 0.00 0.00 0.01 0.01 0.02 0.01 0.01 0.02 0.01 0.02 0.00 0.00 0.00 0.00 0.00 0.00 0.00 0.00 0.01 0.00 0.00 0.00 0.02 0.02 0.01 0.01 0.00 0.00
0.98 0.57 0.29 0.21 0.20 0.26 0.24 0.17 0.13 0.17 0.17 0.20 0.16 0.13 0.07 0.06 0.06 0.19 0.23 0.27 0.86 0.65 0.35 0.11 0.03 0.01 0.01 0.01 0.02 0.03 0.00 0.00 0.00 0.00 0.00 0.01 0.02 0.00 0.00 0.00 0.00 0.00 0.00 0.00 0.01 0.00 0.00 0.01 0.01 0.01 0.00 0.00 0.00 0.00
0.70 0.56 0.31 0.19 0.21 0.23 0.19 0.11 0.12 0.15 0.14 0.14 0.12 0.08 0.06 0.04 0.07 0.25 0.20 0.55 1.37 0.92 0.71 0.25 0.03 0.03 0.02 0.02 0.00 0.01 0.01 0.00 0.00 0.00 0.00 0.02 0.02 0.00 0.00 0.00 0.00 0.00 0.00 0.01 0.01 0.00 0.00 0.01 0.01 0.00 0.00 0.01 0.01 0.01
0.61 0.50 0.36 0.20 0.17 0.20 0.16 0.10 0.12 0.16 0.18 0.15 0.10 0.04 0.03 0.03 0.10 0.28 0.25 0.69 0.98 0.89 0.78 0.50 0.08 0.03 0.05 0.07 0.05 0.01 0.00 0.00 0.00 0.01 0.02 0.01 0.00 0.00 0.01 0.00 0.00 0.00 0.00 0.01 0.01 0.01 0.01 0.03 0.02 0.01 0.02 0.02 0.02 0.00
0.72 0.53 0.34 0.16 0.13 0.14 0.12 0.11 0.14 0.20 0.17 0.13 0.07 0.03 0.02 0.06 0.28 0.44 0.67 0.50 0.68 0.57 0.67 0.67 0.41 0.07 0.06 0.05 0.21 0.08 0.04 0.01 0.01 0.01 0.01 0.00 0.00 0.01 0.01 0.00 0.00 0.00 0.00 0.00 0.01 0.01 0.03 0.02 0.01 0.00 0.00 0.00 0.00 0.00
0.66 0.47 0.31 0.21 0.13 0.12 0.11 0.12 0.15 0.16 0.13 0.10 0.08 0.05 0.09 0.16 0.52 0.58 0.78 0.59 0.44 0.51 0.57 0.62 0.51 0.27 0.07 0.06 0.12 0.10 0.12 0.20 0.09 0.06 0.02 0.00 0.00 0.04 0.02 0.01 0.00 0.00 0.00 0.00 0.00 0.02 0.03 0.01 0.01 0.00 0.00 0.00 0.00 0.00
0.63 0.43 0.28 0.18 0.14 0.12 0.12 0.13 0.16 0.16 0.14 0.12 0.12 0.13 0.17 0.37 0.75 0.45 0.48 0.38 0.47 0.46 0.37 0.41 0.34 0.22 0.04 0.04 0.04 0.05 0.12 0.28 0.28 0.07 0.03 0.00 0.01 0.04 0.02 0.00 0.00 0.00 0.00 0.00 0.01 0.02 0.01 0.01 0.00 0.00 0.00 0.00 0.00 0.01
0.27 0.18 0.14 0.10 0.12 0.16 0.17 0.17 0.16 0.13 0.14 0.16 0.17 0.20 0.43 0.82 0.94 0.57 0.39 0.46 0.50 0.47 0.36 0.15 0.12 0.08 0.03 0.02 0.02 0.02 0.06 0.05 0.03 0.02 0.01 0.01 0.00 0.00 0.00 0.00 0.00 0.00 0.00 0.01 0.00 0.00 0.00 0.00 0.00 0.00 0.00 0.02 0.06 0.17
0.17 0.15 0.10 0.08 0.14 0.19 0.18 0.15 0.14 0.19 0.26 0.38 0.50 0.66 0.89 0.81 0.68 0.58 0.41 0.29 0.11 0.06 0.02 0.01 0.02 0.02 0.02 0.03 0.03 0.03 0.02 0.02 0.01 0.01 0.01 0.00 0.00 0.00 0.00 0.00 0.00 0.00 0.00 0.00 0.00 0.00 0.01 0.01 0.01 0.02 0.05 0.12 0.20 0.16
0.16 0.10 0.09 0.11 0.14 0.11 0.14 0.13 0.13 0.24 0.73 1.03 1.06 0.89 0.77 0.68 0.49 0.45 0.25 0.15 0.06 0.01 0.00 0.01 0.01 0.01 0.01 0.04 0.07 0.07 0.08 0.05 0.02 0.01 0.02 0.01 0.00 0.01 0.01 0.01 0.01 0.01 0.00 0.00 0.00 0.00 0.02 0.05 0.14 0.26 0.26 0.15 0.05 0.02
0.17 0.12 0.08 0.10 0.09 0.05 0.10 0.12 0.14 0.26 0.62 0.95 0.75 0.62 0.72 0.78 0.54 0.49 0.49 0.19 0.05 0.01 0.01 0.01 0.01 0.02 0.03 0.04 0.09 0.12 0.15 0.12 0.08 0.01 0.05 0.03 0.01 0.02 0.03 0.02 0.01 0.01 0.00 0.00 0.03 0.10 0.18 0.23 0.23 0.11 0.03 0.02 0.02 0.02
0.19 0.15 0.12 0.14 0.06 0.04 0.06 0.11 0.16 0.21 0.31 0.61 0.81 0.92 1.08 1.15 1.18 0.83 0.44 0.16 0.04 0.01 0.01 0.01 0.02 0.04 0.06 0.06 0.16 0.28 0.38 0.28 0.11 0.09 0.06 0.06 0.05 0.07 0.08 0.07 0.07 0.07 0.09 0.15 0.21 0.18 0.11 0.05 0.03 0.03 0.03 0.02 0.01 0.01
0.13 0.15 0.18 0.18 0.13 0.13 0.10 0.09 0.12 0.10 0.17 0.51 0.82 1.17 1.18 1.08 0.69 0.50 0.22 0.08 0.07 0.06 0.03 0.02 0.06 0.07 0.10 0.13 0.36 0.59 0.62 0.34 0.34 0.19 0.12 0.15 0.24 0.33 0.21 0.13 0.10 0.07 0.05 0.03 0.01 0.01 0.01 0.01 0.01 0.00 0.00 0.00 0.00 0.00
0.05 0.06 0.06 0.09 0.10 0.10 0.09 0.08 0.10 0.05 0.10 0.23 0.30 0.55 0.55 0.44 0.32 0.23 0.19 0.18 0.18 0.18 0.24 0.29 0.35 0.32 0.31 0.47 0.51 0.41 0.38 0.34 0.29 0.28 0.35 0.36 0.34 0.30 0.10 0.02 0.01 0.00 0.00 0.00 0.00 0.00 0.00 0.00 0.00 0.00 0.00 0.00 0.00 0.00
0.00 0.01 0.01 0.02 0.02 0.03 0.02 0.10 0.07 0.11 0.22 0.20 0.24 0.32 0.31 0.22 0.25 0.28 0.27 0.28 0.29 0.36 0.37 0.41 0.40 0.43 0.49 0.47 0.36 0.34 0.32 0.35 0.36 0.19 0.13 0.11 0.13 0.13 0.12 0.06 0.00 0.00 0.00 0.01 0.00 0.00 0.00 0.00 0.00 0.00 0.00 0.00 0.00 0.00
0.00 0.01 0.00 0.00 0.00 0.02 0.03 0.04 0.09 0.15 0.25 0.17 0.27 0.28 0.24 0.22 0.27 0.29 0.25 0.24 0.20 0.23 0.28 0.21 0.23 0.25 0.26 0.29 0.31 0.28 0.33 0.24 0.18 0.15 0.09 0.10 0.12 0.06 0.03 0.02 0.01 0.02 0.03 0.01 0.00 0.00 0.00 0.00 0.00 0.00 0.00 0.00 0.00 0.00
0.02 0.02 0.00 0.00 0.01 0.01 0.05 0.05 0.11 0.10 0.15 0.21 0.24 0.31 0.20 0.25 0.23 0.21 0.18 0.12 0.10 0.12 0.14 0.18 0.16 0.21 0.29 0.29 0.29 0.23 0.18 0.16 0.12 0.10 0.10 0.15 0.12 0.05 0.03 0.02 0.01 0.01 0.01 0.00 0.00 0.00 0.00 0.00 0.00 0.00 0.00 0.00 0.00 0.01
0.02 0.04 0.01 0.02 0.01 0.01 0.05 0.08 0.03 0.09 0.22 0.24 0.25 0.20 0.15 0.17 0.14 0.11 0.08 0.06 0.05 0.05 0.06 0.09 0.13 0.16 0.21 0.23 0.26 0.22 0.17 0.11 0.08 0.07 0.09 0.11 0.07 0.04 0.03 0.01 0.02 0.02 0.01 0.00 0.00 0.00 0.00 0.00 0.00 0.00 0.00 0.01 0.01 0.02
0.01 0.04 0.07 0.11 0.01 0.00 0.01 0.01 0.01 0.04 0.12 0.14 0.13 0.07 0.04 0.08 0.04 0.02 0.02 0.00 0.00 0.00 0.03 0.09 0.18 0.21 0.20 0.21 0.23 0.20 0.13 0.04 0.02 0.03 0.08 0.11 0.07 0.04 0.06 0.05 0.03 0.02 0.01 0.00 0.00 0.00 0.00 0.01 0.01 0.02 0.03 0.03 0.02 0.02
0.04 0.16 0.23 0.21 0.16 0.01 0.00 0.00 0.01 0.01 0.02 0.02 0.02 0.00 0.00 0.01 0.01 0.01 0.01 0.00 0.01 0.04 0.10 0.15 0.18 0.14 0.09 0.09 0.11 0.13 0.11 0.08 0.07 0.05 0.04 0.07 0.09 0.06 0.07 0.06 0.06 0.07 0.06 0.05 0.04 0.04 0.05 0.05 0.03 0.04 0.05 0.01 0.01 0.01
0.07 0.21 0.25 0.27 0.30 0.13 0.02 0.00 0.01 0.01 0.00 0.01 0.01 0.02 0.02 0.03 0.03 0.02 0.01 0.02 0.05 0.13 0.15 0.10 0.07 0.06 0.03 0.04 0.04 0.06 0.10 0.12 0.16 0.20 0.20 0.13 0.12 0.11 0.13 0.15 0.11 0.12 0.11 0.11 0.10 0.08 0.05 0.03 0.04 0.04 0.02 0.01 0.01 0.02
0.18 0.32 0.33 0.29 0.28 0.14 0.09 0.02 0.03 0.00 0.01 0.01 0.02 0.02 0.02 0.02 0.03 0.02 0.04 0.06 0.09 0.10 0.12 0.08 0.07 0.09 0.10 0.13 0.08 0.07 0.07 0.06 0.11 0.19 0.26 0.24 0.22 0.21 0.19 0.18 0.17 0.15 0.11 0.09 0.08 0.06 0.05 0.03 0.02 0.01 0.01 0.03 0.04 0.04
0.24 0.43 0.44 0.33 0.16 0.14 0.08 0.07 0.04 0.03 0.01 0.02 0.02 0.02 0.01 0.02 0.02 0.03 0.04 0.07 0.10 0.04 0.04 0.10 0.12 0.14 0.13 0.13 0.13 0.16 0.19 0.15 0.16 0.18 0.20 0.17 0.16 0.16 0.12 0.10 0.08 0.08 0.07 0.06 0.04 0.02 0.02 0.01 0.02 0.04 0.04 0.04 0.03 0.04
0.41 0.36 0.32 0.26 0.14 0.07 0.04 0.04 0.05 0.04 0.03 0.02 0.03 0.02 0.02 0.02 0.04 0.04 0.05 0.14 0.10 0.09 0.11 0.15 0.14 0.14 0.16 0.17 0.17 0.15 0.14 0.12 0.10 0.10 0.11 0.10 0.09 0.07 0.05 0.04 0.04 0.04 0.04 0.04 0.03 0.03 0.03 0.03 0.03 0.03 0.03 0.04 0.06 0.08
0.36 0.21 0.13 0.09 0.07 0.08 0.05 0.03 0.02 0.03 0.03 0.08 0.08 0.05 0.04 0.08 0.07 0.09 0.11 0.18 0.16 0.16 0.17 0.18 0.19 0.14 0.13 0.13 0.12 0.10 0.08 0.08 0.05 0.04 0.05 0.02 0.04 0.05 0.04 0.03 0.03 0.03 0.04 0.05 0.07 0.06 0.03 0.02 0.03 0.04 0.06 0.06 0.08 0.11
0.16 0.10 0.04 0.03 0.07 0.13 0.18 0.15 0.14 0.16 0.14 0.14 0.10 0.08 0.12 0.17 0.12 0.14 0.14 0.17 0.19 0.20 0.17 0.16 0.12 0.10 0.11 0.10 0.07 0.05 0.02 0.01 0.01 0.02 0.01 0.02 0.03 0.04 0.06 0.09 0.11 0.09 0.03 0.04 0.07 0.09 0.11 0.09 0.08 0.06 0.07 0.08 0.09 0.14
0.06 0.07 0.08 0.11 0.18 0.20 0.18 0.16 0.18 0.20 0.21 0.18 0.15 0.14 0.15 0.13 0.15 0.16 0.17 0.19 0.17 0.11 0.07 0.05 0.03 0.02 0.03 0.04 0.05 0.04 0.02 0.01 0.01 0.01 0.02 0.06 0.07 0.05 0.03 0.05 0.05 0.03 0.04 0.06 0.07 0.08 0.09 0.11 0.11 0.11 0.11 0.13 0.16 0.18
0.09 0.10 0.10 0.10 0.06 0.04 0.06 0.09 0.10 0.11 0.11 0.09 0.08 0.08 0.08 0.08 0.15 0.16 0.14 0.12 0.11 0.09 0.06 0.06 0.09 0.07 0.05 0.02 0.02 0.02 0.01 0.00 0.00 0.00 0.00 0.02 0.05 0.04 0.02 0.03 0.04 0.04 0.04 0.04 0.04 0.06 0.08 0.11 0.11 0.15 0.19 0.20 0.18 0.15
0.01 0.01 0.01 0.00 0.01 0.03 0.05 0.05 0.07 0.06 0.04 0.03 0.04 0.04 0.05 0.09 0.15 0.12 0.08 0.07 0.07 0.08 0.09 0.07 0.06 0.03 0.03 0.02 0.02 0.03 0.05 0.02 0.01 0.02 0.03 0.03 0.03 0.04 0.03 0.04 0.03 0.04 0.05 0.05 0.04 0.03 0.05 0.05 0.06 0.14 0.09 0.09 0.12 0.12
0.01 0.01 0.01 0.01 0.03 0.05 0.04 0.02 0.04 0.07 0.07 0.04 0.05 0.06 0.12 0.11 0.11 0.07 0.07 0.10 0.06 0.06 0.04 0.03 0.02 0.02 0.01 0.02 0.02 0.02 0.03 0.02 0.02 0.02 0.02 0.03 0.03 0.03 0.03 0.03 0.03 0.04 0.04 0.05 0.05 0.06 0.06 0.06 0.09 0.10 0.06 0.06 0.08 0.07
0.01 0.02 0.02 0.04 0.07 0.03 0.01 0.03 0.06 0.10 0.08 0.06 0.08 0.06 0.09 0.09 0.07 0.07 0.05 0.06 0.03 0.02 0.02 0.02 0.02 0.03 0.03 0.02 0.03 0.03 0.03 0.03 0.02 0.02 0.02 0.03 0.03 0.02 0.02 0.02 0.03 0.05 0.05 0.05 0.06 0.07 0.08 0.08 0.08 0.08 0.08 0.07 0.07 0.06
0.02 0.01 0.01 0.01 0.02 0.03 0.02 0.01 0.02 0.03 0.05 0.06 0.09 0.07 0.08 0.08 0.07 0.08 0.07 0.04 0.02 0.02 0.02 0.02 0.02 0.03 0.05 0.02 0.01 0.02 0.01 0.01 0.01 0.01 0.02 0.03 0.02 0.02 0.02 0.03 0.04 0.05 0.05 0.06 0.07 0.08 0.07 0.07 0.07 0.07 0.06 0.06 0.04 0.04

GFSWCAN_prec_precacc_039.txt.gz
Total_Precipitation_Accumulation
0.52 0.39 0.43 0.35 0.26 0.24 0.17 0.30 0.27 0.24 0.23 0.30 0.20 0.17 0.10 0.05 0.05 0.26 0.33 0.51 0.69 0.38 0.07 0.08 0.03 0.00 0.01 0.01 0.01 0.01 0.10 0.07 0.09 0.10 0.04 0.00 0.00 0.00 0.00 0.00 0.00 0.00 0.00 0.00 0.00 0.00 0.01 0.00 0.00 0.01 0.02 0.02 0.00 0.00
0.77 0.61 0.38 0.23 0.29 0.20 0.23 0.27 0.22 0.19 0.21 0.29 0.18 0.14 0.07 0.04 0.06 0.25 0.31 0.34 0.51 0.60 0.20 0.08 0.03 0.00 0.00 0.00 0.01 0.01 0.02 0.01 0.02 0.04 0.02 0.02 0.00 0.00 0.00 0.00 0.00 0.00 0.00 0.00 0.01 0.00 0.00 0.00 0.02 0.02 0.01 0.01 0.00 0.00
0.99 0.57 0.30 0.23 0.22 0.27 0.25 0.19 0.16 0.20 0.18 0.25 0.19 0.14 0.08 0.07 0.11 0.25 0.27 0.31 0.92 0.71 0.44 0.14 0.03 0.03 0.02 0.01 0.02 0.03 0.00 0.01 0.03 0.03 0.04 0.02 0.02 0.00 0.00 0.00 0.00 0.00 0.00 0.00 0.01 0.00 0.00 0.01 0.01 0.01 0.00 0.00 0.00 0.00
0.71 0.57 0.32 0.21 0.22 0.26 0.22 0.15 0.15 0.18 0.16 0.26 0.19 0.13 0.09 0.08 0.16 0.31 0.25 0.58 1.41 1.02 0.90 0.40 0.06 0.08 0.04 0.02 0.00 0.01 0.02 0.02 0.02 0.04 0.05 0.04 0.02 0.00 0.00 0.00 0.00 0.00 0.00 0.01 0.01 0.00 0.00 0.01 0.01 0.00 0.00 0.01 0.01 0.01
0.61 0.50 0.37 0.22 0.21 0.22 0.18 0.11 0.13 0.19 0.27 0.28 0.19 0.12 0.09 0.10 0.24 0.33 0.28 0.71 1.01 0.99 0.90 0.68 0.16 0.07 0.10 0.09 0.05 0.02 0.01 0.00 0.01 0.06 0.05 0.02 0.00 0.00 0.01 0.00 0.00 0.00 0.00 0.01 0.01 0.01 0.01 0.03 0.02 0.01 0.02 0.02 0.02 0.00
0.72 0.53 0.35 0.17 0.14 0.15 0.13 0.12 0.15 0.24 0.30 0.26 0.17 0.12 0.10 0.16 0.41 0.47 0.69 0.53 0.71 0.62 0.81 0.78 0.45 0.10 0.13 0.12 0.26 0.10 0.05 0.04 0.03 0.04 0.02 0.00 0.00 0.01 0.01 0.00 0.00 0.00 0.00 0.00 0.01 0.01 0.03 0.02 0.01 0.00 0.00 0.00 0.00 0.00
0.66 0.47 0.31 0.21 0.13 0.12 0.11 0.12 0.16 0.19 0.19 0.20 0.15 0.13 0.15 0.22 0.58 0.60 0.80 0.62 0.45 0.52 0.68 0.68 0.52 0.29 0.14 0.15 0.23 0.34 0.21 0.26 0.13 0.07 0.02 0.00 0.01 0.04 0.02 0.01 0.00 0.00 0.00 0.00 0.00 0.02 0.03 0.01 0.01 0.00 0.00 0.00 0.00 0.00
0.63 0.43 0.28 0.18 0.14 0.12 0.12 0.13 0.16 0.16 0.16 0.14 0.15 0.16 0.20 0.40 0.77 0.46 0.54 0.48 0.51 0.48 0.48 0.50 0.37 0.40 0.19 0.19 0.16 0.27 0.28 0.41 0.41 0.17 0.04 0.01 0.03 0.06 0.03 0.00 0.00 0.00 0.00 0.00 0.01 0.02 0.01 0.01 0.00 0.00 0.00 0.00 0.00 0.01
0.27 0.18 0.14 0.10 0.12 0.16 0.17 0.17 0.16 0.13 0.14 0.16 0.19 0.23 0.47 0.88 0.97 0.60 0.54 0.75 0.70 0.56 0.51 0.22 0.19 0.31 0.33 0.24 0.23 0.15 0.23 0.18 0.22 0.30 0.27 0.12 0.02 0.02 0.01 0.00 0.00 0.00 0.00 0.01 0.00 0.00 0.00 0.00 0.00 0.00 0.00 0.02 0.06 0.17
0.20 0.16 0.11 0.08 0.14 0.19 0.18 0.15 0.14 0.19 0.27 0.39 0.53 0.72 0.97 0.94 0.73 0.64 0.63 0.72 0.49 0.25 0.17 0.13 0.09 0.12 0.33 0.31 0.27 0.15 0.23 0.17 0.15 0.11 0.06 0.17 0.16 0.02 0.00 0.00 0.00 0.00 0.00 0.00 0.00 0.00 0.01 0.01 0.01 0.02 0.05 0.12 0.20 0.16
0.20 0.13 0.09 0.11 0.14 0.11 0.14 0.13 0.13 0.26 0.81 1.12 1.19 1.06 0.99 0.92 0.76 0.75 0.64 0.54 0.30 0.09 0.04 0.06 0.06 0.07 0.12 0.26 0.14 0.11 0.13 0.12 0.05 0.02 0.02 0.01 0.01 0.01 0.01 0.01 0.01 0.01 0.01 0.01 0.01 0.01 0.03 0.06 0.14 0.26 0.26 0.15 0.05 0.02
0.19 0.13 0.08 0.10 0.09 0.06 0.11 0.14 0.17 0.33 0.80 1.16 0.97 0.83 1.02 1.16 0.90 0.81 0.78 0.35 0.10 0.03 0.01 0.03 0.04 0.05 0.10 0.10 0.11 0.12 0.15 0.12 0.08 0.01 0.05 0.03 0.01 0.02 0.03 0.02 0.02 0.01 0.01 0.01 0.04 0.11 0.18 0.23 0.23 0.11 0.03 0.02 0.02 0.02
0.21 0.16 0.13 0.14 0.07 0.05 0.06 0.13 0.29 0.54 0.68 0.82 1.07 1.25 1.41 1.43 1.37 0.96 0.50 0.17 0.04 0.01 0.01 0.01 0.02 0.05 0.07 0.07 0.16 0.28 0.38 0.28 0.11 0.09 0.06 0.06 0.05 0.07 0.08 0.08 0.07 0.07 0.09 0.15 0.21 0.18 0.11 0.05 0.03 0.03 0.03 0.02 0.01 0.01
0.15 0.16 0.20 0.19 0.15 0.16 0.23 0.39 0.59 0.52 0.41 0.80 1.10 1.35 1.29 1.13 0.72 0.51 0.22 0.08 0.07 0.06 0.03 0.02 0.06 0.08 0.11 0.15 0.37 0.60 0.62 0.34 0.34 0.19 0.12 0.15 0.24 0.33 0.21 0.13 0.10 0.07 0.05 0.03 0.01 0.01 0.01 0.01 0.01 0.00 0.00 0.00 0.00 0.00
0.07 0.09 0.11 0.19 0.23 0.29 0.37 0.34 0.34 0.19 0.18 0.27 0.34 0.60 0.57 0.46 0.34 0.25 0.20 0.18 0.19 0.19 0.24 0.29 0.35 0.32 0.31 0.52 0.55 0.42 0.38 0.35 0.29 0.29 0.35 0.36 0.34 0.30 0.10 0.02 0.01 0.00 0.00 0.00 0.00 0.00 0.00 0.00 0.00 0.00 0.00 0.00 0.00 0.00
0.03 0.04 0.04 0.12 0.12 0.11 0.09 0.12 0.08 0.11 0.22 0.20 0.27 0.38 0.34 0.24 0.27 0.30 0.28 0.30 0.30 0.36 0.37 0.41 0.40 0.43 0.50 0.47 0.37 0.34 0.33 0.36 0.37 0.20 0.13 0.11 0.13 0.13 0.12 0.06 0.00 0.01 0.01 0.01 0.00 0.00 0.00 0.00 0.00 0.00 0.00 0.00 0.00 0.00
0.03 0.02 0.01 0.01 0.01 0.03 0.03 0.04 0.09 0.15 0.25 0.18 0.32 0.34 0.28 0.26 0.31 0.33 0.27 0.26 0.21 0.24 0.29 0.22 0.24 0.28 0.29 0.31 0.33 0.30 0.37 0.28 0.20 0.16 0.10 0.11 0.13 0.08 0.05 0.05 0.04 0.04 0.03 0.02 0.01 0.00 0.00 0.00 0.00 0.00 0.00 0.00 0.00 0.00
0.03 0.02 0.00 0.00 0.01 0.01 0.05 0.05 0.11 0.10 0.17 0.26 0.30 0.39 0.25 0.31 0.31 0.29 0.25 0.17 0.15 0.17 0.18 0.21 0.19 0.22 0.31 0.31 0.32 0.28 0.25 0.24 0.19 0.17 0.17 0.22 0.19 0.11 0.07 0.05 0.05 0.04 0.04 0.03 0.01 0.00 0.00 0.00 0.00 0.00 0.00 0.00 0.00 0.01
0.02 0.04 0.01 0.02 0.01 0.02 0.06 0.08 0.03 0.11 0.28 0.31 0.32 0.27 0.19 0.22 0.20 0.17 0.13 0.10 0.08 0.07 0.07 0.12 0.16 0.21 0.28 0.30 0.35 0.32 0.28 0.24 0.19 0.16 0.15 0.17 0.13 0.08 0.07 0.06 0.07 0.07 0.05 0.02 0.00 0.00 0.00 0.00 0.00 0.00 0.00 0.01 0.01 0.02
0.01 0.04 0.07 0.11 0.01 0.00 0.01 0.01 0.01 0.06 0.16 0.20 0.18 0.09 0.05 0.08 0.04 0.02 0.02 0.00 0.00 0.01 0.04 0.12 0.25 0.30 0.31 0.32 0.34 0.32 0.26 0.17 0.10 0.07 0.12 0.17 0.14 0.11 0.13 0.11 0.08 0.06 0.04 0.02 0.01 0.01 0.00 0.01 0.02 0.02 0.03 0.03 0.02 0.02
0.04 0.16 0.23 0.21 0.16 0.01 0.00 0.00 0.01 0.02 0.03 0.02 0.03 0.01 0.00 0.01 0.01 0.01 0.01 0.00 0.01 0.05 0.14 0.21 0.24 0.21 0.16 0.15 0.17 0.19 0.17 0.15 0.14 0.11 0.09 0.11 0.15 0.11 0.13 0.12 0.11 0.12 0.10 0.10 0.10 0.10 0.09 0.10 0.07 0.06 0.05 0.02 0.01 0.01
0.07 0.21 0.25 0.27 0.30 0.13 0.02 0.00 0.01 0.01 0.00 0.01 0.01 0.02 0.02 0.03 0.03 0.02 0.01 0.03 0.07 0.17 0.19 0.13 0.10 0.08 0.05 0.06 0.07 0.08 0.14 0.15 0.19 0.25 0.25 0.16 0.16 0.16 0.19 0.22 0.18 0.19 0.18 0.18 0.15 0.13 0.10 0.07 0.07 0.07 0.03 0.01 0.01 0.02
0.18 0.32 0.33 0.29 0.28 0.14 0.09 0.02 0.03 0.00 0.01 0.01 0.02 0.02 0.02 0.02 0.03 0.02 0.04 0.07 0.12 0.15 0.16 0.09 0.08 0.10 0.10 0.14 0.09 0.08 0.07 0.06 0.11 0.21 0.30 0.29 0.27 0.28 0.26 0.25 0.23 0.20 0.16 0.14 0.12 0.10 0.09 0.06 0.03 0.02 0.01 0.03 0.04 0.04
0.24 0.43 0.44 0.33 0.16 0.14 0.08 0.07 0.04 0.03 0.01 0.02 0.02 0.02 0.02 0.03 0.02 0.03 0.04 0.08 0.13 0.06 0.05 0.11 0.12 0.14 0.13 0.13 0.14 0.17 0.20 0.15 0.16 0.19 0.22 0.18 0.17 0.19 0.15 0.12 0.11 0.10 0.10 0.08 0.05 0.03 0.02 0.01 0.02 0.04 0.04 0.04 0.03 0.04
0.41 0.36 0.32 0.26 0.14 0.07 0.04 0.04 0.05 0.04 0.03 0.02 0.03 0.02 0.02 0.02 0.04 0.04 0.05 0.15 0.11 0.10 0.12 0.15 0.14 0.14 0.16 0.18 0.17 0.16 0.14 0.12 0.10 0.10 0.12 0.10 0.10 0.08 0.06 0.05 0.04 0.04 0.04 0.04 0.03 0.03 0.03 0.03 0.03 0.03 0.03 0.04 0.06 0.08
0.36 0.21 0.13 0.09 0.07 0.08 0.05 0.03 0.02 0.03 0.04 0.08 0.09 0.06 0.05 0.08 0.07 0.09 0.12 0.19 0.16 0.16 0.18 0.19 0.19 0.14 0.14 0.13 0.12 0.10 0.08 0.08 0.05 0.04 0.05 0.02 0.04 0.05 0.04 0.03 0.03 0.03 0.04 0.05 0.07 0.06 0.03 0.02 0.03 0.04 0.06 0.06 0.08 0.11
0.16 0.10 0.04 0.03 0.07 0.13 0.18 0.15 0.14 0.16 0.14 0.14 0.11 0.08 0.13 0.17 0.12 0.16 0.16 0.19 0.20 0.21 0.18 0.16 0.12 0.10 0.12 0.10 0.07 0.06 0.02 0.01 0.01 0.02 0.01 0.02 0.03 0.04 0.06 0.09 0.11 0.09 0.03 0.04 0.07 0.09 0.11 0.09 0.08 0.06 0.07 0.08 0.09 0.14
0.06 0.07 0.08 0.11 0.18 0.20 0.18 0.16 0.19 0.20 0.21 0.18 0.15 0.15 0.15 0.13 0.16 0.18 0.19 0.22 0.19 0.12 0.07 0.05 0.03 0.02 0.03 0.04 0.05 0.04 0.02 0.01 0.01 0.01 0.02 0.06 0.07 0.05 0.03 0.05 0.06 0.04 0.04 0.06 0.08 0.08 0.09 0.11 0.11 0.11 0.11 0.13 0.16 0.18
0.09 0.10 0.10 0.10 0.06 0.04 0.07 0.10 0.11 0.11 0.11 0.09 0.08 0.08 0.09 0.09 0.16 0.17 0.16 0.14 0.12 0.09 0.07 0.06 0.09 0.07 0.05 0.02 0.02 0.02 0.01 0.01 0.00 0.00 0.00 0.02 0.05 0.04 0.02 0.03 0.04 0.04 0.04 0.04 0.04 0.06 0.08 0.12 0.11 0.15 0.19 0.20 0.18 0.15
0.01 0.01 0.01 0.00 0.01 0.04 0.06 0.05 0.07 0.07 0.04 0.03 0.04 0.04 0.06 0.11 0.17 0.14 0.09 0.07 0.07 0.09 0.09 0.08 0.06 0.03 0.03 0.02 0.02 0.03 0.05 0.02 0.01 0.02 0.03 0.03 0.03 0.04 0.03 0.04 0.03 0.04 0.05 0.05 0.04 0.03 0.05 0.05 0.06 0.14 0.09 0.09 0.12 0.12
0.01 0.01 0.01 0.01 0.03 0.06 0.05 0.03 0.04 0.07 0.07 0.04 0.05 0.06 0.12 0.12 0.12 0.08 0.07 0.11 0.07 0.06 0.04 0.03 0.02 0.02 0.01 0.02 0.02 0.02 0.03 0.03 0.03 0.03 0.03 0.03 0.03 0.03 0.03 0.03 0.03 0.04 0.04 0.05 0.05 0.06 0.06 0.06 0.09 0.10 0.06 0.06 0.08 0.08
0.01 0.02 0.02 0.04 0.07 0.04 0.03 0.04 0.07 0.11 0.08 0.06 0.08 0.06 0.09 0.09 0.07 0.07 0.06 0.06 0.03 0.02 0.02 0.02 0.02 0.03 0.03 0.03 0.03 0.04 0.03 0.03 0.02 0.02 0.02 0.03 0.03 0.03 0.03 0.02 0.03 0.05 0.05 0.05 0.06 0.07 0.08 0.08 0.08 0.08 0.08 0.07 0.07 0.06
0.02 0.01 0.01 0.01 0.02 0.04 0.02 0.01 0.04 0.04 0.05 0.06 0.09 0.08 0.09 0.08 0.07 0.09 0.07 0.04 0.02 0.02 0.02 0.02 0.02 0.03 0.05 0.02 0.01 0.02 0.01 0.01 0.01 0.01 0.02 0.03 0.02 0.02 0.02 0.03 0.04 0.05 0.05 0.06 0.07 0.08 0.07 0.07 0.07 0.07 0.06 0.06 0.04 0.04

GFSWCAN_prec_precacc_042.txt.gz
Total_Precipitation_Accumulation
0.58 0.45 0.52 0.48 0.43 0.38 0.30 0.42 0.37 0.30 0.27 0.33 0.23 0.18 0.10 0.05 0.06 0.28 0.37 0.61 0.74 0.45 0.10 0.10 0.06 0.02 0.01 0.01 0.01 0.01 0.10 0.07 0.09 0.10 0.04 0.02 0.01 0.00 0.00 0.00 0.00 0.00 0.00 0.00 0.00 0.00 0.01 0.00 0.00 0.01 0.02 0.02 0.00 0.00
0.88 0.72 0.49 0.35 0.39 0.29 0.32 0.34 0.27 0.23 0.25 0.31 0.20 0.15 0.08 0.06 0.08 0.28 0.33 0.47 0.64 0.70 0.23 0.09 0.04 0.01 0.00 0.00 0.01 0.01 0.02 0.01 0.02 0.04 0.02 0.04 0.01 0.00 0.00 0.00 0.00 0.00 0.00 0.00 0.01 0.00 0.00 0.00 0.02 0.02 0.01 0.01 0.00 0.00
1.00 0.59 0.32 0.25 0.24 0.29 0.27 0.21 0.18 0.22 0.20 0.26 0.20 0.15 0.10 0.10 0.14 0.27 0.29 0.42 1.15 0.84 0.46 0.14 0.04 0.05 0.02 0.01 0.02 0.03 0.00 0.01 0.03 0.03 0.05 0.04 0.03 0.00 0.00 0.00 0.00 0.00 0.00 0.00 0.01 0.00 0.00 0.01 0.01 0.01 0.00 0.00 0.00 0.00
0.71 0.57 0.32 0.21 0.23 0.26 0.22 0.16 0.16 0.18 0.17 0.27 0.21 0.16 0.12 0.11 0.19 0.32 0.26 0.72 1.59 1.13 0.93 0.42 0.07 0.09 0.06 0.03 0.00 0.01 0.02 0.03 0.05 0.06 0.07 0.07 0.04 0.01 0.00 0.00 0.00 0.00 0.00 0.01 0.01 0.00 0.00 0.01 0.01 0.00 0.00 0.01 0.01 0.01
0.62 0.50 0.37 0.23 0.22 0.25 0.21 0.13 0.14 0.19 0.27 0.29 0.21 0.15 0.12 0.14 0.26 0.35 0.30 0.84 1.15 1.05 0.95 0.71 0.16 0.07 0.13 0.13 0.08 0.03 0.01 0.00 0.02 0.09 0.07 0.03 0.02 0.01 0.01 0.00 0.00 0.00 0.00 0.01 0.01 0.01 0.01 0.03 0.02 0.01 0.02 0.02 0.02 0.00
0.72 0.54 0.37 0.20 0.18 0.19 0.16 0.15 0.17 0.26 0.32 0.27 0.19 0.14 0.12 0.20 0.45 0.52 0.81 0.68 0.79 0.68 0.89 0.82 0.48 0.10 0.15 0.20 0.35 0.14 0.06 0.04 0.05 0.06 0.04 0.01 0.01 0.03 0.01 0.00 0.00 0.00 0.00 0.00 0.01 0.01 0.03 0.02 0.01 0.00 0.00 0.00 0.00 0.00
0.66 0.48 0.32 0.22 0.15 0.14 0.13 0.15 0.19 0.25 0.28 0.25 0.22 0.16 0.20 0.29 0.61 0.64 0.89 0.67 0.50 0.61 0.77 0.74 0.56 0.30 0.24 0.26 0.33 0.39 0.22 0.27 0.15 0.10 0.04 0.01 0.01 0.05 0.02 0.01 0.00 0.00 0.00 0.00 0.00 0.02 0.03 0.01 0.01 0.00 0.00 0.00 0.00 0.00
0.63 0.43 0.28 0.18 0.15 0.13 0.15 0.17 0.20 0.22 0.25 0.29 0.28 0.23 0.29 0.47 0.80 0.47 0.58 0.54 0.52 0.56 0.62 0.61 0.43 0.43 0.25 0.54 0.25 0.33 0.30 0.43 0.42 0.19 0.04 0.01 0.03 0.06 0.03 0.00 0.00 0.00 0.00 0.00 0.01 0.02 0.01 0.01 0.00 0.00 0.00 0.00 0.00 0.01
0.27 0.18 0.14 0.10 0.12 0.16 0.18 0.17 0.16 0.16 0.25 0.29 0.31 0.39 0.62 0.94 0.99 0.61 0.62 0.82 0.74 0.61 0.61 0.30 0.22 0.32 0.33 0.36 0.30 0.21 0.27 0.22 0.24 0.34 0.29 0.13 0.03 0.02 0.01 0.00 0.00 0.00 0.00 0.01 0.00 0.00 0.00 0.00 0.00 0.00 0.00 0.02 0.06 0.17
0.20 0.16 0.11 0.08 0.14 0.19 0.18 0.15 0.14 0.20 0.31 0.46 0.62 0.78 1.00 0.94 0.75 0.82 0.84 0.87 0.61 0.31 0.21 0.20 0.13 0.13 0.33 0.33 0.34 0.33 0.32 0.21 0.16 0.21 0.24 0.29 0.21 0.09 0.02 0.00 0.00 0.00 0.00 0.00 0.00 0.01 0.01 0.01 0.01 0.03 0.06 0.13 0.21 0.17
0.20 0.13 0.09 0.11 0.14 0.11 0.14 0.13 0.13 0.26 0.81 1.12 1.19 1.11 1.05 0.94 0.79 0.85 0.76 0.67 0.44 0.15 0.06 0.07 0.06 0.08 0.12 0.45 0.44 0.31 0.33 0.37 0.18 0.13 0.18 0.24 0.18 0.09 0.05 0.04 0.04 0.04 0.02 0.01 0.01 0.02 0.03 0.06 0.14 0.27 0.28 0.19 0.09 0.04
0.19 0.13 0.08 0.10 0.09 0.06 0.11 0.14 0.17 0.34 0.81 1.24 1.18 1.06 1.10 1.17 0.92 0.84 0.83 0.45 0.19 0.07 0.03 0.04 0.04 0.06 0.12 0.21 0.52 0.45 0.31 0.29 0.22 0.09 0.12 0.08 0.06 0.09 0.12 0.07 0.03 0.02 0.01 0.01 0.04 0.11 0.18 0.24 0.25 0.14 0.07 0.06 0.03 0.02
0.21 0.16 0.13 0.14 0.07 0.05 0.06 0.14 0.30 0.67 1.01 1.20 1.17 1.34 1.44 1.45 1.41 1.05 0.58 0.23 0.10 0.03 0.04 0.04 0.03 0.05 0.09 0.13 0.31 0.51 0.56 0.37 0.16 0.13 0.10 0.07 0.06 0.08 0.09 0.08 0.07 0.07 0.09 0.15 0.22 0.19 0.13 0.09 0.10 0.09 0.08 0.04 0.02 0.01
0.16 0.16 0.20 0.20 0.17 0.18 0.24 0.42 0.74 0.98 0.75 0.92 1.23 1.46 1.41 1.25 0.80 0.58 0.26 0.11 0.10 0.08 0.05 0.04 0.06 0.08 0.11 0.16 0.38 0.63 0.68 0.38 0.35 0.19 0.13 0.16 0.24 0.33 0.21 0.13 0.10 0.07 0.06 0.07 0.07 0.06 0.05 0.03 0.01 0.00 0.00 0.00 0.00 0.00
0.10 0.12 0.15 0.24 0.28 0.37 0.47 0.47 0.63 0.65 0.51 0.55 0.53 0.73 0.70 0.59 0.44 0.31 0.23 0.19 0.20 0.20 0.25 0.30 0.36 0.33 0.32 0.52 0.55 0.43 0.39 0.36 0.31 0.30 0.37 0.37 0.36 0.31 0.12 0.03 0.03 0.02 0.02 0.02 0.01 0.01 0.01 0.00 0.00 0.00 0.00 0.00 0.00 0.00
0.09 0.16 0.24 0.33 0.36 0.34 0.33 0.41 0.45 0.43 0.31 0.25 0.39 0.54 0.45 0.31 0.31 0.32 0.31 0.31 0.32 0.37 0.38 0.41 0.41 0.44 0.54 0.48 0.38 0.36 0.33 0.38 0.41 0.23 0.16 0.12 0.14 0.14 0.13 0.08 0.02 0.03 0.03 0.03 0.03 0.03 0.01 0.00 0.00 0.00 0.00 0.00 0.00 0.00
0.08 0.07 0.14 0.17 0.18 0.24 0.19 0.18 0.16 0.16 0.25 0.19 0.39 0.44 0.33 0.29 0.35 0.37 0.31 0.30 0.23 0.24 0.29 0.22 0.25 0.30 0.31 0.32 0.35 0.32 0.39 0.32 0.26 0.22 0.15 0.14 0.16 0.11 0.09 0.11 0.11 0.10 0.07 0.05 0.04 0.02 0.01 0.01 0.00 0.00 0.00 0.00 0.00 0.00
0.12 0.07 0.09 0.10 0.14 0.14 0.13 0.12 0.12 0.10 0.20 0.31 0.35 0.47 0.28 0.35 0.33 0.31 0.30 0.21 0.16 0.19 0.19 0.24 0.20 0.23 0.33 0.32 0.34 0.31 0.30 0.31 0.29 0.27 0.27 0.32 0.30 0.20 0.15 0.12 0.12 0.08 0.07 0.06 0.04 0.03 0.03 0.02 0.01 0.00 0.00 0.00 0.00 0.01
0.09 0.14 0.07 0.05 0.04 0.05 0.07 0.09 0.03 0.12 0.32 0.36 0.37 0.30 0.20 0.24 0.23 0.20 0.16 0.12 0.09 0.08 0.09 0.15 0.19 0.24 0.32 0.35 0.41 0.38 0.36 0.33 0.32 0.26 0.23 0.26 0.23 0.18 0.16 0.15 0.14 0.14 0.11 0.07 0.04 0.02 0.02 0.00 0.00 0.00 0.00 0.01 0.01 0.02
0.01 0.05 0.08 0.12 0.04 0.02 0.01 0.01 0.01 0.06 0.19 0.24 0.20 0.09 0.05 0.09 0.05 0.02 0.02 0.00 0.01 0.01 0.06 0.16 0.31 0.38 0.39 0.41 0.44 0.41 0.35 0.29 0.20 0.12 0.16 0.23 0.23 0.19 0.22 0.19 0.16 0.13 0.09 0.08 0.07 0.05 0.03 0.03 0.04 0.03 0.04 0.04 0.03 0.02
0.04 0.16 0.23 0.21 0.16 0.01 0.00 0.00 0.02 0.03 0.04 0.03 0.03 0.01 0.00 0.01 0.01 0.01 0.01 0.00 0.01 0.06 0.16 0.26 0.30 0.28 0.22 0.22 0.24 0.26 0.22 0.20 0.19 0.16 0.15 0.17 0.22 0.17 0.18 0.18 0.17 0.18 0.16 0.16 0.15 0.15 0.14 0.14 0.11 0.09 0.08 0.04 0.03 0.02
0.07 0.21 0.25 0.27 0.30 0.13 0.02 0.00 0.01 0.01 0.00 0.01 0.01 0.02 0.02 0.03 0.03 0.02 0.01 0.03 0.08 0.21 0.23 0.17 0.14 0.12 0.08 0.09 0.10 0.12 0.18 0.18 0.23 0.29 0.29 0.20 0.19 0.20 0.23 0.28 0.22 0.24 0.23 0.23 0.20 0.17 0.14 0.11 0.10 0.09 0.05 0.03 0.03 0.03
0.18 0.32 0.33 0.29 0.28 0.14 0.09 0.02 0.03 0.00 0.01 0.01 0.02 0.02 0.02 0.02 0.03 0.02 0.04 0.07 0.14 0.19 0.20 0.11 0.09 0.10 0.11 0.14 0.09 0.08 0.07 0.06 0.12 0.22 0.31 0.30 0.29 0.31 0.29 0.28 0.27 0.24 0.20 0.18 0.16 0.13 0.12 0.09 0.06 0.03 0.02 0.04 0.05 0.04
0.24 0.43 0.44 0.33 0.16 0.14 0.08 0.07 0.04 0.03 0.01 0.02 0.02 0.03 0.03 0.04 0.02 0.03 0.04 0.09 0.15 0.08 0.06 0.11 0.13 0.14 0.13 0.13 0.14 0.17 0.21 0.15 0.16 0.19 0.23 0.19 0.17 0.20 0.15 0.13 0.12 0.11 0.11 0.09 0.06 0.04 0.03 0.02 0.02 0.04 0.04 0.04 0.03 0.04
0.41 0.36 0.32 0.26 0.14 0.07 0.04 0.04 0.05 0.04 0.03 0.02 0.03 0.03 0.03 0.02 0.04 0.04 0.06 0.16 0.12 0.11 0.13 0.15 0.14 0.14 0.16 0.18 0.18 0.16 0.14 0.12 0.10 0.10 0.13 0.11 0.10 0.08 0.06 0.05 0.04 0.04 0.04 0.04 0.03 0.03 0.03 0.03 0.03 0.03 0.03 0.04 0.06 0.08
0.36 0.21 0.13 0.09 0.07 0.08 0.05 0.03 0.03 0.03 0.04 0.08 0.09 0.07 0.05 0.08 0.07 0.10 0.13 0.20 0.17 0.18 0.19 0.20 0.19 0.15 0.14 0.13 0.12 0.10 0.08 0.08 0.05 0.04 0.05 0.02 0.04 0.05 0.04 0.03 0.03 0.03 0.04 0.05 0.07 0.06 0.03 0.02 0.03 0.04 0.06 0.06 0.08 0.12
0.16 0.10 0.04 0.03 0.07 0.13 0.18 0.15 0.14 0.16 0.15 0.15 0.11 0.08 0.13 0.17 0.13 0.17 0.17 0.20 0.20 0.22 0.19 0.17 0.12 0.10 0.12 0.10 0.07 0.06 0.02 0.01 0.01 0.02 0.01 0.02 0.03 0.04 0.06 0.09 0.12 0.09 0.04 0.05 0.07 0.09 0.11 0.09 0.08 0.06 0.07 0.08 0.09 0.14
0.06 0.07 0.08 0.11 0.18 0.20 0.18 0.16 0.19 0.21 0.22 0.19 0.16 0.15 0.15 0.14 0.16 0.20 0.21 0.25 0.20 0.13 0.07 0.06 0.03 0.02 0.03 0.04 0.05 0.05 0.02 0.01 0.01 0.01 0.02 0.06 0.07 0.05 0.03 0.05 0.06 0.04 0.04 0.07 0.08 0.08 0.09 0.12 0.12 0.11 0.11 0.14 0.16 0.18
0.09 0.10 0.10 0.10 0.06 0.04 0.07 0.10 0.11 0.12 0.12 0.09 0.08 0.09 0.09 0.10 0.18 0.19 0.18 0.16 0.13 0.09 0.07 0.06 0.10 0.07 0.05 0.02 0.02 0.02 0.01 0.01 0.00 0.00 0.00 0.02 0.05 0.04 0.03 0.03 0.04 0.04 0.04 0.04 0.04 0.06 0.08 0.13 0.11 0.16 0.19 0.21 0.18 0.15
0.01 0.01 0.01 0.00 0.02 0.04 0.06 0.05 0.07 0.07 0.04 0.03 0.04 0.05 0.06 0.12 0.19 0.16 0.10 0.08 0.07 0.09 0.10 0.08 0.07 0.04 0.03 0.02 0.02 0.03 0.06 0.02 0.01 0.02 0.03 0.03 0.04 0.04 0.03 0.04 0.03 0.04 0.05 0.05 0.04 0.03 0.05 0.05 0.06 0.14 0.09 0.09 0.12 0.12
0.01 0.01 0.01 0.01 0.04 0.07 0.05 0.03 0.04 0.07 0.07 0.04 0.05 0.06 0.12 0.12 0.13 0.09 0.08 0.12 0.07 0.06 0.04 0.03 0.02 0.02 0.01 0.02 0.02 0.02 0.03 0.03 0.03 0.03 0.03 0.03 0.03 0.03 0.03 0.03 0.03 0.05 0.05 0.05 0.06 0.06 0.06 0.07 0.09 0.11 0.06 0.06 0.08 0.08
0.01 0.02 0.02 0.04 0.08 0.05 0.03 0.05 0.07 0.11 0.08 0.06 0.08 0.06 0.09 0.09 0.07 0.08 0.06 0.07 0.03 0.02 0.02 0.02 0.03 0.04 0.03 0.03 0.03 0.04 0.04 0.03 0.02 0.02 0.03 0.03 0.03 0.03 0.03 0.02 0.03 0.05 0.05 0.06 0.06 0.08 0.08 0.08 0.08 0.08 0.08 0.07 0.07 0.06
0.02 0.01 0.01 0.01 0.03 0.05 0.03 0.03 0.05 0.05 0.06 0.07 0.10 0.08 0.09 0.08 0.07 0.09 0.08 0.04 0.02 0.02 0.02 0.02 0.02 0.04 0.05 0.02 0.01 0.02 0.01 0.01 0.01 0.01 0.03 0.03 0.02 0.02 0.02 0.03 0.04 0.05 0.06 0.06 0.08 0.08 0.07 0.07 0.07 0.07 0.06 0.06 0.05 0.04

GFSWCAN_prec_precacc_045.txt.gz
Total_Precipitation_Accumulation
0.61 0.48 0.55 0.50 0.45 0.40 0.32 0.45 0.44 0.45 0.46 0.48 0.31 0.25 0.14 0.07 0.08 0.29 0.37 0.70 0.81 0.48 0.18 0.17 0.09 0.03 0.01 0.01 0.01 0.01 0.10 0.07 0.09 0.10 0.04 0.02 0.01 0.00 0.01 0.00 0.00 0.00 0.00 0.00 0.00 0.00 0.01 0.00 0.00 0.01 0.02 0.02 0.00 0.00
0.94 0.78 0.54 0.39 0.43 0.34 0.37 0.41 0.39 0.38 0.39 0.44 0.30 0.21 0.12 0.09 0.12 0.29 0.33 0.53 0.78 0.73 0.31 0.20 0.10 0.04 0.00 0.00 0.01 0.01 0.02 0.01 0.02 0.04 0.02 0.04 0.01 0.00 0.00 0.00 0.00 0.00 0.00 0.00 0.01 0.00 0.00 0.00 0.02 0.02 0.01 0.01 0.00 0.00
1.02 0.65 0.40 0.33 0.33 0.40 0.36 0.31 0.30 0.35 0.33 0.36 0.29 0.22 0.16 0.15 0.18 0.28 0.29 0.43 1.25 0.95 0.47 0.15 0.08 0.10 0.05 0.02 0.02 0.03 0.00 0.01 0.03 0.03 0.05 0.04 0.03 0.00 0.00 0.00 0.00 0.00 0.00 0.00 0.01 0.00 0.00 0.01 0.01 0.01 0.00 0.00 0.00 0.00
0.72 0.58 0.34 0.25 0.29 0.34 0.30 0.25 0.25 0.29 0.27 0.36 0.29 0.22 0.15 0.15 0.21 0.33 0.27 0.73 1.63 1.24 0.95 0.42 0.09 0.10 0.09 0.08 0.01 0.01 0.02 0.03 0.05 0.06 0.07 0.07 0.04 0.01 0.00 0.00 0.00 0.00 0.01 0.01 0.01 0.00 0.00 0.01 0.01 0.00 0.00 0.01 0.01 0.01
0.62 0.51 0.37 0.23 0.23 0.26 0.24 0.17 0.20 0.25 0.34 0.36 0.27 0.18 0.13 0.16 0.28 0.35 0.31 0.85 1.17 1.15 1.06 0.72 0.16 0.09 0.13 0.14 0.10 0.03 0.01 0.00 0.02 0.10 0.08 0.03 0.02 0.02 0.02 0.01 0.00 0.00 0.00 0.02 0.01 0.01 0.01 0.03 0.02 0.01 0.02 0.02 0.02 0.00
0.72 0.54 0.38 0.20 0.18 0.19 0.16 0.15 0.18 0.28 0.34 0.30 0.21 0.16 0.13 0.22 0.46 0.53 0.83 0.70 0.85 0.78 1.08 0.86 0.49 0.12 0.17 0.22 0.41 0.16 0.07 0.04 0.05 0.06 0.05 0.02 0.01 0.03 0.02 0.00 0.00 0.00 0.00 0.01 0.01 0.01 0.03 0.02 0.01 0.00 0.00 0.00 0.00 0.00
0.67 0.48 0.33 0.22 0.15 0.14 0.13 0.15 0.19 0.25 0.28 0.25 0.22 0.17 0.21 0.32 0.62 0.67 0.91 0.68 0.54 0.78 0.94 0.77 0.58 0.31 0.27 0.32 0.35 0.43 0.25 0.29 0.15 0.11 0.04 0.01 0.02 0.05 0.02 0.01 0.00 0.00 0.00 0.01 0.00 0.02 0.03 0.01 0.01 0.00 0.00 0.00 0.00 0.00
0.63 0.44 0.28 0.18 0.15 0.14 0.16 0.17 0.21 0.22 0.26 0.29 0.28 0.24 0.30 0.50 0.82 0.50 0.60 0.54 0.66 0.83 0.76 0.67 0.47 0.46 0.27 0.58 0.30 0.34 0.31 0.45 0.45 0.20 0.05 0.01 0.04 0.07 0.03 0.00 0.00 0.00 0.00 0.00 0.01 0.02 0.01 0.01 0.00 0.00 0.00 0.00 0.00 0.01
0.27 0.18 0.14 0.10 0.12 0.17 0.19 0.18 0.17 0.17 0.27 0.31 0.33 0.43 0.71 1.00 1.01 0.61 0.65 0.86 0.80 0.75 0.74 0.36 0.31 0.35 0.36 0.55 0.71 0.33 0.32 0.28 0.26 0.34 0.29 0.13 0.03 0.02 0.01 0.00 0.00 0.00 0.00 0.01 0.00 0.00 0.00 0.00 0.00 0.00 0.00 0.02 0.06 0.17
0.20 0.16 0.11 0.08 0.14 0.20 0.18 0.16 0.15 0.22 0.35 0.52 0.71 1.02 1.15 0.97 0.78 0.86 0.92 0.98 0.79 0.38 0.27 0.26 0.16 0.13 0.33 0.36 0.63 0.86 0.54 0.25 0.16 0.21 0.24 0.29 0.21 0.09 0.02 0.00 0.00 0.00 0.00 0.01 0.01 0.01 0.02 0.02 0.02 0.03 0.06 0.13 0.21 0.18
0.20 0.13 0.09 0.12 0.15 0.13 0.16 0.15 0.14 0.27 0.86 1.22 1.39 1.28 1.07 1.01 0.84 0.90 0.88 0.89 0.58 0.24 0.08 0.09 0.09 0.09 0.12 0.45 0.47 0.40 0.47 0.58 0.27 0.14 0.18 0.24 0.18 0.09 0.05 0.04 0.05 0.06 0.06 0.05 0.04 0.03 0.04 0.07 0.15 0.27 0.28 0.19 0.11 0.10
0.19 0.13 0.08 0.10 0.12 0.09 0.13 0.16 0.23 0.42 0.92 1.37 1.25 1.10 1.16 1.21 0.93 0.87 0.99 0.65 0.32 0.10 0.04 0.06 0.05 0.06 0.12 0.21 0.52 0.49 0.36 0.33 0.35 0.20 0.17 0.11 0.06 0.09 0.18 0.20 0.18 0.15 0.13 0.12 0.12 0.17 0.22 0.25 0.26 0.14 0.08 0.08 0.11 0.13
0.21 0.16 0.13 0.14 0.08 0.09 0.12 0.22 0.38 0.77 1.20 1.33 1.25 1.37 1.45 1.46 1.41 1.07 0.64 0.28 0.15 0.05 0.05 0.06 0.05 0.06 0.09 0.13 0.33 0.58 0.71 0.46 0.21 0.24 0.28 0.21 0.15 0.15 0.15 0.11 0.11 0.11 0.13 0.19 0.23 0.20 0.13 0.09 0.11 0.12 0.15 0.16 0.13 0.11
0.16 0.16 0.20 0.20 0.17 0.19 0.26 0.45 0.89 1.28 1.00 1.19 1.35 1.47 1.46 1.29 0.86 0.63 0.30 0.15 0.18 0.15 0.10 0.08 0.08 0.10 0.12 0.20 0.41 0.64 0.72 0.47 0.45 0.29 0.22 0.26 0.37 0.43 0.27 0.16 0.11 0.08 0.07 0.08 0.09 0.09 0.10 0.12 0.13 0.13 0.10 0.07 0.04 0.02
0.10 0.12 0.15 0.25 0.30 0.39 0.47 0.50 0.76 0.84 0.68 0.66 0.54 0.77 0.77 0.67 0.56 0.45 0.32 0.29 0.28 0.31 0.34 0.37 0.44 0.35 0.36 0.57 0.61 0.44 0.42 0.40 0.35 0.36 0.43 0.43 0.40 0.36 0.16 0.08 0.08 0.10 0.12 0.13 0.12 0.09 0.09 0.09 0.06 0.05 0.03 0.01 0.00 0.00
0.10 0.19 0.28 0.35 0.39 0.36 0.35 0.46 0.56 0.59 0.36 0.27 0.45 0.62 0.58 0.50 0.51 0.47 0.39 0.38 0.36 0.42 0.43 0.44 0.46 0.45 0.59 0.51 0.39 0.39 0.36 0.40 0.44 0.28 0.22 0.20 0.21 0.21 0.21 0.17 0.14 0.15 0.13 0.11 0.09 0.07 0.06 0.04 0.02 0.00 0.00 0.00 0.00 0.00
0.10 0.10 0.18 0.24 0.27 0.33 0.31 0.30 0.28 0.22 0.28 0.26 0.55 0.62 0.49 0.41 0.43 0.43 0.35 0.33 0.26 0.25 0.30 0.22 0.26 0.32 0.33 0.34 0.37 0.35 0.43 0.38 0.33 0.30 0.24 0.23 0.25 0.19 0.18 0.21 0.21 0.18 0.12 0.07 0.06 0.04 0.03 0.01 0.00 0.00 0.00 0.00 0.00 0.00
0.15 0.09 0.13 0.17 0.20 0.21 0.25 0.18 0.13 0.10 0.23 0.37 0.41 0.55 0.34 0.39 0.37 0.34 0.33 0.24 0.17 0.19 0.20 0.25 0.21 0.24 0.34 0.34 0.37 0.36 0.35 0.38 0.40 0.41 0.38 0.42 0.40 0.30 0.25 0.20 0.20 0.14 0.11 0.11 0.09 0.08 0.07 0.05 0.04 0.03 0.01 0.01 0.00 0.01
0.26 0.27 0.18 0.15 0.15 0.10 0.09 0.09 0.03 0.13 0.35 0.39 0.40 0.31 0.21 0.25 0.24 0.21 0.16 0.12 0.09 0.08 0.09 0.16 0.19 0.26 0.35 0.39 0.46 0.44 0.43 0.42 0.41 0.37 0.31 0.34 0.32 0.28 0.25 0.22 0.21 0.20 0.16 0.13 0.09 0.07 0.07 0.06 0.05 0.03 0.02 0.01 0.01 0.02
0.24 0.29 0.27 0.29 0.15 0.06 0.01 0.01 0.01 0.07 0.20 0.24 0.20 0.09 0.05 0.09 0.05 0.02 0.02 0.00 0.01 0.01 0.07 0.16 0.35 0.43 0.45 0.47 0.51 0.49 0.43 0.37 0.29 0.18 0.21 0.29 0.30 0.26 0.29 0.25 0.21 0.18 0.14 0.13 0.12 0.11 0.09 0.08 0.09 0.08 0.07 0.07 0.06 0.05
0.11 0.25 0.32 0.27 0.17 0.02 0.00 0.00 0.02 0.03 0.05 0.04 0.03 0.01 0.00 0.01 0.01 0.01 0.01 0.00 0.01 0.06 0.18 0.30 0.34 0.32 0.27 0.28 0.30 0.32 0.29 0.27 0.25 0.20 0.19 0.22 0.28 0.22 0.24 0.24 0.22 0.23 0.21 0.21 0.19 0.20 0.18 0.18 0.15 0.13 0.11 0.07 0.06 0.05
0.07 0.21 0.25 0.27 0.30 0.13 0.02 0.00 0.01 0.01 0.00 0.01 0.01 0.02 0.02 0.03 0.03 0.02 0.01 0.03 0.10 0.24 0.27 0.20 0.16 0.14 0.11 0.12 0.14 0.15 0.22 0.22 0.27 0.32 0.33 0.24 0.23 0.23 0.27 0.33 0.26 0.27 0.26 0.27 0.23 0.20 0.17 0.14 0.13 0.11 0.07 0.05 0.04 0.04
0.18 0.32 0.33 0.29 0.28 0.14 0.09 0.02 0.03 0.00 0.01 0.01 0.02 0.02 0.02 0.02 0.03 0.02 0.04 0.08 0.16 0.22 0.23 0.13 0.10 0.11 0.12 0.15 0.10 0.08 0.07 0.07 0.12 0.23 0.32 0.31 0.30 0.31 0.30 0.29 0.27 0.24 0.21 0.20 0.18 0.15 0.13 0.10 0.06 0.04 0.03 0.04 0.05 0.04
0.24 0.43 0.44 0.33 0.16 0.14 0.08 0.07 0.04 0.03 0.01 0.02 0.02 0.03 0.04 0.04 0.02 0.03 0.05 0.10 0.17 0.10 0.06 0.12 0.13 0.14 0.13 0.13 0.14 0.18 0.21 0.15 0.16 0.20 0.23 0.19 0.17 0.20 0.15 0.13 0.12 0.11 0.11 0.09 0.06 0.04 0.03 0.02 0.02 0.04 0.04 0.04 0.03 0.04
0.41 0.36 0.32 0.26 0.14 0.07 0.04 0.04 0.05 0.04 0.03 0.02 0.03 0.04 0.04 0.02 0.04 0.04 0.06 0.16 0.12 0.12 0.13 0.16 0.14 0.14 0.16 0.18 0.18 0.16 0.14 0.12 0.10 0.10 0.13 0.11 0.10 0.08 0.06 0.05 0.04 0.04 0.04 0.04 0.03 0.03 0.03 0.03 0.03 0.03 0.03 0.04 0.06 0.08
0.36 0.21 0.13 0.09 0.07 0.08 0.05 0.03 0.03 0.04 0.04 0.08 0.10 0.08 0.05 0.08 0.07 0.10 0.14 0.21 0.18 0.19 0.20 0.20 0.20 0.15 0.14 0.13 0.12 0.11 0.08 0.08 0.05 0.04 0.05 0.02 0.04 0.05 0.04 0.03 0.03 0.03 0.04 0.05 0.07 0.06 0.03 0.02 0.03 0.04 0.06 0.06 0.08 0.12
0.16 0.10 0.04 0.03 0.07 0.13 0.18 0.15 0.14 0.16 0.15 0.15 0.11 0.08 0.13 0.17 0.13 0.18 0.18 0.21 0.21 0.23 0.19 0.17 0.12 0.10 0.12 0.11 0.08 0.06 0.02 0.01 0.01 0.02 0.01 0.02 0.03 0.04 0.06 0.09 0.12 0.10 0.04 0.05 0.07 0.09 0.11 0.09 0.08 0.06 0.08 0.08 0.09 0.14
0.06 0.07 0.08 0.11 0.18 0.20 0.18 0.16 0.19 0.21 0.22 0.20 0.16 0.15 0.15 0.14 0.17 0.21 0.23 0.26 0.20 0.13 0.07 0.06 0.03 0.02 0.03 0.05 0.05 0.05 0.02 0.01 0.01 0.01 0.02 0.06 0.07 0.05 0.03 0.05 0.06 0.04 0.04 0.07 0.08 0.08 0.10 0.12 0.12 0.11 0.12 0.14 0.16 0.18
0.09 0.10 0.10 0.10 0.06 0.04 0.07 0.11 0.12 0.13 0.12 0.10 0.08 0.09 0.09 0.10 0.18 0.20 0.20 0.17 0.14 0.09 0.07 0.06 0.10 0.07 0.05 0.02 0.02 0.02 0.01 0.01 0.00 0.00 0.00 0.02 0.05 0.04 0.03 0.03 0.04 0.04 0.04 0.04 0.04 0.06 0.08 0.13 0.12 0.16 0.19 0.21 0.18 0.15
0.01 0.01 0.01 0.00 0.02 0.04 0.07 0.05 0.07 0.07 0.04 0.03 0.04 0.05 0.06 0.12 0.21 0.17 0.11 0.09 0.08 0.09 0.10 0.08 0.07 0.04 0.03 0.02 0.02 0.03 0.06 0.02 0.01 0.02 0.03 0.03 0.04 0.04 0.03 0.04 0.03 0.04 0.05 0.05 0.04 0.03 0.05 0.05 0.06 0.14 0.09 0.09 0.12 0.12
0.01 0.01 0.01 0.01 0.04 0.08 0.05 0.03 0.04 0.07 0.07 0.04 0.05 0.06 0.12 0.13 0.14 0.10 0.08 0.12 0.07 0.06 0.04 0.03 0.02 0.02 0.01 0.02 0.02 0.02 0.03 0.03 0.03 0.03 0.03 0.03 0.03 0.03 0.03 0.03 0.03 0.05 0.05 0.05 0.06 0.06 0.06 0.07 0.09 0.11 0.06 0.06 0.08 0.08
0.01 0.03 0.02 0.05 0.09 0.06 0.04 0.06 0.07 0.11 0.08 0.06 0.08 0.06 0.09 0.09 0.07 0.08 0.07 0.07 0.03 0.02 0.02 0.02 0.03 0.04 0.03 0.03 0.03 0.04 0.04 0.03 0.02 0.02 0.03 0.04 0.03 0.03 0.03 0.02 0.03 0.05 0.05 0.06 0.06 0.08 0.08 0.08 0.08 0.08 0.08 0.07 0.07 0.06
0.02 0.01 0.01 0.01 0.03 0.06 0.04 0.03 0.05 0.05 0.06 0.07 0.10 0.08 0.09 0.08 0.07 0.09 0.08 0.04 0.02 0.02 0.02 0.02 0.02 0.04 0.05 0.02 0.01 0.02 0.01 0.01 0.01 0.01 0.03 0.04 0.02 0.02 0.02 0.03 0.04 0.05 0.06 0.06 0.08 0.08 0.07 0.07 0.07 0.07 0.06 0.06 0.05 0.04

GFSWCAN_prec_precacc_048.txt.gz
Total_Precipitation_Accumulation
0.62 0.48 0.55 0.53 0.48 0.44 0.42 0.49 0.47 0.49 0.49 0.53 0.39 0.36 0.31 0.20 0.15 0.30 0.38 0.71 0.84 0.53 0.23 0.23 0.16 0.11 0.03 0.03 0.02 0.01 0.10 0.07 0.10 0.10 0.04 0.02 0.01 0.00 0.01 0.00 0.01 0.00 0.00 0.00 0.00 0.00 0.01 0.00 0.00 0.01 0.02 0.02 0.00 0.00
0.96 0.78 0.55 0.40 0.44 0.37 0.40 0.44 0.41 0.41 0.45 0.53 0.39 0.33 0.26 0.20 0.16 0.30 0.37 0.53 0.79 0.74 0.42 0.28 0.12 0.08 0.02 0.00 0.01 0.01 0.02 0.01 0.02 0.04 0.02 0.04 0.01 0.00 0.00 0.00 0.00 0.00 0.00 0.00 0.01 0.00 0.00 0.00 0.02 0.02 0.01 0.01 0.00 0.00
1.06 0.68 0.40 0.33 0.33 0.41 0.38 0.34 0.35 0.41 0.42 0.49 0.39 0.34 0.28 0.24 0.25 0.30 0.31 0.44 1.26 0.97 0.49 0.24 0.18 0.14 0.09 0.02 0.02 0.03 0.00 0.01 0.03 0.03 0.05 0.04 0.03 0.00 0.00 0.00 0.00 0.00 0.00 0.00 0.01 0.00 0.00 0.01 0.01 0.01 0.00 0.00 0.00 0.00
0.74 0.62 0.38 0.28 0.32 0.36 0.33 0.31 0.35 0.38 0.41 0.50 0.43 0.38 0.31 0.30 0.38 0.35 0.27 0.73 1.63 1.25 0.96 0.45 0.19 0.16 0.14 0.09 0.01 0.01 0.02 0.03 0.06 0.06 0.07 0.07 0.04 0.01 0.00 0.00 0.00 0.00 0.01 0.01 0.01 0.00 0.00 0.01 0.01 0.00 0.00 0.01 0.01 0.01
0.63 0.53 0.42 0.27 0.27 0.31 0.30 0.23 0.27 0.36 0.50 0.51 0.43 0.33 0.31 0.33 0.34 0.36 0.31 0.85 1.17 1.15 1.08 0.72 0.19 0.20 0.30 0.21 0.14 0.03 0.01 0.00 0.03 0.11 0.08 0.03 0.02 0.02 0.02 0.01 0.00 0.00 0.00 0.02 0.01 0.02 0.01 0.03 0.02 0.01 0.02 0.02 0.02 0.00
0.72 0.55 0.38 0.22 0.21 0.23 0.21 0.22 0.27 0.39 0.45 0.41 0.30 0.26 0.21 0.25 0.47 0.54 0.86 0.72 0.86 0.78 1.09 0.86 0.50 0.14 0.28 0.31 0.47 0.20 0.08 0.05 0.05 0.08 0.06 0.02 0.01 0.03 0.02 0.00 0.00 0.00 0.00 0.01 0.02 0.02 0.03 0.02 0.01 0.00 0.00 0.00 0.00 0.00
0.67 0.48 0.33 0.23 0.17 0.18 0.18 0.20 0.26 0.33 0.37 0.33 0.28 0.20 0.22 0.32 0.62 0.68 0.92 0.68 0.54 0.79 0.98 0.80 0.58 0.32 0.31 0.45 0.46 0.49 0.29 0.32 0.19 0.13 0.05 0.03 0.02 0.05 0.02 0.01 0.00 0.00 0.00 0.01 0.01 0.03 0.03 0.02 0.01 0.00 0.00 0.00 0.00 0.00
0.65 0.44 0.29 0.18 0.16 0.16 0.18 0.21 0.26 0.26 0.29 0.31 0.29 0.24 0.30 0.50 0.82 0.51 0.61 0.54 0.66 0.83 0.77 0.69 0.47 0.47 0.30 0.65 0.37 0.39 0.39 0.50 0.51 0.24 0.06 0.02 0.04 0.07 0.03 0.00 0.00 0.00 0.00 0.00 0.01 0.02 0.01 0.01 0.00 0.00 0.00 0.00 0.00 0.01
0.29 0.20 0.15 0.12 0.13 0.18 0.19 0.19 0.18 0.17 0.27 0.31 0.34 0.45 0.74 1.02 1.02 0.65 0.68 0.87 0.81 0.78 0.78 0.39 0.32 0.37 0.38 0.58 0.76 0.40 0.35 0.37 0.30 0.34 0.30 0.15 0.03 0.03 0.01 0.00 0.00 0.00 0.00 0.01 0.00 0.00 0.00 0.00 0.00 0.00 0.00 0.02 0.06 0.17
0.21 0.18 0.13 0.10 0.16 0.21 0.19 0.16 0.15 0.22 0.35 0.53 0.73 1.04 1.17 0.98 0.82 1.02 1.07 1.07 0.87 0.46 0.33 0.33 0.24 0.18 0.39 0.39 0.64 0.89 0.68 0.30 0.18 0.21 0.25 0.29 0.21 0.09 0.02 0.00 0.00 0.00 0.00 0.01 0.01 0.01 0.02 0.02 0.02 0.03 0.06 0.13 0.22 0.18
0.20 0.13 0.11 0.14 0.18 0.15 0.16 0.15 0.15 0.27 0.87 1.22 1.43 1.32 1.08 1.03 0.88 0.98 0.94 0.93 0.62 0.35 0.12 0.13 0.13 0.20 0.18 0.48 0.47 0.42 0.64 0.86 0.36 0.16 0.19 0.24 0.18 0.09 0.05 0.04 0.05 0.06 0.06 0.05 0.04 0.03 0.04 0.07 0.16 0.28 0.29 0.20 0.12 0.12
0.20 0.14 0.10 0.13 0.14 0.10 0.14 0.17 0.25 0.44 0.95 1.43 1.32 1.13 1.20 1.25 0.94 0.87 0.99 0.65 0.33 0.15 0.10 0.10 0.10 0.15 0.16 0.24 0.53 0.49 0.37 0.46 0.56 0.28 0.21 0.14 0.09 0.10 0.18 0.20 0.18 0.15 0.13 0.12 0.13 0.17 0.24 0.29 0.29 0.17 0.10 0.11 0.14 0.17
0.21 0.17 0.15 0.17 0.12 0.12 0.21 0.45 0.57 0.94 1.35 1.45 1.37 1.44 1.48 1.46 1.41 1.07 0.66 0.32 0.28 0.21 0.13 0.13 0.10 0.10 0.12 0.14 0.33 0.58 0.71 0.47 0.23 0.32 0.42 0.31 0.21 0.21 0.22 0.19 0.18 0.17 0.18 0.23 0.27 0.22 0.14 0.10 0.12 0.14 0.20 0.27 0.28 0.28
0.16 0.16 0.21 0.23 0.21 0.29 0.53 0.65 1.04 1.38 1.09 1.26 1.38 1.48 1.46 1.29 0.87 0.64 0.32 0.16 0.25 0.25 0.15 0.15 0.15 0.17 0.17 0.21 0.42 0.66 0.77 0.49 0.49 0.36 0.28 0.32 0.46 0.54 0.43 0.35 0.31 0.29 0.27 0.24 0.20 0.17 0.19 0.19 0.22 0.26 0.24 0.21 0.16 0.14
0.10 0.12 0.16 0.26 0.31 0.40 0.49 0.55 0.83 0.90 0.73 0.69 0.54 0.82 0.80 0.72 0.60 0.50 0.38 0.33 0.38 0.55 0.48 0.48 0.52 0.39 0.38 0.60 0.63 0.46 0.43 0.42 0.37 0.39 0.47 0.48 0.48 0.43 0.24 0.17 0.17 0.19 0.22 0.24 0.26 0.23 0.21 0.20 0.16 0.16 0.15 0.12 0.09 0.07
0.10 0.19 0.28 0.36 0.39 0.37 0.36 0.48 0.63 0.67 0.38 0.28 0.50 0.74 0.66 0.62 0.63 0.61 0.56 0.57 0.56 0.70 0.63 0.53 0.50 0.46 0.62 0.52 0.39 0.40 0.36 0.41 0.46 0.32 0.27 0.27 0.28 0.29 0.31 0.28 0.25 0.27 0.24 0.20 0.17 0.15 0.13 0.12 0.08 0.05 0.04 0.02 0.02 0.01
0.10 0.10 0.18 0.24 0.28 0.34 0.31 0.33 0.34 0.25 0.30 0.31 0.66 0.79 0.70 0.61 0.63 0.62 0.56 0.50 0.40 0.36 0.34 0.22 0.26 0.34 0.35 0.34 0.38 0.37 0.45 0.41 0.38 0.36 0.32 0.31 0.32 0.27 0.27 0.31 0.32 0.26 0.17 0.12 0.12 0.10 0.06 0.03 0.01 0.00 0.00 0.00 0.00 0.01
0.17 0.11 0.14 0.18 0.21 0.23 0.26 0.21 0.14 0.11 0.29 0.49 0.51 0.70 0.51 0.54 0.48 0.43 0.39 0.28 0.20 0.20 0.20 0.25 0.21 0.24 0.35 0.35 0.39 0.39 0.40 0.44 0.48 0.49 0.47 0.50 0.47 0.38 0.33 0.28 0.27 0.19 0.14 0.15 0.14 0.13 0.11 0.08 0.06 0.06 0.04 0.03 0.01 0.01
0.36 0.32 0.24 0.23 0.19 0.12 0.13 0.11 0.03 0.15 0.39 0.43 0.44 0.35 0.24 0.27 0.25 0.23 0.16 0.12 0.09 0.08 0.09 0.16 0.19 0.27 0.37 0.42 0.49 0.47 0.47 0.47 0.46 0.44 0.39 0.42 0.40 0.35 0.32 0.29 0.26 0.25 0.20 0.17 0.13 0.11 0.11 0.09 0.08 0.07 0.05 0.04 0.03 0.04
0.43 0.39 0.32 0.31 0.16 0.06 0.01 0.02 0.01 0.08 0.22 0.24 0.20 0.09 0.05 0.09 0.05 0.02 0.02 0.00 0.01 0.01 0.07 0.17 0.36 0.45 0.47 0.50 0.55 0.54 0.48 0.42 0.33 0.23 0.26 0.33 0.35 0.31 0.34 0.29 0.26 0.23 0.17 0.16 0.15 0.14 0.12 0.11 0.13 0.12 0.11 0.10 0.09 0.08
0.25 0.32 0.35 0.28 0.18 0.02 0.00 0.00 0.03 0.04 0.05 0.04 0.04 0.01 0.00 0.01 0.01 0.01 0.01 0.00 0.02 0.07 0.20 0.33 0.36 0.35 0.30 0.31 0.33 0.35 0.33 0.30 0.28 0.22 0.22 0.25 0.32 0.25 0.26 0.27 0.25 0.25 0.22 0.24 0.22 0.23 0.20 0.20 0.18 0.15 0.13 0.09 0.08 0.07
0.10 0.22 0.25 0.27 0.30 0.13 0.02 0.00 0.01 0.01 0.00 0.01 0.01 0.02 0.02 0.03 0.03 0.02 0.01 0.03 0.11 0.26 0.30 0.22 0.18 0.16 0.12 0.13 0.15 0.16 0.24 0.23 0.28 0.33 0.34 0.26 0.25 0.25 0.28 0.35 0.27 0.29 0.28 0.29 0.25 0.22 0.18 0.15 0.14 0.12 0.08 0.06 0.05 0.05
0.18 0.32 0.33 0.29 0.28 0.14 0.09 0.02 0.03 0.00 0.01 0.01 0.02 0.02 0.02 0.02 0.03 0.02 0.04 0.09 0.17 0.25 0.25 0.15 0.12 0.12 0.12 0.16 0.10 0.08 0.07 0.07 0.12 0.23 0.32 0.31 0.30 0.32 0.30 0.30 0.28 0.25 0.21 0.20 0.18 0.15 0.13 0.10 0.06 0.04 0.03 0.04 0.05 0.04
0.24 0.43 0.44 0.33 0.16 0.14 0.08 0.07 0.04 0.03 0.01 0.02 0.02 0.03 0.04 0.04 0.02 0.03 0.05 0.11 0.19 0.11 0.07 0.12 0.13 0.14 0.13 0.13 0.14 0.18 0.21 0.15 0.16 0.20 0.23 0.19 0.17 0.20 0.15 0.13 0.12 0.11 0.11 0.09 0.06 0.04 0.03 0.02 0.02 0.04 0.04 0.04 0.03 0.04
0.41 0.36 0.32 0.26 0.14 0.07 0.04 0.04 0.05 0.04 0.03 0.02 0.03 0.04 0.04 0.02 0.04 0.04 0.06 0.17 0.13 0.13 0.14 0.16 0.14 0.14 0.16 0.18 0.18 0.17 0.14 0.12 0.10 0.10 0.13 0.11 0.10 0.08 0.06 0.05 0.04 0.04 0.04 0.04 0.03 0.03 0.03 0.03 0.03 0.03 0.03 0.04 0.06 0.08
0.36 0.22 0.14 0.10 0.07 0.08 0.05 0.03 0.03 0.04 0.04 0.08 0.10 0.08 0.05 0.08 0.07 0.11 0.14 0.21 0.18 0.19 0.20 0.21 0.20 0.15 0.14 0.13 0.12 0.11 0.08 0.08 0.05 0.04 0.05 0.02 0.04 0.05 0.04 0.03 0.03 0.03 0.04 0.05 0.07 0.06 0.03 0.03 0.04 0.04 0.06 0.06 0.08 0.12
0.16 0.10 0.04 0.03 0.07 0.13 0.18 0.15 0.14 0.16 0.15 0.16 0.11 0.08 0.13 0.17 0.13 0.19 0.19 0.21 0.21 0.23 0.19 0.17 0.12 0.10 0.12 0.11 0.08 0.06 0.02 0.01 0.01 0.02 0.01 0.02 0.03 0.04 0.06 0.09 0.12 0.10 0.04 0.05 0.07 0.09 0.11 0.09 0.08 0.06 0.08 0.08 0.10 0.15
0.06 0.07 0.08 0.11 0.18 0.20 0.18 0.16 0.19 0.21 0.22 0.20 0.16 0.15 0.16 0.14 0.17 0.22 0.24 0.27 0.20 0.13 0.07 0.06 0.03 0.02 0.03 0.05 0.05 0.05 0.03 0.01 0.01 0.01 0.02 0.06 0.07 0.05 0.03 0.05 0.06 0.04 0.04 0.07 0.08 0.08 0.10 0.12 0.12 0.11 0.12 0.14 0.16 0.19
0.09 0.10 0.10 0.10 0.06 0.04 0.07 0.11 0.12 0.13 0.12 0.10 0.08 0.09 0.10 0.10 0.19 0.20 0.21 0.18 0.14 0.10 0.07 0.06 0.10 0.07 0.05 0.02 0.02 0.02 0.01 0.01 0.00 0.00 0.00 0.02 0.05 0.04 0.03 0.04 0.04 0.04 0.04 0.04 0.04 0.06 0.09 0.13 0.12 0.16 0.19 0.21 0.18 0.15
0.01 0.01 0.01 0.00 0.02 0.05 0.07 0.06 0.07 0.07 0.04 0.03 0.04 0.05 0.06 0.13 0.22 0.18 0.12 0.09 0.08 0.09 0.10 0.08 0.07 0.04 0.03 0.02 0.02 0.03 0.06 0.02 0.01 0.02 0.03 0.03 0.04 0.04 0.03 0.04 0.04 0.04 0.05 0.05 0.04 0.03 0.05 0.05 0.06 0.14 0.09 0.09 0.12 0.12
0.01 0.01 0.01 0.01 0.05 0.08 0.05 0.03 0.04 0.07 0.07 0.04 0.05 0.06 0.13 0.13 0.15 0.11 0.08 0.12 0.07 0.06 0.04 0.03 0.02 0.02 0.01 0.02 0.02 0.02 0.03 0.03 0.03 0.03 0.03 0.03 0.03 0.03 0.03 0.03 0.03 0.05 0.05 0.05 0.06 0.06 0.06 0.07 0.09 0.11 0.06 0.06 0.08 0.08
0.01 0.03 0.02 0.05 0.09 0.06 0.04 0.06 0.08 0.11 0.09 0.06 0.08 0.06 0.09 0.09 0.07 0.08 0.07 0.07 0.04 0.02 0.02 0.02 0.03 0.04 0.03 0.03 0.03 0.04 0.04 0.03 0.02 0.02 0.03 0.04 0.03 0.03 0.03 0.02 0.03 0.05 0.05 0.06 0.06 0.08 0.08 0.08 0.08 0.08 0.08 0.07 0.07 0.06
0.02 0.01 0.01 0.02 0.04 0.06 0.05 0.04 0.05 0.05 0.06 0.07 0.10 0.08 0.09 0.08 0.07 0.09 0.08 0.04 0.02 0.02 0.02 0.02 0.03 0.04 0.05 0.02 0.01 0.02 0.01 0.01 0.01 0.02 0.03 0.04 0.02 0.02 0.02 0.03 0.04 0.05 0.06 0.06 0.08 0.08 0.07 0.07 0.07 0.07 0.06 0.06 0.05 0.04

GFSWCAN_prec_precacc_051.txt.gz
Total_Precipitation_Accumulation
0.63 0.49 0.55 0.53 0.49 0.44 0.43 0.59 0.52 0.56 0.54 0.63 0.55 0.44 0.35 0.30 0.36 0.41 0.42 0.73 0.87 0.58 0.28 0.28 0.19 0.14 0.04 0.06 0.06 0.03 0.16 0.12 0.11 0.10 0.04 0.02 0.01 0.00 0.01 0.00 0.01 0.01 0.01 0.01 0.02 0.02 0.01 0.00 0.00 0.01 0.02 0.02 0.00 0.00
0.96 0.78 0.55 0.40 0.44 0.37 0.41 0.46 0.45 0.44 0.49 0.61 0.46 0.37 0.31 0.33 0.39 0.40 0.41 0.58 0.83 0.80 0.47 0.29 0.15 0.12 0.04 0.00 0.01 0.02 0.05 0.02 0.02 0.04 0.02 0.05 0.02 0.01 0.00 0.00 0.00 0.00 0.02 0.03 0.02 0.00 0.00 0.00 0.02 0.02 0.01 0.01 0.00 0.00
1.08 0.68 0.40 0.33 0.34 0.42 0.39 0.35 0.37 0.42 0.46 0.51 0.43 0.37 0.36 0.45 0.44 0.38 0.36 0.46 1.31 1.05 0.51 0.26 0.19 0.15 0.12 0.02 0.02 0.08 0.02 0.01 0.03 0.03 0.05 0.04 0.04 0.00 0.00 0.00 0.00 0.00 0.00 0.00 0.01 0.00 0.00 0.01 0.01 0.01 0.00 0.00 0.00 0.00
0.78 0.63 0.38 0.29 0.32 0.38 0.35 0.32 0.36 0.39 0.42 0.52 0.46 0.44 0.49 0.53 0.49 0.38 0.28 0.74 1.65 1.27 0.98 0.46 0.20 0.16 0.15 0.10 0.01 0.04 0.04 0.03 0.06 0.06 0.08 0.08 0.04 0.01 0.00 0.00 0.00 0.00 0.01 0.01 0.01 0.00 0.00 0.01 0.01 0.00 0.00 0.01 0.01 0.01
0.68 0.58 0.43 0.28 0.28 0.33 0.32 0.26 0.28 0.39 0.56 0.57 0.52 0.51 0.60 0.55 0.40 0.37 0.33 0.87 1.17 1.16 1.09 0.73 0.20 0.21 0.30 0.24 0.16 0.05 0.04 0.03 0.04 0.11 0.09 0.03 0.02 0.02 0.02 0.01 0.00 0.00 0.00 0.02 0.01 0.02 0.01 0.03 0.02 0.02 0.02 0.02 0.02 0.00
0.75 0.58 0.42 0.26 0.25 0.26 0.24 0.25 0.31 0.45 0.55 0.54 0.52 0.54 0.47 0.31 0.48 0.56 0.94 0.76 0.86 0.78 1.09 0.87 0.51 0.14 0.30 0.35 0.50 0.24 0.11 0.08 0.07 0.09 0.08 0.02 0.01 0.03 0.02 0.00 0.00 0.00 0.00 0.01 0.02 0.02 0.03 0.02 0.01 0.00 0.00 0.00 0.00 0.00
0.68 0.50 0.36 0.26 0.20 0.20 0.21 0.25 0.31 0.42 0.48 0.48 0.45 0.32 0.25 0.33 0.63 0.70 0.94 0.68 0.54 0.79 0.98 0.83 0.61 0.33 0.33 0.56 0.53 0.55 0.34 0.35 0.22 0.17 0.08 0.04 0.03 0.05 0.02 0.01 0.00 0.00 0.00 0.01 0.01 0.03 0.03 0.02 0.01 0.00 0.00 0.00 0.00 0.00
0.65 0.46 0.31 0.21 0.18 0.18 0.21 0.25 0.31 0.32 0.34 0.36 0.33 0.28 0.33 0.52 0.83 0.52 0.61 0.54 0.66 0.84 0.78 0.74 0.53 0.57 0.38 0.86 0.60 0.50 0.50 0.58 0.57 0.27 0.08 0.03 0.06 0.09 0.05 0.00 0.00 0.00 0.00 0.00 0.01 0.02 0.01 0.01 0.00 0.00 0.00 0.00 0.00 0.01
0.30 0.20 0.16 0.12 0.15 0.21 0.23 0.22 0.21 0.21 0.30 0.34 0.36 0.46 0.75 1.02 1.03 0.67 0.68 0.88 0.83 0.81 0.80 0.40 0.38 0.52 0.53 0.85 1.04 0.51 0.44 0.45 0.37 0.40 0.32 0.18 0.05 0.05 0.01 0.00 0.00 0.00 0.00 0.01 0.00 0.00 0.00 0.00 0.00 0.00 0.00 0.02 0.06 0.17
0.23 0.19 0.13 0.11 0.17 0.23 0.21 0.18 0.17 0.23 0.36 0.53 0.73 1.04 1.17 0.99 0.83 1.02 1.09 1.09 0.90 0.50 0.34 0.33 0.25 0.23 0.48 0.49 0.76 0.97 0.72 0.34 0.25 0.25 0.29 0.35 0.24 0.10 0.02 0.00 0.00 0.00 0.00 0.01 0.01 0.01 0.02 0.02 0.02 0.03 0.06 0.13 0.22 0.18
0.22 0.15 0.12 0.15 0.18 0.16 0.17 0.16 0.15 0.27 0.87 1.22 1.43 1.33 1.09 1.05 0.94 1.06 1.02 0.96 0.64 0.37 0.13 0.13 0.13 0.21 0.20 0.54 0.52 0.47 0.71 0.88 0.38 0.17 0.23 0.26 0.19 0.10 0.05 0.04 0.05 0.06 0.06 0.05 0.04 0.03 0.04 0.07 0.16 0.28 0.29 0.20 0.12 0.12
0.21 0.15 0.10 0.13 0.15 0.11 0.15 0.18 0.26 0.46 0.96 1.43 1.33 1.14 1.21 1.26 0.98 0.89 1.00 0.66 0.34 0.17 0.12 0.12 0.11 0.15 0.19 0.43 0.64 0.53 0.41 0.48 0.71 0.41 0.30 0.20 0.13 0.12 0.19 0.20 0.18 0.15 0.13 0.12 0.13 0.17 0.24 0.29 0.29 0.17 0.10 0.11 0.15 0.19
0.21 0.17 0.16 0.18 0.13 0.13 0.22 0.45 0.57 0.95 1.35 1.47 1.39 1.44 1.49 1.47 1.42 1.08 0.67 0.34 0.30 0.38 0.28 0.17 0.13 0.11 0.14 0.28 0.47 0.62 0.72 0.48 0.36 0.51 0.56 0.39 0.25 0.23 0.24 0.22 0.21 0.20 0.21 0.25 0.29 0.24 0.15 0.11 0.14 0.16 0.22 0.31 0.35 0.39
0.16 0.17 0.21 0.23 0.22 0.36 0.63 0.70 1.07 1.41 1.19 1.37 1.41 1.49 1.47 1.31 0.89 0.66 0.34 0.20 0.32 0.41 0.33 0.24 0.20 0.22 0.22 0.35 0.56 0.73 0.81 0.50 0.52 0.40 0.33 0.36 0.52 0.59 0.46 0.40 0.40 0.42 0.43 0.41 0.39 0.36 0.37 0.37 0.38 0.39 0.35 0.34 0.28 0.27
0.10 0.13 0.16 0.27 0.36 0.52 0.64 0.64 0.87 0.94 0.79 0.71 0.55 0.83 0.82 0.75 0.62 0.51 0.39 0.34 0.43 0.71 0.69 0.65 0.68 0.59 0.49 0.72 0.68 0.51 0.47 0.44 0.39 0.42 0.50 0.52 0.54 0.48 0.29 0.22 0.23 0.26 0.31 0.34 0.36 0.34 0.34 0.36 0.33 0.34 0.30 0.24 0.17 0.16
0.10 0.19 0.28 0.36 0.40 0.39 0.37 0.48 0.63 0.67 0.38 0.28 0.51 0.75 0.67 0.64 0.65 0.62 0.57 0.60 0.64 0.84 0.82 0.72 0.67 0.65 0.70 0.55 0.40 0.41 0.37 0.43 0.48 0.35 0.31 0.33 0.34 0.34 0.36 0.33 0.31 0.33 0.30 0.24 0.22 0.20 0.19 0.19 0.14 0.13 0.13 0.11 0.10 0.07
0.10 0.10 0.18 0.24 0.28 0.34 0.31 0.33 0.35 0.25 0.30 0.33 0.70 0.85 0.74 0.64 0.68 0.70 0.65 0.64 0.58 0.56 0.51 0.33 0.30 0.38 0.39 0.35 0.39 0.38 0.47 0.45 0.42 0.40 0.37 0.38 0.39 0.35 0.34 0.37 0.38 0.31 0.21 0.17 0.16 0.15 0.12 0.09 0.05 0.03 0.03 0.04 0.03 0.03
0.18 0.11 0.14 0.18 0.21 0.23 0.27 0.21 0.15 0.13 0.34 0.56 0.58 0.81 0.62 0.67 0.62 0.58 0.58 0.46 0.40 0.39 0.32 0.29 0.23 0.26 0.37 0.37 0.42 0.42 0.43 0.48 0.53 0.54 0.53 0.58 0.55 0.46 0.40 0.34 0.32 0.23 0.18 0.20 0.18 0.18 0.16 0.11 0.08 0.09 0.07 0.06 0.03 0.03
0.37 0.34 0.27 0.27 0.20 0.12 0.16 0.14 0.03 0.17 0.45 0.49 0.51 0.44 0.34 0.37 0.34 0.30 0.20 0.14 0.10 0.09 0.10 0.16 0.20 0.28 0.40 0.44 0.53 0.51 0.50 0.51 0.50 0.49 0.45 0.48 0.47 0.42 0.38 0.33 0.29 0.28 0.23 0.20 0.15 0.13 0.13 0.11 0.11 0.09 0.08 0.06 0.05 0.06
0.50 0.45 0.35 0.32 0.16 0.06 0.02 0.04 0.01 0.09 0.23 0.24 0.20 0.09 0.05 0.09 0.05 0.02 0.02 0.00 0.01 0.01 0.07 0.18 0.38 0.48 0.50 0.53 0.58 0.57 0.51 0.46 0.37 0.26 0.30 0.38 0.40 0.35 0.37 0.32 0.28 0.25 0.19 0.18 0.17 0.15 0.13 0.11 0.14 0.13 0.12 0.11 0.10 0.09
0.29 0.33 0.35 0.28 0.18 0.02 0.01 0.01 0.04 0.04 0.06 0.05 0.04 0.01 0.00 0.01 0.01 0.01 0.01 0.00 0.02 0.08 0.22 0.35 0.39 0.37 0.32 0.33 0.35 0.37 0.34 0.31 0.30 0.23 0.24 0.28 0.34 0.27 0.28 0.29 0.27 0.26 0.23 0.25 0.23 0.24 0.21 0.22 0.19 0.16 0.14 0.10 0.09 0.08
0.10 0.22 0.25 0.27 0.30 0.13 0.02 0.00 0.01 0.01 0.00 0.01 0.01 0.02 0.02 0.03 0.03 0.02 0.01 0.03 0.12 0.29 0.32 0.24 0.20 0.17 0.13 0.14 0.16 0.17 0.26 0.24 0.29 0.34 0.35 0.26 0.25 0.25 0.29 0.37 0.28 0.29 0.28 0.29 0.25 0.22 0.18 0.15 0.14 0.12 0.08 0.06 0.05 0.05
0.18 0.32 0.33 0.29 0.28 0.14 0.09 0.02 0.03 0.00 0.01 0.01 0.02 0.02 0.02 0.02 0.03 0.02 0.04 0.09 0.19 0.27 0.27 0.16 0.12 0.12 0.12 0.17 0.10 0.08 0.07 0.07 0.12 0.23 0.32 0.31 0.30 0.32 0.30 0.30 0.28 0.25 0.21 0.20 0.18 0.15 0.13 0.10 0.06 0.04 0.03 0.04 0.05 0.04
0.24 0.43 0.44 0.33 0.16 0.14 0.08 0.07 0.04 0.03 0.01 0.02 0.02 0.04 0.04 0.04 0.02 0.03 0.05 0.11 0.20 0.12 0.08 0.13 0.14 0.14 0.13 0.13 0.14 0.18 0.21 0.15 0.16 0.20 0.23 0.19 0.17 0.20 0.15 0.13 0.12 0.11 0.11 0.09 0.06 0.04 0.03 0.02 0.02 0.04 0.04 0.04 0.03 0.04
0.41 0.36 0.32 0.26 0.14 0.07 0.04 0.04 0.05 0.04 0.03 0.02 0.04 0.05 0.04 0.02 0.04 0.04 0.06 0.18 0.14 0.14 0.15 0.16 0.15 0.14 0.16 0.18 0.18 0.17 0.14 0.12 0.10 0.10 0.13 0.11 0.10 0.08 0.06 0.05 0.04 0.04 0.04 0.04 0.03 0.03 0.03 0.03 0.03 0.03 0.03 0.04 0.06 0.08
0.36 0.22 0.14 0.10 0.07 0.08 0.05 0.03 0.03 0.04 0.04 0.09 0.10 0.08 0.05 0.08 0.07 0.11 0.15 0.22 0.19 0.20 0.21 0.22 0.21 0.15 0.14 0.13 0.12 0.11 0.08 0.08 0.05 0.04 0.05 0.02 0.04 0.05 0.04 0.03 0.03 0.03 0.04 0.06 0.07 0.06 0.03 0.03 0.04 0.04 0.06 0.06 0.08 0.12
0.16 0.10 0.04 0.03 0.07 0.13 0.18 0.15 0.14 0.16 0.15 0.16 0.12 0.08 0.13 0.17 0.14 0.19 0.20 0.22 0.22 0.23 0.20 0.17 0.13 0.11 0.12 0.11 0.08 0.06 0.02 0.01 0.01 0.02 0.01 0.02 0.03 0.04 0.06 0.09 0.12 0.10 0.04 0.05 0.08 0.10 0.11 0.10 0.08 0.06 0.08 0.08 0.10 0.15
0.06 0.07 0.08 0.11 0.18 0.20 0.18 0.16 0.19 0.21 0.22 0.20 0.16 0.15 0.16 0.14 0.18 0.23 0.24 0.27 0.20 0.13 0.07 0.06 0.03 0.02 0.03 0.05 0.05 0.05 0.03 0.01 0.01 0.01 0.02 0.06 0.07 0.05 0.03 0.05 0.06 0.04 0.04 0.07 0.08 0.09 0.10 0.13 0.12 0.12 0.12 0.14 0.16 0.19
0.09 0.10 0.10 0.10 0.06 0.04 0.07 0.11 0.12 0.13 0.13 0.10 0.08 0.09 0.10 0.11 0.20 0.22 0.22 0.19 0.14 0.10 0.07 0.06 0.10 0.07 0.05 0.02 0.02 0.02 0.01 0.01 0.00 0.00 0.00 0.02 0.05 0.04 0.03 0.04 0.04 0.04 0.04 0.04 0.04 0.06 0.09 0.13 0.12 0.16 0.19 0.21 0.18 0.15
0.01 0.01 0.01 0.00 0.02 0.05 0.07 0.06 0.08 0.07 0.04 0.03 0.04 0.05 0.07 0.14 0.23 0.19 0.13 0.10 0.08 0.09 0.10 0.09 0.07 0.04 0.03 0.03 0.02 0.03 0.06 0.02 0.01 0.02 0.03 0.03 0.04 0.04 0.04 0.04 0.04 0.04 0.05 0.06 0.04 0.03 0.05 0.05 0.06 0.14 0.09 0.09 0.12 0.12
0.01 0.01 0.01 0.01 0.05 0.08 0.06 0.03 0.04 0.07 0.07 0.05 0.05 0.06 0.13 0.14 0.15 0.11 0.09 0.12 0.07 0.06 0.05 0.03 0.02 0.02 0.01 0.02 0.02 0.02 0.03 0.03 0.03 0.03 0.03 0.04 0.04 0.03 0.04 0.03 0.04 0.05 0.05 0.06 0.06 0.06 0.06 0.07 0.09 0.11 0.06 0.06 0.08 0.08
0.01 0.03 0.02 0.05 0.10 0.06 0.04 0.07 0.08 0.11 0.09 0.06 0.09 0.07 0.10 0.09 0.08 0.08 0.07 0.07 0.04 0.03 0.02 0.02 0.03 0.04 0.04 0.03 0.03 0.04 0.04 0.03 0.02 0.02 0.03 0.04 0.03 0.03 0.03 0.02 0.04 0.05 0.06 0.06 0.06 0.08 0.08 0.08 0.08 0.08 0.08 0.07 0.07 0.06
0.02 0.01 0.01 0.02 0.04 0.06 0.05 0.04 0.05 0.05 0.06 0.07 0.10 0.09 0.09 0.09 0.07 0.09 0.09 0.04 0.03 0.02 0.02 0.02 0.03 0.04 0.05 0.02 0.01 0.02 0.01 0.01 0.01 0.02 0.03 0.04 0.02 0.02 0.02 0.03 0.04 0.05 0.06 0.06 0.08 0.08 0.07 0.07 0.07 0.07 0.06 0.06 0.05 0.04